[[{"header":{"parameterUnit":"m.s-1","parameterCategory":1,"la1":31.0,"la2":29.5877,"lo1":-88.7671,"lo2":-86.6584,"dy":0.0162,"dx":0.0185,"nx":115,"ny":88,"refTime":"2024-03-15T12:00:00:Z","depth":0,"parameterNumber":2,"parameterNumberName":"U-component_of_WINDS"},"data":[0.0,0.0,0.0,0.0,0.0,0.0,0.0,0.0,0.0,0.0,0.0,0.0,0.0,0.0,0.0,0.0,0.0,0.0,0.0,0.0,0.0,0.0,0.0,0.0,0.0,0.0,0.0,0.0,0.0,0.0,0.0,0.0,0.0,0.0,0.0,0.0,0.0,0.0,0.0,0.0,0.0,0.0,0.0,0.0,0.0,0.0,0.0,0.0,0.0,0.0,0.0,0.0,0.0,0.0,0.0,0.0,0.0,0.0,0.0,0.0,0.0,0.0,0.0,0.0,0.0,0.0,0.0,0.0,0.0,0.0,0.0,0.0,0.0,0.0,0.0,0.0,0.0,0.0,0.0,0.0,0.0,0.0,0.0,0.0,0.0,0.0,0.0,0.0,0.0,0.0,0.0,0.0,0.0,0.0,0.0,0.0,0.0,0.0,0.0,0.0,0.0,0.0,0.0,0.0,0.0,0.0,0.0,0.0,0.0,0.0,0.0,0.0,0.0,0.0,0.0,0.0,0.0,0.0,0.0,0.0,0.0,0.0,0.0,0.0,0.0,0.0,0.0,0.0,0.0,0.0,0.0,0.0,0.0,0.0,0.0,0.0,0.0,0.0,0.0,0.0,0.0,0.0,0.0,0.0,0.0,0.0,0.0,0.0,0.0,0.0,0.0,0.0,0.0,0.0,0.0,0.0,0.0,0.0,0.0,0.0,0.0,0.0,0.0,0.0,0.0,0.0,0.0,0.0,0.0,0.0,0.0,0.0,0.0,0.0,0.0,0.0,0.0,0.0,0.0,0.0,0.0,0.0,0.0,0.0,0.0,0.0,0.0,0.0,0.0,0.0,0.0,0.0,0.0,0.0,0.0,0.0,0.0,0.0,0.0,0.0,0.0,0.0,0.0,0.0,0.0,0.0,0.0,0.0,0.0,0.0,0.0,0.0,0.0,0.0,0.0,0.0,0.0,0.0,0.0,0.0,0.0,0.0,0.0,0.0,0.0,0.0,0.0,0.0,0.0,0.0,0.0,0.0,0.0,0.0,0.0,0.0,0.0,0.0,0.0,0.0,0.0,0.0,0.0,0.0,0.0,0.0,0.0,0.0,0.0,0.0,0.0,0.0,0.0,0.0,0.0,0.0,0.0,0.0,0.0,0.0,0.0,0.0,0.0,0.0,0.0,0.0,0.0,0.0,0.0,0.0,0.0,0.0,0.0,0.0,0.0,0.0,0.0,0.0,0.0,0.0,0.0,0.0,0.0,0.0,0.0,0.0,0.0,0.0,0.0,0.0,0.0,0.0,0.0,0.0,0.0,0.0,0.0,0.0,0.0,0.0,0.0,0.0,0.0,0.0,0.0,0.0,0.0,0.0,0.0,0.0,0.0,0.0,0.0,0.0,0.0,0.0,0.0,0.0,0.0,0.0,0.0,0.0,0.0,0.0,0.0,0.0,0.0,0.0,0.0,0.0,0.0,0.0,0.0,0.0,0.0,0.0,0.0,0.0,0.0,0.0,0.0,0.0,0.0,0.0,0.0,0.0,0.0,0.0,0.0,0.0,0.0,0.0,0.0,0.0,0.0,0.0,0.0,0.0,0.0,0.0,0.0,0.0,0.0,0.0,0.0,0.0,0.0,0.0,0.0,0.0,0.0,0.0,0.0,0.0,0.0,0.0,0.0,0.0,0.0,0.0,0.0,0.0,0.0,0.0,0.0,0.0,0.0,0.0,0.0,0.0,0.0,0.0,0.0,0.0,0.0,0.0,0.0,0.0,0.0,0.0,0.0,0.0,0.0,0.0,0.0,0.0,0.0,0.0,0.0,0.0,0.0,0.0,0.0,0.0,0.0,0.0,0.0,0.0,0.0,0.0,0.0,0.0,0.0,0.0,0.0,0.0,0.0,0.0,0.0,0.0,0.0,0.0,0.0,0.0,0.0,0.0,0.0,0.0,0.0,0.0,0.0,0.0,0.0,0.0,0.0,0.0,0.0,0.0,0.0,0.0,0.0,0.0,0.0,0.0,0.0,0.0,0.0,0.0,0.0,0.0,0.0,0.0,0.0,0.0,0.0,0.0,0.0,0.0,0.0,0.0,0.0,0.0,0.0,0.0,0.0,0.0,0.0,0.0,0.0,0.0,0.0,0.0,0.0,0.0,0.0,0.0,0.0,0.0,0.0,0.0,0.0,0.0,0.0,0.0,0.0,0.0,0.0,0.0,0.0,0.0,0.0,0.0,0.0,0.0,0.0,0.0,0.0,0.0,0.0,0.0,0.0,0.0,0.0,0.0,0.0,0.0,0.0,0.0,0.0,0.0,0.0,0.0,0.0,0.0,0.0,0.0,0.0,0.0,0.0,0.0,0.0,0.0,0.0,0.0,0.0,0.0,0.0,0.0,0.0,0.0,0.0,0.0,0.0,0.0,0.0,0.0,0.0,0.0,0.0,0.0,0.0,0.0,0.0,0.0,0.0,0.0,0.0,0.0,0.0,0.0,0.0,0.0,0.0,0.0,0.0,0.0,0.0,0.0,0.0,0.0,0.0,0.0,0.0,0.0,0.0,0.0,0.0,0.0,0.0,0.0,0.0,0.0,0.0,0.0,0.0,0.0,0.0,0.0,0.0,0.0,0.0,0.0,0.0,0.0,0.0,0.0,0.0,0.0,0.0,0.0,0.0,0.0,0.0,0.0,0.0,0.0,0.0,0.0,0.0,0.0,0.0,0.0,0.0,0.0,0.0,0.0,0.0,0.0,0.0,0.0,0.0,0.0,0.0,0.0,0.0,0.0,0.0,0.0,0.0,0.0,0.0,0.0,0.0,0.0,0.0,0.0,0.0,0.0,0.0,0.0,0.0,0.0,0.0,0.0,0.0,0.0,0.0,0.0,0.0,0.0,0.0,0.0,0.0,0.0,0.0,0.0,0.0,0.0,0.0,0.0,0.0,0.0,0.0,0.0,0.0,0.0,0.0,0.0,0.0,0.0,0.0,0.0,0.0,0.0,0.0,0.0,0.0,0.0,0.0,0.0,0.0,0.0,0.0,0.0,0.0,0.0,0.0,0.0,0.0,0.0,0.0,0.0,0.0,0.0,0.0,0.0,0.0,0.0,0.0,0.0,0.0,0.0,0.0,0.0,0.0,0.0,0.0,0.0,0.0,0.0,0.0,0.0,0.0,0.0,0.0,0.0,0.0,0.0,0.0,0.0,0.0,0.0,0.0,0.0,0.0,0.0,0.0,0.0,0.0,0.0,0.0,0.0,0.0,0.0,0.0,0.0,0.0,0.0,0.0,0.0,0.0,0.0,0.0,0.0,0.0,0.0,0.0,0.0,0.0,0.0,0.0,0.0,0.0,0.0,0.0,0.0,0.0,0.0,0.0,0.0,0.0,0.0,0.0,0.0,0.0,0.0,0.0,0.0,0.0,0.0,0.0,0.0,0.0,0.0,0.0,0.0,0.0,0.0,0.0,0.0,0.0,0.0,0.0,0.0,0.0,0.0,0.0,0.0,0.0,0.0,0.0,0.0,0.0,0.0,0.0,0.0,0.0,0.0,0.0,0.0,0.0,0.0,0.0,0.0,0.0,0.0,0.0,0.0,0.0,0.0,0.0,0.0,0.0,0.0,0.0,0.0,0.0,0.0,0.0,0.0,0.0,0.0,0.0,0.0,0.0,0.0,0.0,0.0,0.0,0.0,0.0,0.0,0.0,0.0,0.0,0.0,0.0,0.0,0.0,0.0,0.0,0.0,0.0,0.0,0.0,0.0,0.0,0.0,0.0,0.0,0.0,0.0,0.0,0.0,0.0,0.0,0.0,0.0,0.0,0.0,0.0,0.0,0.0,0.0,0.0,0.0,0.0,0.0,0.0,0.0,0.0,0.0,0.0,0.0,0.0,0.0,0.0,0.0,0.0,0.0,0.0,0.0,0.0,0.0,0.0,0.0,0.0,0.0,0.0,0.0,0.0,0.0,0.0,0.0,0.0,0.0,0.0,0.0,0.0,0.0,0.0,0.0,0.0,0.0,0.0,0.0,0.0,0.0,0.0,0.0,0.0,0.0,0.0,0.0,0.0,0.0,0.0,0.0,0.0,0.0,0.0,0.0,0.0,0.0,0.0,0.0,0.0,0.0,0.0,0.0,0.0,0.0,0.0,0.0,0.0,0.0,0.0,0.0,0.0,0.0,0.0,0.0,0.0,0.0,0.0,0.0,0.0,0.0,0.0,0.0,0.0,0.0,0.0,0.0,0.0,0.0,0.0,0.0,0.0,0.0,0.0,0.0,0.0,0.0,0.0,0.0,3.9193,0.0,0.0,0.0,0.0,0.0,0.0,0.0,0.0,0.0,0.0,0.0,0.0,0.0,0.0,0.0,0.0,0.0,0.0,0.0,0.0,0.0,0.0,0.0,0.0,0.0,0.0,0.0,0.0,0.0,0.0,0.0,0.0,0.0,0.0,0.0,0.0,0.0,0.0,0.0,0.0,0.0,0.0,0.0,0.0,0.0,0.0,0.0,0.0,0.0,0.0,0.0,0.0,0.0,0.0,0.0,0.0,0.0,0.0,0.0,0.0,0.0,0.0,0.0,0.0,0.0,0.0,0.0,0.0,0.0,0.0,0.0,0.0,0.0,0.0,0.0,0.0,0.0,0.0,0.0,0.0,0.0,0.0,0.0,0.0,0.0,0.0,0.0,0.0,0.0,0.0,0.0,0.0,0.0,0.0,0.0,0.0,0.0,0.0,0.0,0.0,0.0,0.0,0.0,0.0,0.0,0.0,0.0,0.0,0.0,0.0,4.0955,3.9937,4.084,4.0538,3.8861,0.0,0.0,0.0,0.0,0.0,0.0,0.0,0.0,0.0,0.0,0.0,0.0,0.0,0.0,0.0,0.0,0.0,0.0,0.0,0.0,0.0,0.0,0.0,0.0,0.0,0.0,0.0,0.0,0.0,0.0,0.0,0.0,0.0,0.0,0.0,0.0,0.0,0.0,0.0,0.0,0.0,0.0,0.0,0.0,0.0,0.0,0.0,0.0,0.0,0.0,0.0,0.0,0.0,0.0,0.0,0.0,0.0,0.0,0.0,0.0,0.0,0.0,0.0,0.0,0.0,0.0,0.0,0.0,0.0,0.0,0.0,0.0,0.0,0.0,0.0,0.0,0.0,0.0,0.0,0.0,0.0,0.0,0.0,0.0,0.0,0.0,0.0,0.0,0.0,0.0,0.0,0.0,0.0,0.0,0.0,0.0,0.0,0.0,0.0,0.0,0.0,0.0,0.0,0.0,0.0,0.0,0.0,0.0,0.0,0.0,0.0,0.0,4.1789,4.1396,3.9116,0.0,0.0,0.0,0.0,0.0,0.0,0.0,0.0,0.0,0.0,0.0,0.0,0.0,0.0,0.0,0.0,0.0,0.0,0.0,0.0,0.0,0.0,0.0,0.0,0.0,0.0,0.0,0.0,0.0,0.0,0.0,0.0,0.0,0.0,0.0,0.0,0.0,0.0,0.0,0.0,0.0,0.0,0.0,0.0,0.0,0.0,0.0,0.0,0.0,0.0,0.0,0.0,0.0,0.0,0.0,0.0,0.0,0.0,0.0,0.0,0.0,0.0,0.0,0.0,0.0,0.0,0.0,0.0,0.0,0.0,0.0,0.0,0.0,0.0,0.0,0.0,0.0,0.0,0.0,0.0,0.0,0.0,0.0,0.0,0.0,0.0,0.0,0.0,0.0,0.0,0.0,0.0,0.0,0.0,0.0,0.0,0.0,0.0,0.0,0.0,0.0,0.0,0.0,0.0,0.0,0.0,0.0,0.0,0.0,0.0,4.0773,4.2806,4.2782,0.0,4.0026,0.0,0.0,0.0,0.0,0.0,0.0,0.0,0.0,0.0,0.0,0.0,0.0,0.0,0.0,0.0,0.0,0.0,0.0,0.0,0.0,0.0,0.0,0.0,0.0,0.0,0.0,0.0,0.0,0.0,0.0,0.0,0.0,0.0,0.0,0.0,0.0,0.0,0.0,0.0,0.0,0.0,0.0,0.0,0.0,0.0,0.0,0.0,0.0,0.0,0.0,0.0,0.0,0.0,0.0,0.0,0.0,0.0,0.0,0.0,0.0,0.0,0.0,0.0,0.0,0.0,0.0,0.0,0.0,0.0,0.0,0.0,0.0,0.0,0.0,0.0,0.0,0.0,0.0,0.0,0.0,0.0,0.0,0.0,0.0,0.0,0.0,0.0,0.0,0.0,0.0,0.0,0.0,0.0,0.0,0.0,0.0,0.0,0.0,0.0,0.0,0.0,0.0,0.0,0.0,0.0,0.0,0.0,0.0,0.0,0.0,4.0197,4.2028,4.1512,4.0392,0.0,0.0,0.0,0.0,0.0,0.0,0.0,0.0,0.0,0.0,0.0,0.0,0.0,0.0,0.0,0.0,0.0,0.0,0.0,0.0,0.0,0.0,0.0,0.0,0.0,0.0,0.0,0.0,0.0,0.0,0.0,0.0,0.0,0.0,0.0,0.0,0.0,0.0,0.0,0.0,0.0,0.0,0.0,0.0,0.0,0.0,0.0,0.0,0.0,0.0,0.0,0.0,0.0,0.0,0.0,0.0,0.0,0.0,0.0,0.0,0.0,0.0,0.0,0.0,0.0,0.0,0.0,0.0,0.0,0.0,0.0,0.0,0.0,0.0,0.0,0.0,0.0,0.0,0.0,0.0,0.0,0.0,0.0,0.0,0.0,0.0,0.0,0.0,0.0,0.0,0.0,0.0,0.0,0.0,0.0,0.0,0.0,0.0,0.0,0.0,0.0,0.0,0.0,0.0,0.0,0.0,0.0,0.0,0.0,0.0,4.0123,4.0574,4.2073,4.04,3.8944,3.8003,0.0,0.0,0.0,0.0,0.0,0.0,0.0,0.0,0.0,0.0,0.0,0.0,0.0,0.0,0.0,0.0,0.0,0.0,0.0,0.0,0.0,0.0,0.0,0.0,0.0,0.0,0.0,0.0,0.0,0.0,0.0,0.0,0.0,0.0,0.0,0.0,0.0,0.0,0.0,0.0,0.0,0.0,0.0,0.0,0.0,0.0,0.0,0.0,0.0,0.0,0.0,0.0,0.0,0.0,0.0,0.0,0.0,0.0,0.0,0.0,0.0,0.0,0.0,0.0,0.0,0.0,0.0,0.0,0.0,0.0,0.0,0.0,0.0,0.0,0.0,0.0,0.0,0.0,0.0,0.0,0.0,0.0,0.0,0.0,0.0,0.0,0.0,0.0,0.0,0.0,0.0,0.0,0.0,0.0,0.0,0.0,0.0,0.0,0.0,0.0,0.0,0.0,0.0,0.0,0.0,0.0,0.0,0.0,4.6652,4.3206,4.234,4.437,4.0136,3.8007,0.0,0.0,0.0,0.0,0.0,0.0,0.0,0.0,0.0,0.0,0.0,0.0,0.0,0.0,0.0,0.0,0.0,0.0,0.0,0.0,0.0,0.0,0.0,0.0,0.0,0.0,0.0,0.0,0.0,0.0,0.0,0.0,0.0,0.0,0.0,0.0,0.0,0.0,0.0,0.0,0.0,0.0,0.0,0.0,0.0,0.0,0.0,0.0,0.0,0.0,0.0,0.0,0.0,0.0,0.0,0.0,0.0,0.0,0.0,0.0,0.0,0.0,0.0,0.0,0.0,0.0,0.0,0.0,0.0,0.0,0.0,0.0,0.0,0.0,0.0,0.0,0.0,0.0,0.0,0.0,0.0,0.0,0.0,0.0,0.0,0.0,0.0,0.0,0.0,0.0,0.0,0.0,0.0,0.0,0.0,0.0,0.0,0.0,0.0,0.0,0.0,0.0,0.0,0.0,0.0,0.0,0.0,0.0,0.0,3.8887,3.887,4.0175,4.2736,3.9383,3.771,0.0,0.0,0.0,0.0,0.0,0.0,0.0,0.0,0.0,0.0,0.0,0.0,0.0,0.0,0.0,0.0,0.0,0.0,0.0,0.0,0.0,0.0,0.0,0.0,0.0,0.0,0.0,0.0,0.0,0.0,0.0,0.0,0.0,0.0,0.0,0.0,0.0,0.0,0.0,0.0,0.0,0.0,0.0,0.0,0.0,0.0,0.0,0.0,0.0,0.0,0.0,0.0,0.0,0.0,0.0,0.0,0.0,0.0,0.0,0.0,0.0,0.0,0.0,0.0,0.0,0.0,0.0,0.0,0.0,0.0,0.0,0.0,0.0,0.0,0.0,0.0,0.0,0.0,0.0,0.0,0.0,0.0,0.0,0.0,0.0,0.0,0.0,0.0,0.0,0.0,0.0,0.0,0.0,0.0,0.0,0.0,0.0,0.0,0.0,0.0,0.0,0.0,0.0,0.0,0.0,0.0,0.0,0.0,0.0,3.5975,0.0,4.0099,4.0994,3.8368,3.6534,0.0,0.0,0.0,0.0,0.0,0.0,0.0,0.0,0.0,0.0,0.0,0.0,0.0,0.0,0.0,0.0,0.0,0.0,0.0,0.0,0.0,0.0,0.0,0.0,0.0,0.0,0.0,0.0,0.0,0.0,0.0,0.0,0.0,0.0,0.0,0.0,0.0,0.0,0.0,0.0,0.0,0.0,0.0,0.0,0.0,0.0,0.0,0.0,0.0,0.0,0.0,0.0,0.0,0.0,0.0,0.0,0.0,0.0,0.0,0.0,0.0,0.0,0.0,0.0,0.0,0.0,0.0,0.0,0.0,0.0,0.0,0.0,0.0,0.0,0.0,0.0,0.0,0.0,0.0,0.0,0.0,0.0,0.0,0.0,0.0,0.0,0.0,0.0,0.0,0.0,0.0,0.0,0.0,0.0,0.0,0.0,0.0,0.0,0.0,0.0,0.0,0.0,0.0,0.0,0.0,0.0,0.0,0.0,3.5929,3.9447,4.2214,4.2157,3.9549,3.7116,3.4425,0.0,0.0,0.0,0.0,0.0,0.0,0.0,0.0,0.0,0.0,0.0,0.0,0.0,0.0,0.0,0.0,0.0,0.0,0.0,0.0,0.0,0.0,0.0,0.0,0.0,0.0,0.0,0.0,0.0,0.0,0.0,0.0,0.0,0.0,0.0,0.0,0.0,0.0,0.0,0.0,0.0,0.0,0.0,0.0,0.0,0.0,0.0,0.0,0.0,0.0,0.0,0.0,0.0,0.0,0.0,0.0,0.0,0.0,0.0,0.0,0.0,0.0,0.0,0.0,0.0,0.0,0.0,0.0,0.0,0.0,0.0,0.0,0.0,0.0,0.0,0.0,0.0,0.0,0.0,0.0,0.0,0.0,0.0,0.0,0.0,0.0,0.0,0.0,0.0,0.0,0.0,0.0,0.0,0.0,0.0,0.0,0.0,0.0,0.0,0.0,0.0,0.0,0.0,0.0,0.0,0.0,0.0,0.0,0.0,3.5496,3.7117,3.9066,4.096,3.584,3.3978,0.0,0.0,0.0,0.0,0.0,0.0,0.0,0.0,0.0,0.0,0.0,0.0,0.0,0.0,0.0,0.0,0.0,0.0,0.0,0.0,0.0,0.0,0.0,0.0,0.0,0.0,0.0,0.0,0.0,0.0,0.0,0.0,0.0,0.0,0.0,0.0,0.0,0.0,0.0,0.0,0.0,0.0,0.0,0.0,0.0,0.0,0.0,0.0,0.0,0.0,0.0,0.0,0.0,0.0,0.0,0.0,0.0,0.0,0.0,0.0,0.0,0.0,0.0,0.0,0.0,0.0,0.0,0.0,0.0,0.0,0.0,0.0,0.0,0.0,0.0,0.0,0.0,0.0,0.0,0.0,0.0,0.0,0.0,0.0,0.0,0.0,0.0,0.0,0.0,0.0,0.0,0.0,0.0,0.0,0.0,0.0,0.0,0.0,0.0,0.0,0.0,0.0,0.0,0.0,0.0,0.0,0.0,0.0,0.0,3.496,3.7232,3.9164,4.0571,3.5829,3.393,3.5297,0.0,0.0,0.0,0.0,0.0,0.0,0.0,0.0,0.0,0.0,0.0,0.0,0.0,0.0,0.0,0.0,0.0,0.0,0.0,0.0,0.0,0.0,0.0,0.0,0.0,0.0,0.0,0.0,0.0,0.0,0.0,0.0,0.0,0.0,0.0,0.0,0.0,0.0,0.0,0.0,0.0,0.0,0.0,0.0,0.0,0.0,0.0,0.0,0.0,0.0,0.0,0.0,0.0,0.0,0.0,0.0,0.0,0.0,0.0,0.0,0.0,0.0,0.0,0.0,0.0,0.0,0.0,0.0,0.0,0.0,0.0,0.0,0.0,0.0,0.0,0.0,0.0,0.0,0.0,0.0,0.0,0.0,0.0,0.0,0.0,0.0,0.0,0.0,0.0,0.0,0.0,0.0,0.0,0.0,0.0,0.0,0.0,0.0,0.0,0.0,0.0,0.0,0.0,0.0,0.0,0.0,0.0,0.0,3.6916,4.1447,4.2065,3.8601,3.6805,3.4288,0.0,0.0,0.0,0.0,0.0,0.0,0.0,0.0,0.0,0.0,0.0,0.0,0.0,0.0,0.0,0.0,0.0,0.0,0.0,0.0,0.0,0.0,0.0,0.0,0.0,0.0,0.0,0.0,0.0,0.0,0.0,0.0,0.0,0.0,0.0,0.0,0.0,0.0,0.0,0.0,0.0,0.0,0.0,0.0,0.0,0.0,0.0,0.0,0.0,0.0,0.0,0.0,0.0,0.0,0.0,0.0,0.0,0.0,0.0,0.0,0.0,0.0,0.0,0.0,0.0,0.0,0.0,0.0,0.0,0.0,0.0,0.0,0.0,0.0,0.0,0.0,0.0,0.0,0.0,0.0,0.0,0.0,0.0,0.0,0.0,0.0,0.0,0.0,0.0,0.0,0.0,0.0,0.0,0.0,0.0,0.0,0.0,0.0,0.0,0.0,0.0,0.0,0.0,0.0,0.0,0.0,0.0,0.0,0.0,3.8311,4.1476,4.2768,4.175,3.7008,3.4515,0.0,0.0,0.0,0.0,0.0,0.0,0.0,0.0,0.0,0.0,0.0,0.0,0.0,0.0,0.0,0.0,0.0,0.0,0.0,0.0,0.0,0.0,0.0,0.0,0.0,0.0,0.0,0.0,0.0,0.0,0.0,0.0,0.0,0.0,0.0,0.0,0.0,0.0,0.0,0.0,0.0,0.0,0.0,0.0,0.0,0.0,0.0,0.0,0.0,0.0,0.0,0.0,0.0,0.0,0.0,0.0,0.0,0.0,0.0,0.0,0.0,0.0,0.0,0.0,0.0,0.0,0.0,0.0,0.0,0.0,0.0,0.0,0.0,0.0,0.0,0.0,0.0,0.0,0.0,0.0,0.0,0.0,0.0,0.0,0.0,0.0,0.0,0.0,0.0,0.0,0.0,0.0,0.0,0.0,0.0,0.0,0.0,0.0,0.0,0.0,0.0,0.0,0.0,0.0,0.0,0.0,0.0,0.0,3.7366,3.9475,4.1385,4.2576,4.2941,3.8622,3.5871,0.0,0.0,0.0,0.0,0.0,0.0,0.0,0.0,0.0,0.0,0.0,0.0,0.0,0.0,0.0,0.0,0.0,0.0,0.0,0.0,0.0,0.0,0.0,0.0,0.0,0.0,0.0,0.0,0.0,0.0,0.0,0.0,0.0,0.0,0.0,0.0,0.0,0.0,0.0,0.0,0.0,0.0,0.0,0.0,0.0,0.0,0.0,0.0,0.0,0.0,0.0,0.0,0.0,0.0,0.0,0.0,0.0,0.0,0.0,0.0,0.0,0.0,0.0,0.0,0.0,0.0,0.0,0.0,0.0,0.0,0.0,0.0,0.0,0.0,0.0,0.0,0.0,0.0,0.0,0.0,0.0,0.0,0.0,0.0,0.0,0.0,0.0,0.0,0.0,0.0,0.0,0.0,0.0,0.0,0.0,0.0,0.0,0.0,0.0,0.0,0.0,0.0,0.0,0.0,0.0,0.0,0.0,0.0,3.7863,4.013,4.0986,4.1698,4.2215,4.0426,3.7498,0.0,0.0,0.0,0.0,0.0,0.0,0.0,0.0,0.0,0.0,0.0,0.0,0.0,0.0,0.0,0.0,0.0,0.0,0.0,0.0,0.0,0.0,0.0,0.0,0.0,0.0,0.0,0.0,0.0,0.0,0.0,0.0,0.0,0.0,0.0,0.0,0.0,0.0,0.0,0.0,0.0,0.0,0.0,0.0,0.0,0.0,0.0,0.0,0.0,0.0,0.0,0.0,0.0,0.0,0.0,0.0,0.0,0.0,0.0,0.0,0.0,0.0,0.0,0.0,0.0,0.0,0.0,0.0,0.0,0.0,0.0,0.0,0.0,0.0,0.0,0.0,0.0,0.0,0.0,0.0,0.0,0.0,0.0,0.0,0.0,0.0,0.0,0.0,0.0,0.0,0.0,0.0,0.0,0.0,0.0,0.0,0.0,0.0,0.0,0.0,0.0,0.0,0.0,0.0,0.0,0.0,0.0,0.0,3.5632,3.8018,3.9566,4.0424,4.0569,3.8575,3.6257,0.0,0.0,0.0,0.0,0.0,0.0,0.0,0.0,0.0,0.0,0.0,0.0,0.0,0.0,0.0,0.0,0.0,0.0,0.0,0.0,0.0,0.0,0.0,0.0,0.0,0.0,0.0,0.0,0.0,0.0,0.0,0.0,0.0,0.0,0.0,0.0,0.0,0.0,0.0,0.0,0.0,0.0,0.0,0.0,0.0,0.0,0.0,0.0,0.6323,0.0,0.0,0.0,0.0,0.0,0.0,0.0,0.0,0.0,0.0,0.0,0.0,0.0,0.0,0.0,0.0,0.0,0.0,0.0,0.0,0.0,0.0,0.0,0.0,0.0,0.0,0.0,0.0,0.0,0.0,0.0,0.0,0.0,0.0,0.0,0.0,0.0,0.0,0.0,0.0,0.0,0.0,0.0,0.0,0.0,0.0,0.0,0.0,0.0,0.0,0.0,0.0,0.0,0.0,0.0,0.0,0.0,0.0,0.0,3.5402,3.8066,3.8877,3.954,3.9886,3.785,3.563,0.0,0.0,0.0,0.0,0.0,0.0,0.0,0.0,0.0,0.0,0.0,0.0,0.0,0.0,0.0,0.0,0.0,0.0,0.0,0.0,0.0,0.0,0.0,0.0,0.0,0.0,0.0,0.0,0.0,0.0,0.0,0.0,0.0,0.0,0.0,0.0,0.0,0.0,0.0,0.0,0.0,0.0,0.0,0.0,0.0,0.0,0.0,0.0,0.0,0.0,0.0,0.0,0.0,0.0,0.0,0.0,0.0,0.0,0.0,0.0,0.0,0.0,0.0,0.0,0.0,0.0,0.0,0.0,0.0,0.0,0.0,0.0,0.0,0.0,0.0,0.0,0.0,0.0,0.0,0.0,0.0,0.0,0.0,0.0,0.0,0.0,0.0,0.0,0.0,0.0,0.0,0.0,0.0,0.0,0.0,0.0,0.0,0.0,0.0,0.0,0.0,0.0,0.0,0.0,0.0,0.0,0.0,3.3335,3.5482,3.8448,3.8394,3.8647,3.9447,3.7393,3.5195,3.2934,0.0,0.0,0.0,0.0,0.0,0.0,0.0,0.0,0.0,0.0,0.0,0.0,0.0,0.0,0.0,0.0,0.0,0.0,0.0,0.0,0.0,0.0,0.0,0.0,0.0,0.0,0.0,0.0,0.0,0.0,0.0,0.0,0.0,0.0,0.0,0.0,0.0,0.0,1.2395,1.1843,0.0,0.0,0.0,0.0,0.0,0.0,0.0,0.0,0.46,0.0,0.0,0.0,0.0,0.0,0.0,0.0,0.0,0.0,0.0,0.0,0.0,0.0,0.0,0.0,0.0,0.0,0.0,0.0,0.0,0.0,0.0,0.0,0.0,0.0,0.0,0.0,0.0,0.0,0.0,0.0,0.0,0.0,0.0,0.0,0.0,0.0,0.0,0.0,0.0,0.0,0.0,0.0,0.0,0.0,0.0,0.0,0.0,0.0,0.0,0.0,0.0,0.0,0.0,0.0,0.0,3.3373,3.2798,3.3897,3.6801,3.7094,3.734,3.7463,3.6227,3.4333,3.1902,0.0,0.0,0.0,0.0,0.0,0.0,0.0,0.0,0.0,0.0,0.0,0.0,0.0,0.0,0.0,0.0,0.0,0.0,0.0,0.0,0.0,0.0,0.0,0.0,0.0,0.0,0.0,0.0,0.0,0.0,0.0,0.0,0.0,0.0,0.0,0.0,0.0,0.0,0.0,1.0459,0.9566,0.0,0.0,0.0,0.0,0.0,0.0,0.0,0.0,0.1925,0.0,0.0,0.0,0.0,0.0,0.0,0.0,0.0,0.0,0.0,0.0,0.0,0.0,0.0,0.0,0.0,0.0,0.0,0.0,0.0,0.0,0.0,0.0,0.0,0.0,0.0,0.0,0.0,0.0,0.0,0.0,0.0,0.0,0.0,0.0,0.0,0.0,0.0,0.0,0.0,0.0,0.0,0.0,0.0,0.0,0.0,0.0,0.0,0.0,0.0,0.0,0.0,0.0,0.0,0.0,3.2201,3.2983,3.441,3.6646,3.6739,3.6816,3.6968,3.4956,3.3027,0.0,0.0,0.0,0.0,0.0,0.0,0.0,0.0,0.0,0.0,0.0,0.0,0.0,0.0,0.0,0.0,0.0,0.0,0.0,0.0,0.0,0.0,0.0,0.0,0.0,0.0,0.0,0.0,0.0,0.0,0.0,0.0,0.0,0.0,0.0,0.0,0.0,0.0,0.0,0.0,0.9707,0.8969,0.7692,0.0,0.0,0.0,0.0,0.0,0.0,0.3173,0.2287,0.0,0.0,0.0,0.0,0.0,0.0,0.0,0.0,0.0,0.0,0.0,0.0,0.0,0.0,0.0,0.0,0.0,0.0,0.0,0.0,0.0,0.0,0.0,0.0,0.0,0.0,0.0,0.0,0.0,0.0,0.0,0.0,0.0,0.0,0.0,0.0,0.0,0.0,0.0,0.0,0.0,0.0,0.0,0.0,0.0,0.0,0.0,0.0,0.0,0.0,0.0,0.0,0.0,0.0,0.0,3.1008,3.3075,3.5038,3.6784,3.6616,3.6554,3.6644,3.4063,3.199,0.0,0.0,0.0,0.0,0.0,0.0,0.0,0.0,0.0,0.0,0.0,0.0,0.0,0.0,0.0,0.0,0.0,0.0,0.0,0.0,0.0,0.0,0.0,0.0,0.0,0.0,0.0,0.0,0.0,0.0,0.0,0.0,0.0,0.0,0.0,0.0,0.0,0.0,0.0,0.0,0.0,0.855,0.7449,0.704,0.0,0.0,0.0,0.0,0.4114,0.3415,0.0,0.0,0.0,0.0,0.0,0.0,0.0,0.0,0.0,0.0,0.0,0.0,0.0,0.0,0.0,0.0,0.0,0.0,0.0,0.0,0.0,0.0,0.0,0.0,0.0,0.0,0.0,0.0,0.0,0.0,0.0,0.0,0.0,0.0,0.0,0.0,0.0,0.0,0.0,0.0,0.0,0.0,0.0,0.0,0.0,0.0,0.0,0.0,0.0,0.0,0.0,0.0,0.0,0.0,0.0,0.0,3.0898,3.2235,3.412,3.64,3.6492,3.6199,3.566,3.4106,3.2199,0.0,0.0,0.0,0.0,0.0,0.0,0.0,0.0,0.0,0.0,0.0,0.0,0.0,0.0,0.0,0.0,0.0,0.0,0.0,0.0,0.0,0.0,0.0,0.0,0.0,0.0,0.0,0.0,0.0,0.0,0.0,0.0,0.0,0.0,0.0,0.0,0.0,0.0,0.0,0.0,0.0,0.7613,0.758,0.7203,0.7028,0.0,0.0,0.4063,0.3285,0.2393,0.0,0.0,0.0,0.0,0.0,0.0,0.0,0.0,0.0,0.0,0.0,0.0,0.0,0.0,0.0,0.0,0.0,0.0,0.0,0.0,0.0,0.0,0.0,0.0,0.0,0.0,0.0,0.0,0.0,0.0,0.0,0.0,0.0,0.0,0.0,0.0,0.0,0.0,0.0,0.0,0.0,0.0,0.0,0.0,0.0,0.0,0.0,0.0,0.0,0.0,0.0,0.0,0.0,0.0,0.0,2.83,3.0429,3.2213,3.4052,3.5814,3.5922,3.5784,3.5476,3.2659,3.05,0.0,0.0,0.0,0.0,0.0,0.0,0.0,0.0,0.0,0.0,0.0,0.0,0.0,0.0,0.0,0.0,0.0,0.0,0.0,0.0,0.0,0.0,0.0,0.0,0.0,0.0,0.0,0.0,0.0,0.0,0.0,0.0,0.0,0.0,0.0,0.0,0.0,0.0,0.0,0.0,0.0,0.0,0.7413,0.748,0.0,0.0,0.0,0.3433,0.3375,0.0,0.0,0.0,0.0,0.0,0.0,0.0,0.0,0.0,0.0,0.0,0.0,0.0,0.0,0.0,0.0,0.0,0.0,0.0,0.0,0.0,0.0,0.0,0.0,0.0,0.0,0.0,0.0,0.0,0.0,0.0,0.0,0.0,0.0,0.0,0.0,0.0,0.0,0.0,0.0,0.0,0.0,0.0,0.0,0.0,0.0,0.0,0.0,0.0,0.0,0.0,0.0,0.0,0.0,0.0,0.0,0.0,2.9974,3.1927,3.3675,3.5169,3.5245,3.5045,3.4542,3.1251,0.0,0.0,0.0,0.0,0.0,0.0,0.0,0.0,0.0,0.0,0.0,0.0,0.0,0.0,0.0,0.0,0.0,0.0,0.0,0.0,0.0,0.0,0.0,0.0,0.0,0.0,0.0,1.4775,0.0,0.0,0.0,0.0,0.0,0.0,0.0,0.0,0.0,0.0,0.0,0.0,0.0,0.0,0.7769,0.7269,0.7517,0.7577,0.0,0.0,0.3634,0.2832,0.1157,0.0104,0.0,0.0,0.0,0.0,0.0,0.0,0.0,0.0,0.0,0.0,0.0,0.0,0.0,0.0,0.0,0.0,0.0,0.0,0.0,0.0,0.0,0.0,0.0,0.0,0.0,0.0,0.0,0.0,0.0,0.0,0.0,0.0,0.0,0.0,0.0,0.0,0.0,0.0,0.0,0.0,0.0,0.0,0.0,0.0,0.0,0.0,0.0,0.0,0.0,0.0,0.0,0.0,0.0,0.0,2.7332,2.9936,3.1025,3.2527,3.4482,3.457,3.3747,3.2091,3.0652,2.8601,0.0,0.0,0.0,0.0,0.0,0.0,0.0,0.0,0.0,0.0,0.0,0.0,0.0,0.0,0.0,0.0,0.0,0.0,0.0,0.0,0.0,0.0,0.0,0.0,0.0,0.0,0.0,0.0,0.0,0.0,0.0,0.0,0.0,0.0,0.0,0.0,0.0,0.0,0.0,0.0,0.0,0.6956,0.7353,0.7171,0.7169,0.0,0.6896,0.4775,0.0874,-0.0,-0.0,-0.0,0.0,0.0,0.0,0.0,0.0,0.0,0.0,0.0,0.0,0.0,0.0,0.0,0.0,0.0,0.0,0.0,0.0,0.0,0.0,0.0,0.0,0.0,0.0,0.0,0.0,0.0,0.0,0.0,0.0,0.0,0.0,0.0,0.0,0.0,0.0,0.0,0.0,0.0,0.0,0.0,0.0,0.0,0.0,0.0,0.0,0.0,0.0,0.0,0.0,0.0,0.0,0.0,0.0,2.6689,2.892,2.9961,3.1399,3.3287,3.3257,3.2752,3.1823,2.9713,2.7585,0.0,0.0,0.0,0.0,0.0,0.0,0.0,0.0,0.0,0.0,0.0,0.0,0.0,0.0,0.0,0.0,0.0,0.0,0.0,0.0,0.0,0.0,0.0,0.0,0.0,0.0,0.0,0.0,1.2077,1.1254,1.0426,0.0,0.0,0.0,0.0,0.0,0.0,0.0,0.0,0.0,0.0,0.7299,0.6246,0.5901,0.0,0.0,0.685,0.4931,0.0668,-0.0,-0.0875,-0.3562,-0.3449,0.0,0.0,0.0,0.0,0.0,0.0,0.0,0.0,0.0,0.0,0.0,0.0,0.0,0.0,0.0,0.0,0.0,0.0,0.0,0.0,0.0,0.0,0.0,0.0,0.0,0.0,0.0,0.0,0.0,0.0,0.0,0.0,0.0,0.0,0.0,0.0,0.0,0.0,0.0,0.0,0.0,0.0,0.0,0.0,0.0,0.0,0.0,0.0,0.0,0.0,0.0,0.0,2.6066,2.7919,2.8516,2.9702,3.164,3.1531,3.1142,3.0466,2.8517,2.6648,0.0,0.0,0.0,0.0,0.0,0.0,0.0,0.0,0.0,0.0,0.0,0.0,0.0,0.0,0.0,0.0,0.0,0.0,0.0,0.0,0.0,0.0,0.0,0.0,0.0,0.0,0.0,0.0,1.1031,1.0132,0.9593,0.0,0.0,0.0,0.0,0.0,0.0,0.0,0.0,0.0,0.0,0.6417,0.4858,0.4511,0.4638,0.5,0.4768,0.3433,0.0445,-0.1083,-0.2854,-0.5698,0.0,0.0,0.0,0.0,0.0,0.0,0.0,0.0,0.0,0.0,0.0,0.0,0.0,0.0,0.0,0.0,0.0,0.0,0.0,0.0,0.0,0.0,0.0,0.0,0.0,0.0,0.0,3.8068,0.0,0.0,3.7147,0.0,0.0,0.0,0.0,0.0,0.0,0.0,0.0,0.0,0.0,0.0,0.0,0.0,0.0,0.0,0.0,0.0,0.0,0.0,0.0,0.0,0.0,2.5296,2.7057,2.6651,2.7314,2.9262,2.9252,2.8792,2.7686,2.6963,2.5972,2.4583,0.0,0.0,0.0,0.0,0.0,0.0,0.0,0.0,0.0,0.0,0.0,0.0,0.0,0.0,0.0,0.0,0.0,0.0,0.0,0.0,0.0,0.0,0.0,0.0,0.0,0.0,1.1247,0.9685,0.8784,0.0,0.0,0.0,0.0,0.0,0.0,0.0,0.0,0.0,0.4267,0.4137,0.3869,0.3098,0.3369,0.2819,0.0569,-0.0,0.0107,-0.0109,-0.3405,-0.6144,0.0,0.0,0.0,0.0,0.0,0.0,0.0,0.0,0.0,0.0,0.0,0.0,0.0,0.0,0.0,0.0,0.0,0.0,0.0,0.0,0.0,0.0,0.0,0.0,0.0,0.0,0.0,3.7504,3.7114,0.0,0.0,0.0,0.0,0.0,0.0,0.0,0.0,0.0,0.0,0.0,2.9577,2.9765,0.0,0.0,0.0,0.0,0.0,0.0,0.0,0.0,0.0,0.0,0.0,0.0,2.476,2.6474,2.6149,2.6811,2.8677,2.8616,2.8184,2.7501,2.6841,2.6017,2.4892,0.0,0.0,0.0,0.0,0.0,0.0,0.0,0.0,0.0,0.0,0.0,0.0,0.0,0.0,0.0,0.0,0.0,0.0,0.0,0.0,0.0,0.0,0.0,0.0,0.0,1.235,0.0,0.0,0.0,0.0,0.0,0.0,0.0,0.0,0.0,0.0,0.4962,0.4304,0.3511,0.3637,0.3351,0.2232,0.2174,0.1687,0.0,0.0,0.0,0.0,0.0,0.0,0.0,0.0,0.0,0.0,0.0,0.0,0.0,0.0,-1.0804,-0.9895,-1.0098,-1.0387,-1.0567,0.0,0.0,0.0,0.0,0.0,0.0,0.0,0.0,0.0,0.0,0.0,0.0,0.0,0.0,3.7136,3.6911,3.6284,0.0,0.0,0.0,0.0,0.0,0.0,0.0,0.0,3.0761,3.0464,3.0359,3.0191,2.9581,2.8719,2.8376,2.7455,0.0,0.0,0.0,0.0,0.0,0.0,0.0,0.0,2.4223,2.5394,2.5228,2.5807,2.7209,2.7368,2.7252,2.6952,2.6526,2.5905,2.5047,2.4179,2.3547,0.0,0.0,0.0,0.0,0.0,0.0,0.0,0.0,0.0,0.0,0.0,0.0,0.0,0.0,0.0,0.0,0.0,0.0,0.0,0.0,0.0,0.0,0.0,1.1516,0.0,0.0,0.0,0.0,0.0,0.0,0.0,0.0,0.0,0.4839,0.4187,0.3504,0.2579,0.2745,0.2573,0.1706,0.0,0.0,0.0,0.0,0.0,0.0,0.0,-0.3164,-0.595,-0.6447,-0.6518,-0.6905,-0.8546,-0.9935,-1.0438,0.0,0.0,-1.1318,-1.1436,-1.179,-1.2065,-1.2867,-1.3635,-1.4252,-1.4678,-1.5466,0.0,0.0,0.0,0.0,3.8068,0.0,0.0,0.0,3.6913,3.6922,0.0,3.5599,0.0,0.0,0.0,0.0,3.2199,3.163,0.0,0.0,3.1554,3.142,3.1397,3.1004,3.0135,2.8973,2.9471,2.8442,2.6135,2.5257,0.0,0.0,0.0,0.0,0.0,0.0,2.3659,2.3803,2.4049,2.4427,2.5061,2.557,2.5879,2.5907,2.5893,2.5612,2.505,2.4966,2.4404,2.3175,2.3091,0.0,0.0,0.0,0.0,0.0,0.0,0.0,0.0,0.0,0.0,0.0,0.0,0.0,0.0,0.0,0.0,0.0,0.0,0.0,0.0,1.1878,0.0,0.0,0.0,0.0,0.0,0.0,0.0,0.0,0.0,0.399,0.3915,0.329,0.2584,0.1764,0.0,0.0,0.0,0.0,0.0801,0.0845,0.0315,-0.1566,-0.564,-0.631,-0.6298,-0.6385,0.0,0.0,-0.7862,-0.9414,-1.0556,-1.0569,-1.1139,-1.1822,-1.2888,-1.2731,-1.2693,-1.3508,-1.4263,-1.4776,-1.487,-1.5762,-1.6721,4.1052,0.0,0.0,0.0,0.0,3.7613,3.7243,3.6913,3.6963,3.6188,3.4767,3.4764,0.0,0.0,0.0,0.0,0.0,0.0,3.1038,3.1457,3.1138,3.1393,3.209,3.1505,3.1022,3.0639,2.9312,2.7795,2.6194,2.5336,2.4934,2.4823,0.0,0.0,0.0,0.0,2.4076,2.4891,2.4382,2.4413,2.498,2.5149,2.5458,2.5893,2.5893,2.5809,2.564,2.5205,2.4588,2.362,2.3212,0.0,0.0,0.0,0.0,0.0,0.0,0.0,0.0,0.0,0.0,0.0,0.0,0.0,0.0,0.0,0.0,0.0,0.0,0.0,1.3423,1.0557,0.9234,0.0,0.0,0.0,0.0,0.0,0.0,0.0,0.0,0.0,0.2984,0.2333,0.1833,0.0,0.0,0.1479,0.1511,0.1492,0.1191,0.0817,-0.0919,0.0,-0.4305,-0.5623,-0.6409,-0.6453,-0.6981,-0.7965,-0.97,-1.0302,-1.0704,-1.1349,-1.2235,-1.3095,-1.3899,-1.3721,-1.3802,-1.4705,-1.5687,-1.6242,-1.6285,-1.7135,-1.8049,4.199,4.0022,3.9229,3.8762,3.8579,3.8315,3.783,3.7249,3.7,3.6135,3.4823,3.4004,3.3386,3.2885,3.1916,0.0,0.0,0.0,3.0701,3.1416,3.1145,3.1511,3.229,3.1104,3.0555,3.044,2.8521,2.7015,2.6104,2.574,2.5481,2.5174,0.0,2.4634,2.4819,2.4334,2.4339,2.4904,2.4643,2.4653,2.5019,2.5219,2.5514,2.5879,2.5893,2.5893,2.5893,2.5244,2.4532,2.3809,2.3133,2.212,0.0,0.0,0.0,0.0,0.0,0.0,0.0,0.0,0.0,0.0,0.0,1.7316,1.6533,0.0,0.0,0.0,1.3497,1.2804,1.2358,1.0176,0.0,0.0,0.0,0.0,0.0,0.0,0.0,0.4496,0.3371,0.2613,0.2237,0.1798,0.1549,0.1609,0.1534,0.1541,0.1518,0.0,0.1487,0.1119,-0.1122,-0.3266,-0.4282,-0.551,-0.6532,-0.6914,-0.8073,-0.9199,-1.0387,-1.0806,-1.1326,-1.2196,-1.2936,-1.3801,-1.5164,-1.5061,-1.4999,-1.603,-1.662,-1.7024,-1.7378,-1.7911,-1.8629,4.2929,4.1411,4.0664,4.0098,3.966,3.9481,3.8963,3.8157,3.7,3.6521,3.6335,3.3453,3.2838,3.3759,3.163,0.0,3.0479,3.005,3.0557,3.1727,3.1526,3.1705,3.2189,3.0173,2.9193,2.9119,2.7302,2.6297,2.5988,2.6297,2.6155,2.5543,2.4955,2.4704,2.4661,2.4661,2.4476,2.4258,2.4727,2.4952,2.491,2.55,2.5809,2.5769,2.5865,2.5893,2.5784,2.5051,2.4332,2.3725,2.2881,2.1763,2.036,0.0,0.0,0.0,0.0,0.0,0.0,0.0,0.0,0.0,0.0,0.0,0.0,0.0,0.0,1.3879,1.2868,0.0,1.1155,1.0338,0.0,0.0,0.0,0.8128,0.7727,0.6621,0.5416,0.4122,0.0,0.0,0.1621,0.1528,0.1549,0.1609,0.1559,0.1573,0.1628,0.1496,0.1495,0.1439,-0.0723,-0.31,-0.4635,-0.577,-0.6799,-0.7942,-0.9345,-1.0329,-1.0598,-1.1285,-1.2193,-1.3079,-1.3485,-1.4173,-1.6214,-1.6228,-1.6422,-1.708,-1.7203,-1.7382,-1.8118,-1.8394,-1.8894,4.4032,4.2935,4.1914,4.076,3.9615,3.9412,3.8747,3.7797,3.7345,3.6241,3.4706,3.394,3.3096,3.2143,3.1614,3.0927,3.0196,3.0456,3.0729,3.1072,3.131,3.1313,3.1107,3.0157,2.9227,2.8385,2.7099,2.6443,2.6351,2.615,2.5972,2.583,2.5689,2.5469,2.5257,2.5052,2.5099,2.5444,2.5149,2.4755,2.4357,2.4882,2.5084,2.4816,2.5532,2.5674,2.5216,2.453,2.3708,2.2661,2.1718,2.0827,1.9901,1.9446,0.0,0.0,0.0,0.0,0.0,0.0,0.0,0.0,0.0,1.6603,1.5833,0.0,1.4297,0.0,1.2296,1.1467,1.2064,1.0173,0.0,0.0,0.88,0.7721,0.6467,0.5512,0.4361,0.2942,0.2248,0.1782,0.1554,0.154,0.1549,0.1608,0.1628,0.1641,0.1647,0.1117,0.0704,0.0507,-0.1218,-0.2839,-0.355,-0.5264,-0.7415,-0.9349,-0.9904,-1.0323,-1.1175,-1.1915,-1.2608,-1.2964,-1.4255,-1.5332,-1.5929,-1.6443,-1.6788,-1.7088,-1.7579,-1.8163,-1.835,-1.924,-2.0095,4.4211,4.2888,4.2197,4.1354,4.0475,4.0219,3.9497,3.8305,3.7586,3.6321,3.4606,3.3694,3.2554,3.142,3.1257,3.111,3.0898,3.1021,3.1207,3.1502,3.1551,3.1253,3.0784,2.9739,2.8758,2.7842,2.6773,2.6258,2.6204,2.5988,2.5893,2.5893,2.5893,2.5833,2.5706,2.548,2.5556,2.5893,2.5556,2.5219,2.4896,2.5112,2.5133,2.4983,2.4874,2.4682,2.4348,2.3191,2.2265,2.1642,2.1015,2.0394,1.9807,1.9667,1.9412,0.0,0.0,0.0,0.0,0.0,0.0,0.0,0.0,0.0,0.0,0.0,1.3417,1.2963,1.1928,1.1203,1.1316,0.9851,0.9059,0.9612,0.8974,0.7995,0.6512,0.5504,0.4326,0.2895,0.2012,0.1534,0.1566,0.1569,0.148,0.1108,0.1111,0.1114,0.1125,0.0711,0.0202,-0.0606,-0.1915,-0.3221,-0.4225,-0.5927,-0.7749,-0.9526,-1.0186,-1.0753,-1.184,-1.2396,-1.2945,-1.3962,-1.5032,-1.5893,-1.6292,-1.7052,-1.7621,-1.7643,-1.8489,-1.9172,-1.8827,-1.9686,-2.0534,4.3942,4.2287,4.1977,4.1762,4.156,4.1226,4.0368,3.9106,3.7748,3.6466,3.5133,3.3165,3.1954,3.1344,3.1142,3.1337,3.17,3.1581,3.1782,3.2259,3.1864,3.1276,3.0554,2.9154,2.8051,2.7276,2.6351,2.5893,2.5893,2.5893,2.5893,2.5893,2.5809,2.5781,2.5767,2.5697,2.5697,2.5767,2.5851,2.5865,2.5727,2.555,2.5397,2.5245,2.42,2.3517,2.3369,2.175,2.0763,2.0645,2.0299,2.0047,1.9877,2.0021,1.9704,0.0,1.8396,0.0,0.0,0.0,0.0,0.0,0.0,0.0,0.0,1.3486,1.2305,1.1926,1.1701,1.1154,1.0041,0.9474,0.9141,0.9165,0.9013,0.8322,0.7043,0.5866,0.4572,0.3075,0.2238,0.167,0.1579,0.15,0.1111,0.0606,0.0303,0.0202,0.0101,-0.0,-0.0505,-0.1816,-0.262,-0.3924,-0.5827,-0.703,-0.8223,-0.9513,-1.0493,-1.1361,-1.2446,-1.2995,-1.3747,-1.5311,-1.5805,-1.619,-1.6885,-1.7707,-1.8156,-1.7986,-1.9249,-2.0155,-1.9671,-2.0065,-2.0739,4.3942,4.2305,4.1805,4.1648,4.156,4.0806,4.0003,3.9156,3.7925,3.6325,3.4494,3.3492,3.2914,3.256,3.2507,3.2151,3.1535,3.2006,3.1982,3.1613,3.1637,3.0923,2.9485,2.8837,2.7723,2.6269,2.599,2.5893,2.5893,2.5893,2.5893,2.5879,2.5402,2.5149,2.5135,0.0,0.0,0.0,2.564,2.5532,2.4816,2.5232,2.5011,2.4023,2.4106,0.0,2.2801,2.148,2.0491,1.9857,1.8992,0.0,0.0,0.0,0.0,0.0,0.0,0.0,0.0,0.0,0.0,0.0,1.6245,1.5507,1.5502,1.4216,1.3024,1.2322,1.1802,1.1284,1.0442,0.9737,0.9368,0.951,0.8769,0.7789,0.6682,0.5525,0.4226,0.2691,0.2371,0.2073,0.1603,0.1008,0.0605,0.0303,-0.0202,-0.0806,-0.1412,-0.1513,-0.1613,-0.2017,-0.3324,-0.4929,-0.652,-0.7621,-0.8715,-1.0199,-1.1346,-1.2119,-1.2716,-1.4195,-1.5126,-1.5873,-1.6292,-1.6784,-1.6972,-1.7419,-1.7971,-1.7785,-1.9152,-2.0394,-2.0374,-2.0881,-2.1507,4.3441,4.2061,4.1719,4.1498,0.0,4.0385,3.9558,3.8908,3.7753,3.5943,3.3833,3.3146,3.2796,3.2648,3.2648,3.2408,3.189,3.2244,3.2028,3.1413,3.1076,3.0104,2.868,2.795,2.7017,2.5921,2.5893,2.5893,2.5879,2.5584,2.5444,2.543,2.4826,2.4582,2.4582,2.4517,2.4689,2.4978,2.5451,2.5494,2.5012,2.4968,2.456,2.3743,2.3328,0.0,0.0,0.0,0.0,0.0,0.0,0.0,0.0,1.9343,0.0,1.9115,1.7966,1.7224,1.7043,1.6995,1.6953,1.7093,1.6191,1.5317,1.4692,1.431,1.3476,1.2106,1.192,1.1421,1.0148,0.9669,0.9527,0.9517,0.8733,0.7733,0.6517,0.5582,0.4285,0.2715,0.21,0.1598,0.1109,0.0303,-0.0302,-0.0706,-0.1109,-0.1714,-0.2321,-0.2219,-0.2218,-0.3225,-0.4029,-0.5432,-0.7024,-0.7816,-0.8913,-1.0694,-1.1663,-1.2522,-1.3782,-1.4804,-1.5657,-1.619,-1.6683,-1.6871,-1.7333,-1.787,-1.8511,-1.8972,-2.0102,-2.0951,-2.1096,-2.1454,-2.1731,4.2905,4.1892,4.1631,4.1391,4.11,4.0003,3.9102,3.8325,3.7255,0.0,0.0,3.2813,3.2505,3.2398,3.2398,3.2398,3.2382,3.2275,3.1921,3.1382,3.0443,2.9385,2.8169,2.731,2.6539,2.5907,2.5781,2.5725,2.5711,2.5219,2.498,2.4924,2.4413,2.4005,2.385,2.4446,2.4833,2.4776,2.526,2.5453,2.541,2.4721,2.415,2.3741,2.2543,2.1619,2.1104,2.0249,1.978,1.9711,2.0079,2.0331,2.035,2.0023,1.9543,1.9034,1.824,1.7501,1.6978,1.7046,1.7027,1.6809,1.5898,1.4871,1.3823,1.3992,1.3486,1.1749,1.1789,1.1298,0.9544,0.9518,0.9525,0.943,0.863,0.763,0.6326,0.5627,0.4425,0.2823,0.1915,0.121,0.0707,-0.0303,-0.121,-0.1816,-0.2017,-0.2522,-0.3229,-0.3025,-0.3222,-0.4728,-0.5331,-0.6129,-0.7524,-0.8513,-0.9304,-1.1189,-1.197,-1.2937,-1.4669,-1.5343,-1.5818,-1.6683,-1.6777,-1.7044,-1.7598,-1.8603,-1.9521,-2.0158,-2.1087,-2.1731,-2.1731,-2.1731,-2.1731,4.2789,4.1874,4.1418,4.1255,4.11,3.98,3.8479,3.7147,3.6175,3.4868,3.3398,3.3306,3.2936,3.2398,3.2398,3.2398,3.2367,3.1782,3.1474,3.1351,3.025,2.9173,2.8207,2.757,2.6802,2.5879,2.5374,2.5107,2.5093,2.5075,2.498,2.4896,2.4427,2.3583,2.2681,2.3653,2.4105,2.3813,2.4928,2.5369,2.5075,2.4279,2.3767,2.3437,2.2433,2.1618,2.1116,2.0575,2.0125,1.9723,1.9746,1.9987,2.0316,1.9262,1.8685,1.887,1.7774,1.6978,1.6927,1.7559,1.7596,1.6798,1.5913,1.5047,1.4112,1.3404,1.2585,1.165,1.1131,1.0407,0.9531,0.9522,0.9327,0.863,0.7836,0.6833,0.5629,0.5133,0.4433,0.3128,0.2623,0.1816,0.0908,-0.0504,-0.1613,-0.2017,-0.2623,-0.3429,-0.4332,-0.4533,-0.4931,-0.6027,-0.7024,-0.7624,-0.8315,-0.9694,-1.0783,-1.1487,-1.3125,-1.428,-1.5057,-1.5825,-1.6305,-1.6588,-1.7044,-1.7505,-1.7777,-1.9063,-1.9985,-2.043,-2.1177,-2.1642,-2.1731,-2.1731,-2.1731,4.221,4.1736,4.1346,4.1117,4.0931,3.9508,3.7729,3.5939,3.6028,3.526,3.3998,3.3583,3.3029,3.2413,3.2398,3.2198,3.1828,3.152,3.0997,3.0253,2.9568,2.8667,2.7638,2.7089,2.6583,2.592,2.5275,2.5149,2.5388,2.4812,2.4488,2.4484,2.3906,2.3252,2.2802,2.3977,2.4455,2.4102,2.4847,2.4948,2.4337,2.3826,2.3245,2.258,2.2125,2.1658,2.1175,2.0938,2.071,2.0492,2.011,2.0013,2.0214,1.8919,1.8221,1.8432,1.765,1.7229,1.7229,1.7072,1.6637,1.5751,1.5058,1.4565,1.4309,1.3573,1.2727,1.1865,1.1258,1.0459,0.9587,0.9579,0.9229,0.8432,0.7637,0.6739,0.5837,0.5133,0.4232,0.3025,0.2217,0.1209,-0.0101,-0.1412,-0.2321,-0.2624,-0.3429,-0.4632,-0.6226,-0.6526,-0.6725,-0.722,-0.772,-0.8513,-0.9501,-1.048,-1.1663,-1.2845,-1.3806,-1.4771,-1.5445,-1.6109,-1.6204,-1.6407,-1.7044,-1.7692,-1.8149,-1.9338,-2.0348,-2.0997,-2.1365,-2.1651,-2.1731,-2.1731,-2.1731,4.1719,4.156,4.1255,4.0884,4.0302,3.9063,3.7166,3.521,3.5766,3.5353,3.426,3.3798,3.3198,3.2428,3.2398,3.2028,3.1428,3.1228,3.0535,2.9423,2.8941,2.8156,2.7167,2.6782,2.6375,2.5877,2.5278,2.5236,2.5528,2.4765,2.4315,2.4221,2.3758,2.3463,2.3322,2.4353,2.4716,2.4422,2.4637,2.4394,2.38,2.3424,2.2823,2.1939,2.1753,2.1588,2.1221,2.1233,2.1233,2.1169,2.0635,2.0281,2.0172,1.9055,1.835,1.8271,1.7877,1.7606,1.7414,1.6646,1.5751,1.5035,1.4427,1.4196,1.406,1.3566,1.2837,1.2053,1.1187,1.0431,0.9702,0.9426,0.9031,0.8233,0.7434,0.6539,0.5839,0.4933,0.4031,0.2722,0.1611,0.0201,-0.1108,-0.2118,-0.2819,-0.3407,-0.4598,-0.6176,-0.7537,-0.8024,-0.8325,-0.8561,-0.8685,-0.93,-1.0974,-1.176,-1.2543,-1.4202,-1.449,-1.5064,-1.5825,-1.5886,-1.6062,-1.6452,-1.7066,-1.7972,-1.894,-1.9985,-2.0808,-2.1463,-2.1642,-2.1731,-2.1731,-2.1731,-2.1731,4.1604,4.1515,4.1053,4.0103,3.8884,3.8093,3.6878,3.544,3.495,3.4229,3.3567,3.4106,3.3614,3.2505,3.2398,3.2013,3.132,3.0782,3.012,2.9381,2.8732,2.797,2.7174,2.7077,2.6614,2.5892,2.5258,2.5075,2.5177,2.4966,2.4882,2.4896,2.4878,2.4502,2.4123,2.4396,2.4394,2.415,2.3989,2.3859,2.38,2.3075,2.2433,2.1951,2.1463,2.1221,2.1233,2.1233,2.1233,2.1169,2.1094,2.0967,2.0586,1.9839,1.9344,1.902,1.8396,1.7836,1.7381,1.6624,1.5867,1.5328,1.473,1.4054,1.3309,1.2728,1.235,1.1989,1.0596,0.966,0.9505,0.9031,0.8233,0.7537,0.6639,0.5842,0.5035,0.4028,0.3324,0.3225,0.1107,-0.0302,-0.0806,-0.1816,-0.3006,-0.4152,-0.5979,-0.7308,-0.7736,-0.8489,-0.9386,-1.0249,-1.0757,-1.096,-1.156,-1.2845,-1.3823,-1.4394,-1.5064,-1.5635,-1.5792,-1.5732,-1.579,-1.6886,-1.7812,-1.8651,-1.9785,-2.0907,-2.1463,-2.1642,-2.1731,-2.1731,-2.1731,-2.1731,-2.1731,4.1095,4.1258,4.0043,3.8715,3.7449,3.7167,3.5966,3.4334,3.4429,3.3844,3.2952,3.3537,3.329,3.2413,3.2398,3.1828,3.0812,3.0535,2.9827,2.8858,2.8519,2.7925,2.7159,2.7098,2.6703,2.5906,2.5299,2.5202,2.539,2.5003,2.4822,2.498,2.4808,2.4577,2.4396,2.4844,2.4888,2.4345,2.3974,2.3564,2.3075,2.2482,2.1939,2.1526,2.1285,2.1233,2.1233,2.1233,2.1233,2.1158,2.0366,1.9918,2.0018,1.8944,1.8452,1.8516,1.8489,1.8018,1.7023,1.6756,1.6194,1.5,1.4239,1.3746,1.3447,1.217,1.1382,1.1409,1.0383,0.9551,0.9517,0.8832,0.8031,0.7238,0.6542,0.5639,0.4834,0.3827,0.2922,0.2114,0.0705,-0.0605,-0.1513,-0.2725,-0.4019,-0.5358,-0.6958,-0.8051,-0.859,-0.9115,-0.9816,-1.0844,-1.1614,-1.2334,-1.2931,-1.363,-1.4502,-1.507,-1.554,-1.5825,-1.588,-1.613,-1.6494,-1.7181,-1.8304,-1.9231,-2.0099,-2.0988,-2.1731,-2.1731,-2.1731,-2.1731,-2.1731,-2.1731,-2.1731,4.0631,4.0642,3.9273,3.7864,3.6613,3.6204,3.4911,3.327,3.349,3.2967,3.1967,3.2382,3.2428,3.2151,3.2105,3.149,3.0505,3.0243,2.952,2.8519,2.8596,2.8106,2.7188,2.7327,2.6849,2.596,2.5451,2.5451,2.5673,2.5148,2.4858,2.4966,2.4736,2.4641,2.4682,2.5052,2.4948,2.4323,2.3741,2.3135,2.2482,2.1939,2.1526,2.1221,2.1233,2.1233,2.1233,2.1233,2.1233,2.1169,1.9966,1.9437,1.9702,1.8637,1.8109,1.8403,1.8497,1.8099,1.6916,1.6822,1.6253,1.4825,1.3898,1.3475,1.3088,1.1857,1.0918,1.0658,0.9813,0.9225,0.9229,0.8531,0.7733,0.6939,0.6139,0.5336,0.4431,0.3425,0.2216,0.1007,-0.0,-0.1109,-0.2622,-0.3937,-0.5238,-0.6459,-0.7684,-0.8583,-0.9356,-0.9643,-1.0233,-1.1361,-1.2432,-1.3341,-1.4178,-1.4592,-1.5077,-1.5452,-1.5825,-1.592,-1.6089,-1.6579,-1.7387,-1.8294,-1.9239,-1.9961,-2.0712,-2.1356,-2.1731,-2.1731,-2.1731,-2.1731,-2.1731,-2.1731,-2.1731,4.0351,4.0006,3.9143,3.7949,3.6812,3.5272,3.3817,3.2398,3.1874,3.1197,3.0689,3.0643,3.092,3.1474,3.1443,3.1059,3.0428,2.9874,2.9243,2.8627,2.9054,2.8531,2.7218,2.7765,2.7334,2.5976,2.5865,2.5715,2.555,2.5481,2.5272,2.5034,2.5061,2.4978,2.5018,2.4845,2.4363,2.3929,2.3261,2.2531,2.1987,2.1572,2.1302,2.1325,2.1256,2.1215,2.129,2.1256,2.1267,2.1256,2.0433,2.0066,2.0082,1.9446,1.9107,1.9127,1.8679,1.8062,1.7199,1.6647,1.5991,1.506,1.4172,1.3397,1.2603,1.152,1.0658,0.9817,0.9027,0.8531,0.8432,0.7736,0.6939,0.6239,0.5336,0.4531,0.3426,0.2519,0.131,0.0202,-0.1109,-0.232,-0.3725,-0.5153,-0.6213,-0.7229,-0.8521,-0.9315,-0.9283,-0.9925,-1.0933,-1.2104,-1.3119,-1.4002,-1.4327,-1.4968,-1.5547,-1.5825,-1.6008,-1.6197,-1.6657,-1.7305,-1.8331,-1.9216,-1.9749,-2.0413,-2.1239,-2.1642,-2.1642,-2.1731,-2.1731,-2.1731,-2.1731,-2.1731,-2.1731,3.8584,3.7323,3.7101,3.636,3.5249,3.4211,3.3029,3.1767,3.149,3.1259,3.0997,3.0612,3.1012,3.1982,3.0689,3.0458,3.0982,3.0782,3.032,2.9715,2.9626,2.8937,2.792,2.7735,2.7079,2.6045,2.5893,2.5743,2.5494,2.5469,2.5459,2.5598,2.5746,2.5848,2.5788,2.5715,2.5292,2.4555,2.3966,2.3381,2.2852,2.2387,2.2134,2.2111,2.1812,2.1812,2.2134,2.2134,2.2134,2.2134,2.0945,2.0393,2.0617,1.9771,1.9291,1.9204,1.8757,1.8046,1.7186,1.6793,1.6216,1.5257,1.389,1.2975,1.2325,1.1137,1.0015,0.9525,0.8832,0.8233,0.7637,0.6939,0.6342,0.5939,0.5236,0.4331,0.3323,0.2217,0.1109,-0.0202,-0.2015,-0.3525,-0.4228,-0.5746,-0.7138,-0.777,-0.8788,-0.9351,-0.9579,-1.0285,-1.1436,-1.2475,-1.3475,-1.4469,-1.5216,-1.5445,-1.5825,-1.6001,-1.6183,-1.6741,-1.723,-1.8237,-1.9297,-1.9932,-2.0297,-2.0713,-2.1542,-2.1642,-2.1731,-2.1731,-2.1731,-2.1731,-2.1731,-2.1731,-2.1731,3.7422,3.5794,3.5796,3.5128,3.3887,3.3091,3.1997,3.0812,3.0751,3.0751,3.0674,3.0289,3.0828,3.172,3.0591,3.0591,3.1482,3.1021,3.0452,3.0063,2.987,2.9218,2.8286,2.7686,2.6895,2.605,2.5911,2.584,2.5745,2.57,2.5768,2.5855,2.6073,2.6109,2.6122,2.5985,2.5497,2.477,2.4226,2.3701,2.3191,2.2877,2.2765,2.2857,2.2581,2.2478,2.2685,2.2673,2.2537,2.2183,2.1096,2.038,2.0173,1.9695,1.9197,1.9012,1.8454,1.777,1.707,1.6592,1.6167,1.5538,1.3778,1.2732,1.2538,1.0792,0.9624,0.913,0.8432,0.7637,0.6836,0.6037,0.5639,0.5539,0.5135,0.423,0.2922,0.2016,0.0806,-0.0806,-0.262,-0.3925,-0.4728,-0.6442,-0.7643,-0.8425,-0.9225,-0.9624,-1.0207,-1.0979,-1.2047,-1.3119,-1.4178,-1.4943,-1.554,-1.573,-1.5825,-1.6008,-1.6749,-1.7203,-1.8087,-1.9159,-2.0013,-2.0569,-2.098,-2.138,-2.1585,-2.1704,-2.1731,-2.1731,-2.1731,-2.1731,-2.1731,-2.1731,-2.182,3.6962,3.5435,3.5476,3.4596,3.306,3.2099,3.0751,2.9766,2.9658,2.9812,2.9761,2.95,3.033,3.119,3.1052,3.1427,3.1625,3.0289,2.952,2.9514,2.9818,2.9375,2.834,2.774,2.696,2.6017,2.5959,2.6053,2.6195,2.6241,2.6122,2.5887,2.5992,2.6109,2.589,2.555,2.4883,2.4439,2.3948,2.3376,2.2764,2.2811,2.3029,2.3397,2.3397,2.3201,2.2788,2.2765,2.2467,2.1728,2.091,1.9902,1.9202,1.9136,1.9075,1.8511,1.7961,1.7363,1.6769,1.6158,1.5866,1.5298,1.3788,1.263,1.2247,1.069,0.9327,0.8531,0.7836,0.6936,0.6142,0.5438,0.4834,0.4734,0.4634,0.3726,0.2116,0.1513,0.0605,-0.1615,-0.3127,-0.4329,-0.5732,-0.7135,-0.824,-0.913,-0.9616,-1.0105,-1.0881,-1.195,-1.3119,-1.3998,-1.4873,-1.554,-1.573,-1.5825,-1.5825,-1.6015,-1.6943,-1.7777,-1.878,-1.9842,-2.0641,-2.115,-2.1329,-2.164,-2.164,-2.1731,-2.1731,-2.1731,-2.1731,-2.1731,-2.1731,-2.1731,-2.2097,3.6761,3.5345,3.4644,3.3998,3.3197,3.2407,3.132,3.0212,3.0566,3.0468,3.0048,2.9935,3.0632,3.1357,3.0875,3.0745,3.1247,3.0133,2.9867,3.0283,3.0251,2.9502,2.8468,2.7839,2.7188,2.6505,2.627,2.623,2.6361,2.6469,2.654,2.6465,2.6804,2.6987,2.6883,2.646,2.5925,2.5357,2.4795,2.4249,2.3789,2.3718,2.3798,2.3925,2.3959,2.3867,2.3741,2.3729,2.336,2.2521,2.1787,2.0641,1.9537,1.9503,1.9272,1.8513,1.8135,1.7602,1.6744,1.6106,1.5445,1.4669,1.3505,1.2436,1.1658,1.04,0.9229,0.8435,0.7637,0.6839,0.6039,0.5238,0.4533,0.3726,0.3626,0.292,0.0907,-0.0303,-0.1412,-0.2621,-0.4228,-0.5627,-0.6725,-0.7932,-0.9034,-0.9521,-1.0177,-1.083,-1.1356,-1.2732,-1.3806,-1.4298,-1.5159,-1.5825,-1.5825,-1.592,-1.6015,-1.6473,-1.7404,-1.8149,-1.9163,-2.0357,-2.1087,-2.1463,-2.1642,-2.1731,-2.1731,-2.1731,-2.1731,-2.1731,-2.1731,-2.1731,-2.1731,-2.1909,-2.2167,3.6214,3.4801,3.4051,3.3274,3.2644,3.2182,3.1428,3.0551,3.0791,3.0799,3.0571,3.0517,3.1058,3.1663,3.1046,3.0955,3.1192,3.0395,3.0162,3.0317,2.9889,2.9184,2.8339,2.762,2.7063,2.6756,2.6502,2.6559,2.6784,2.6921,2.6987,2.7066,2.7366,2.7377,2.7188,2.6645,2.6139,2.5581,2.5004,2.4539,2.4261,2.4189,2.4189,2.4189,2.4189,2.4189,2.42,2.3897,2.3361,2.2542,2.1527,2.0382,1.9408,1.9606,1.9395,1.8354,1.8097,1.7696,1.6551,1.5624,1.4968,1.4196,1.3022,1.195,1.1175,1.0207,0.9229,0.8035,0.7534,0.6736,0.5636,0.4734,0.3726,0.272,0.3022,0.2216,0.0302,-0.1412,-0.2522,-0.3527,-0.5027,-0.6426,-0.7425,-0.8428,-0.943,-0.9715,-1.0542,-1.1487,-1.193,-1.3221,-1.4004,-1.4682,-1.535,-1.5737,-1.5825,-1.6015,-1.6197,-1.703,-1.8056,-1.8519,-1.9255,-2.0628,-2.1642,-2.1642,-2.1731,-2.1731,-2.1731,-2.1731,-2.1731,-2.1731,-2.1731,-2.1731,-2.182,-2.1882,-2.2227,3.5477,3.4004,3.3573,3.2752,3.1674,3.1582,3.1197,3.0529,3.0486,3.0739,3.1021,3.1065,3.1374,3.1849,3.1645,3.1546,3.1524,3.069,2.9925,2.9428,2.8839,2.8427,2.8204,2.7391,2.6921,2.6804,2.6778,2.704,2.7314,2.7406,2.7469,2.7471,2.743,2.7268,2.6782,2.622,2.5652,2.5075,2.4539,2.4261,2.4189,2.4189,2.4189,2.4189,2.4189,2.4189,2.4116,2.3372,2.2531,2.168,2.0304,1.9478,1.9421,1.9661,1.9146,1.7834,1.8024,1.7271,1.6028,1.5045,1.4292,1.3998,1.2441,1.1175,1.0886,0.9912,0.8829,0.7537,0.7135,0.6439,0.5035,0.3929,0.2821,0.1815,0.2016,0.1511,0.0101,-0.2016,-0.3225,-0.3929,-0.5529,-0.7036,-0.7646,-0.8755,-0.9339,-0.9941,-1.0867,-1.1813,-1.2802,-1.3806,-1.4771,-1.5255,-1.5642,-1.5737,-1.5825,-1.5825,-1.6103,-1.7131,-1.8249,-1.908,-1.9621,-2.0907,-2.1731,-2.1731,-2.1731,-2.1731,-2.1731,-2.1731,-2.1731,-2.1731,-2.1731,-2.183,-2.19,-2.2041,-2.2629,3.5966,3.4659,3.4357,3.3398,3.2213,3.2136,3.1697,3.1098,3.1457,3.1262,3.1051,3.1373,3.1588,3.1625,3.1597,3.1336,3.0777,3.0072,2.9393,2.8712,2.8091,2.7776,2.7776,2.7459,2.7288,2.7275,2.7249,2.7392,2.7456,2.7469,2.7469,2.7469,2.7469,2.7201,2.6714,2.6151,2.5581,2.5016,2.4467,2.4189,2.4189,2.4189,2.4189,2.4189,2.4189,2.4189,2.4043,2.283,2.1766,2.0847,1.9913,1.9457,1.9661,1.9472,1.8981,1.8177,1.7629,1.703,1.59,1.479,1.401,1.3125,1.1903,1.0886,1.0015,0.9225,0.8233,0.7338,0.6739,0.5949,0.4839,0.3833,0.2421,0.0705,0.0202,-0.0303,-0.1211,-0.2521,-0.3726,-0.4526,-0.6037,-0.7394,-0.8456,-0.9029,-0.9797,-1.0753,-1.1752,-1.2732,-1.3636,-1.4573,-1.5445,-1.554,-1.5825,-1.5825,-1.5825,-1.5825,-1.6204,-1.7232,-1.835,-1.9662,-2.0374,-2.1365,-2.1731,-2.1731,-2.1731,-2.1731,-2.1731,-2.1731,-2.1731,-2.1731,-2.1857,-2.1956,-2.2069,-2.2199,-2.3134,3.602,3.5081,3.4716,3.3844,3.2834,3.2716,3.2293,3.1723,3.184,3.1728,3.1332,3.1474,3.1612,3.1467,3.1219,3.0896,3.0389,2.9518,2.8903,2.8468,2.7842,2.7523,2.7523,2.7469,2.7469,2.7469,2.7469,2.7456,2.7469,2.7469,2.7469,2.7469,2.7268,2.6918,2.6358,2.5791,2.5229,2.4671,2.4334,2.4189,2.4189,2.4189,2.4189,2.4189,2.4189,2.3959,2.3139,2.2095,2.1045,2.0165,1.9696,1.9606,1.9706,1.9545,1.8946,1.81,1.7512,1.6711,1.5403,1.4358,1.3335,1.2318,1.1339,1.0545,0.9855,0.9034,0.8218,0.7415,0.6589,0.577,0.4846,0.3504,0.1649,-0.031,-0.1334,-0.1835,-0.2225,-0.3452,-0.4577,-0.5602,-0.696,-0.815,-0.8969,-0.929,-1.0205,-1.1212,-1.2263,-1.3224,-1.4219,-1.5223,-1.5865,-1.5905,-1.5899,-1.5899,-1.5965,-1.6081,-1.7085,-1.8112,-1.9556,-2.064,-2.0914,-2.1796,-2.175,-2.175,-2.1741,-2.1731,-2.1731,-2.1731,-2.182,-2.1839,-2.1974,-2.2143,-2.2344,-2.2795,-2.3649,3.5763,3.5445,3.4814,3.4051,3.3352,3.3215,3.2719,3.2163,3.1913,3.1769,3.1655,3.1526,3.1455,3.1351,3.0935,3.0545,3.0305,2.9361,2.8828,2.8331,2.7855,2.7456,2.7469,2.7469,2.7469,2.7496,2.7509,2.76,2.7691,2.7678,2.7572,2.7462,2.7071,2.6477,2.5886,2.5288,2.4743,2.425,2.4116,2.4123,2.4192,2.4299,2.4356,2.4545,2.43,2.3425,2.2328,2.1401,2.0694,1.9537,1.9797,1.9861,1.9665,1.967,1.8888,1.7947,1.7323,1.6382,1.482,1.3794,1.2703,1.1825,1.0841,1.016,0.98,0.9049,0.8108,0.7374,0.6685,0.5606,0.4341,0.2655,0.0743,-0.1058,-0.1679,-0.2176,-0.3268,-0.4409,-0.548,-0.663,-0.7988,-0.8786,-0.9032,-0.9436,-1.0248,-1.1897,-1.2783,-1.3734,-1.4708,-1.5622,-1.6049,-1.6086,-1.6052,-1.5992,-1.6175,-1.6366,-1.7875,-1.9273,-2.0985,-2.2068,-2.1572,-2.1915,-2.1823,-2.1777,-2.175,-2.1731,-2.1731,-2.1731,-2.182,-2.1919,-2.2036,-2.2293,-2.2599,-2.3408,-2.4251,3.6014,3.5476,3.5186,3.4666,3.3964,3.3328,3.2834,3.2551,3.2025,3.1775,3.1616,3.1499,3.117,3.0731,3.0848,3.0611,2.9803,2.9564,2.9416,2.8354,2.7706,2.7348,2.7335,2.7416,2.7469,2.7561,2.7803,2.7971,2.8036,2.8156,2.8145,2.7373,2.7037,2.6631,2.5324,2.4933,2.4587,2.3886,2.3762,2.3999,2.4367,2.4412,2.4646,2.5082,2.4503,2.3334,2.208,2.1602,2.1129,2.0458,2.0272,2.0126,1.9644,1.8982,1.8242,1.7594,1.6838,1.5992,1.4708,1.378,1.2782,1.1733,1.0828,0.9847,0.9104,0.8391,0.7542,0.669,0.5845,0.4695,0.2885,0.1187,-0.0216,-0.1289,-0.1826,-0.2571,-0.4216,-0.4894,-0.5631,-0.6838,-0.8049,-0.8948,-0.9176,-0.9648,-1.08,-1.2416,-1.3408,-1.4236,-1.5141,-1.613,-1.6223,-1.6326,-1.6333,-1.6306,-1.664,-1.7148,-1.8836,-2.0297,-2.2039,-2.2933,-2.2511,-2.2107,-2.2034,-2.1896,-2.1741,-2.1731,-2.1731,-2.1731,-2.1731,-2.1919,-2.2106,-2.2372,-2.2824,-2.3699,-2.4629,3.6137,3.583,3.5691,3.5094,3.4425,3.4001,3.3547,3.3066,3.2751,3.2333,3.2016,3.1893,3.132,3.0463,3.0434,2.9939,2.9497,2.9211,2.8881,2.8062,2.7485,2.7159,2.7224,2.742,2.7553,2.7424,2.7756,2.7932,2.8042,2.8045,2.7733,2.6937,2.6528,2.5601,2.4706,2.4322,2.4157,2.4215,2.41,2.4175,2.459,2.4921,2.4812,2.4748,2.3823,2.2524,2.1768,2.1511,2.1184,2.0824,2.0521,2.0088,1.9542,1.8897,1.8141,1.7421,1.6732,1.5636,1.45,1.3735,1.2825,1.1349,1.0724,0.9976,0.9112,0.8252,0.739,0.6529,0.5669,0.4361,0.2071,0.0659,-0.044,-0.1423,-0.1748,-0.2837,-0.4667,-0.5252,-0.5948,-0.7301,-0.8441,-0.8942,-0.941,-1.0011,-1.1305,-1.2976,-1.4151,-1.4988,-1.5871,-1.6673,-1.6567,-1.66,-1.664,-1.6753,-1.7073,-1.8074,-1.9964,-2.1385,-2.2806,-2.3235,-2.3107,-2.2676,-2.2373,-2.2052,-2.1786,-2.1741,-2.1731,-2.1731,-2.182,-2.2097,-2.2283,-2.246,-2.3115,-2.4173,-2.4903,3.6211,3.6133,3.6022,3.5513,3.4889,3.4708,3.4237,3.3679,3.3391,3.2812,3.242,3.2285,3.1242,3.0429,2.9754,2.947,2.9198,2.872,2.8324,2.8273,2.737,2.7109,2.7173,2.7327,2.724,2.6942,2.7768,2.8055,2.7679,2.7569,2.7395,2.654,2.5529,2.4929,2.4408,2.3765,2.3785,2.4399,2.4368,2.4437,2.4758,2.5094,2.4812,2.39,2.3012,2.2119,2.1692,2.1474,2.1245,2.1213,2.0712,2.0082,1.9488,1.88,1.8285,1.7362,1.6715,1.5639,1.4269,1.3588,1.2971,1.1013,1.068,1.012,0.9226,0.8326,0.7442,0.6359,0.5252,0.3702,0.191,0.0339,-0.0792,-0.1579,-0.2007,-0.3114,-0.4793,-0.5537,-0.6816,-0.8205,-0.8903,-0.9184,-0.9779,-1.0542,-1.2096,-1.3506,-1.4686,-1.5743,-1.6639,-1.7068,-1.6886,-1.6974,-1.7034,-1.7957,-1.8477,-1.8773,-2.0696,-2.2283,-2.3583,-2.3483,-2.3556,-2.3213,-2.2747,-2.2126,-2.1851,-2.1796,-2.1741,-2.1731,-2.1919,-2.2274,-2.2372,-2.247,-2.3396,-2.4573,-2.5242,3.6148,3.6037,3.5831,3.5691,3.5446,3.4838,3.4442,3.4155,3.3079,3.2547,3.2313,3.1501,3.0855,3.0102,2.9673,2.9481,2.921,2.8787,2.8754,2.8707,2.7672,2.7056,2.7399,2.7125,2.6731,2.6771,2.7717,2.8101,2.7656,2.7928,2.7269,2.6198,2.5678,2.5262,2.4515,2.4203,2.3981,2.429,2.4312,2.4552,2.4751,2.4534,2.4075,2.3208,2.2582,2.2216,2.1757,2.1514,2.1616,2.1898,2.1147,2.0364,1.9502,1.859,1.7635,1.7083,1.6807,1.585,1.4129,1.3758,1.2783,1.1337,1.0582,0.9805,0.8696,0.7931,0.7067,0.5522,0.3748,0.2172,0.1715,-0.0115,-0.1399,-0.2099,-0.2783,-0.3796,-0.5246,-0.6454,-0.763,-0.9003,-0.9247,-0.9489,-1.0056,-1.0949,-1.2479,-1.384,-1.514,-1.6181,-1.7088,-1.7284,-1.7193,-1.7317,-1.7468,-1.8815,-2.0051,-2.0319,-2.129,-2.288,-2.3962,-2.3735,-2.3697,-2.3537,-2.313,-2.2583,-2.2071,-2.1823,-2.1786,-2.175,-2.183,-2.2097,-2.2283,-2.2381,-2.3474,-2.4648,-2.5495,3.6022,3.5831,3.5653,3.5365,3.4934,3.4551,3.4142,3.3767,3.3092,3.2546,3.2069,3.149,3.0698,2.9856,2.93,2.9027,2.8928,2.9055,2.9045,2.8908,2.8003,2.7549,2.7758,2.7259,2.6834,2.6803,2.7541,2.7663,2.6764,2.6989,2.661,2.5705,2.5223,2.4589,2.4153,2.3855,2.4127,2.4245,2.4503,2.4697,2.4962,2.4409,2.3533,2.3057,2.2612,2.2367,2.2161,2.2208,2.1976,2.1643,2.0805,1.9958,1.9147,1.8217,1.7382,1.6927,1.6555,1.5646,1.4044,1.3547,1.2408,1.1017,1.0363,0.9475,0.8276,0.7533,0.6576,0.4702,0.3115,0.1511,0.0814,-0.0821,-0.1648,-0.212,-0.3062,-0.432,-0.5414,-0.6873,-0.8289,-0.9439,-0.9629,-0.9732,-1.0048,-1.127,-1.2821,-1.418,-1.5482,-1.6567,-1.747,-1.7477,-1.7378,-1.7477,-1.7674,-1.8916,-2.0261,-2.0783,-2.17,-2.3338,-2.4143,-2.4015,-2.3904,-2.3699,-2.3472,-2.3067,-2.263,-2.2126,-2.1796,-2.175,-2.183,-2.2017,-2.2232,-2.2685,-2.3657,-2.4563,-2.5633,3.574,3.5443,3.5335,3.489,3.4312,3.4109,3.3739,3.3241,3.3128,3.2561,3.1882,3.1596,3.079,2.9776,2.9157,2.8829,2.8581,2.8973,2.9113,2.9063,2.836,2.8011,2.7891,2.7527,2.6983,2.6221,2.6472,2.6472,2.6108,2.6073,2.565,2.5024,2.4346,2.4023,2.3998,2.3855,2.4288,2.4498,2.4802,2.5037,2.4935,2.4237,2.332,2.2909,2.2481,2.2354,2.2391,2.2592,2.2236,2.1456,2.0549,1.9597,1.8782,1.7846,1.7235,1.6814,1.5964,1.5129,1.4062,1.3053,1.2091,1.0798,0.9915,0.9027,0.8063,0.7019,0.5758,0.398,0.2597,0.13,0.0236,-0.1187,-0.1787,-0.2265,-0.3331,-0.4604,-0.5837,-0.7182,-0.8758,-0.9585,-0.9824,-1.0204,-1.0414,-1.1749,-1.3426,-1.4407,-1.5713,-1.6791,-1.7589,-1.7589,-1.7589,-1.7589,-1.7891,-1.893,-1.996,-2.0783,-2.2005,-2.3637,-2.4152,-2.4097,-2.4076,-2.3877,-2.3639,-2.3446,-2.3134,-2.2639,-2.2199,-2.1777,-2.1839,-2.2036,-2.2377,-2.3046,-2.4052,-2.5263,-2.6495,3.5292,3.4637,3.4508,3.438,3.4163,3.3547,3.3283,3.3072,3.2722,3.2327,3.1616,3.1239,3.0624,2.9935,2.9706,2.9328,2.8976,2.8875,2.9151,2.9224,2.8487,2.7877,2.7593,2.7143,2.6398,2.5711,2.5429,2.5245,2.5273,2.5561,2.5348,2.4787,2.4617,2.4405,2.4397,2.4281,2.4405,2.4607,2.4935,2.4542,2.3707,2.314,2.2681,2.2263,2.2342,2.268,2.2793,2.2749,2.2302,2.1654,2.0777,1.9853,1.9111,1.815,1.7095,1.6349,1.5813,1.5287,1.4024,1.2847,1.1764,1.0684,0.9805,0.8916,0.7771,0.6505,0.5224,0.3873,0.2498,0.1199,-0.012,-0.1216,-0.1837,-0.2813,-0.4132,-0.5309,-0.6448,-0.8002,-0.9476,-0.9978,-1.0341,-1.0536,-1.0896,-1.2358,-1.3806,-1.4877,-1.5855,-1.6935,-1.7589,-1.7589,-1.7589,-1.7589,-1.8101,-1.9027,-2.0166,-2.0987,-2.2215,-2.3945,-2.4152,-2.4161,-2.4177,-2.4058,-2.3859,-2.3648,-2.3373,-2.3079,-2.263,-2.2226,-2.1995,-2.2298,-2.2815,-2.3644,-2.4629,-2.5937,-2.7189,3.4507,3.3877,3.3715,3.3408,3.2989,3.2577,3.216,3.1803,3.1483,3.1169,3.0862,3.0599,3.0049,2.9631,2.9603,2.9465,2.895,2.8756,2.877,2.8809,2.8071,2.7459,2.7205,2.66,2.578,2.5486,2.4965,2.4788,2.4819,2.4925,2.4869,2.4979,2.4836,2.4923,2.4836,2.4933,2.4747,2.4674,2.464,2.4095,2.3147,2.306,2.2945,2.2236,2.2786,2.3053,2.303,2.2753,2.2081,2.1352,2.0241,1.9273,1.8255,1.7246,1.6287,1.5962,1.4561,1.3701,1.3058,1.2091,1.1118,1.0131,0.9044,0.7988,0.6868,0.6063,0.4741,0.2894,0.2306,0.0975,-0.061,-0.1598,-0.2341,-0.3328,-0.4795,-0.6092,-0.7365,-0.901,-1.0351,-1.0616,-1.087,-1.1301,-1.193,-1.3202,-1.4489,-1.5285,-1.618,-1.7153,-1.7589,-1.7589,-1.7589,-1.7589,-1.8304,-1.9235,-2.0467,-2.1497,-2.2518,-2.3845,-2.4152,-2.4161,-2.4161,-2.4079,-2.3978,-2.3859,-2.3629,-2.3318,-2.2988,-2.2796,-2.2676,-2.3009,-2.3473,-2.4456,-2.5529,-2.6462,-2.7738,3.3125,3.2858,3.2891,3.2577,3.2015,3.1663,3.1172,3.0685,3.0637,3.0369,3.01,3.0023,2.9706,2.9226,2.9334,2.9155,2.8808,2.8373,2.8176,2.7879,2.7476,2.7023,2.6662,2.6097,2.5692,2.5527,2.4986,2.4781,2.4757,2.4871,2.5165,2.5233,2.5161,2.5275,2.5248,2.4958,2.4578,2.4025,2.4078,2.3534,2.2907,2.3233,2.3128,2.3112,2.3253,2.349,2.3242,2.2819,2.1979,2.0444,1.9716,1.879,1.7779,1.6717,1.5855,1.5102,1.3706,1.2521,1.1987,1.1227,1.0355,0.9372,0.8199,0.7169,0.5955,0.5489,0.4601,0.2327,0.1596,0.0246,-0.1358,-0.1976,-0.2714,-0.3817,-0.5159,-0.6698,-0.8228,-0.9666,-1.0748,-1.1181,-1.167,-1.2467,-1.3211,-1.4256,-1.5183,-1.5827,-1.6617,-1.7477,-1.7589,-1.7589,-1.7589,-1.7694,-1.8513,-1.9435,-2.057,-2.1802,-2.2929,-2.3746,-2.4053,-2.4161,-2.4161,-2.4161,-2.4106,-2.3969,-2.3831,-2.3943,-2.3818,-2.3597,-2.3476,-2.3575,-2.401,-2.5409,-2.6483,-2.7446,-2.8519,3.0827,3.1317,3.1915,3.2015,3.1709,3.1035,3.0685,3.042,3.066,3.0481,3.0113,2.9844,2.9664,2.9484,2.8809,2.8505,2.8457,2.7626,2.7302,2.7151,2.7069,2.6494,2.5997,2.5663,2.538,2.4911,2.4892,2.5088,2.5254,2.5451,2.543,2.5306,2.5382,2.5585,2.5327,2.4776,2.3957,2.3438,2.3306,2.3224,2.2902,2.3158,2.3299,2.3293,2.3663,2.3701,2.2693,2.2308,2.1395,1.9642,1.9124,1.8394,1.7358,1.618,1.5209,1.4132,1.295,1.1878,1.1122,1.0907,1.0253,0.9182,0.7927,0.657,0.5775,0.454,0.3272,0.2088,0.1231,-0.0247,-0.1482,-0.2224,-0.2837,-0.4445,-0.5921,-0.7492,-0.8802,-1.0009,-1.1106,-1.1723,-1.2473,-1.3255,-1.4195,-1.5252,-1.5904,-1.6535,-1.6842,-1.7589,-1.7589,-1.7589,-1.7589,-1.7793,-1.8715,-1.9642,-2.0672,-2.1903,-2.3229,-2.3845,-2.4152,-2.4161,-2.4161,-2.4161,-2.4161,-2.4214,-2.4104,-2.4445,-2.4613,-2.42,-2.3852,-2.3852,-2.4468,-2.5849,-2.7558,-2.9003,-3.0043,3.12,3.0869,3.1167,3.1185,3.111,3.0672,3.0381,3.0254,3.0238,3.0173,2.9882,2.9287,2.8961,2.8724,2.8051,2.7637,2.7476,2.673,2.64,2.608,2.5757,2.5359,2.502,2.5073,2.4922,2.4923,2.5181,2.542,2.5647,2.5704,2.5655,2.5523,2.5635,2.5757,2.538,2.4424,2.3483,2.2973,2.2957,2.3099,2.2716,2.3295,2.3529,2.3655,2.3105,2.3029,2.2316,2.1081,2.0158,1.9228,1.861,1.7667,1.6717,1.5535,1.4352,1.3275,1.2091,1.1337,1.0802,1.0594,1.0067,0.8626,0.714,0.5975,0.5594,0.4593,0.3295,0.209,0.0739,-0.074,-0.1729,-0.2347,-0.3088,-0.5079,-0.682,-0.8292,-0.9503,-1.0723,-1.1163,-1.176,-1.2795,-1.3764,-1.4855,-1.6051,-1.667,-1.7265,-1.7462,-1.7589,-1.7589,-1.7589,-1.7589,-1.8101,-1.9027,-1.9849,-2.0885,-2.2207,-2.3546,-2.3954,-2.4161,-2.4161,-2.4161,-2.4161,-2.426,-2.4251,-2.4242,-2.4421,-2.4426,-2.4444,-2.4468,-2.4632,-2.5156,-2.6158,-2.8153,-3.0166,-3.1086,3.1175,3.0698,3.0698,3.0622,3.0546,3.0381,3.0152,3.0011,2.9869,2.9736,2.951,2.8809,2.8411,2.8044,2.7185,2.673,2.6494,2.5913,2.5505,2.5263,2.4946,2.454,2.455,2.4602,2.4843,2.5073,2.5173,2.5288,2.5615,2.5645,2.5411,2.5431,2.572,2.5615,2.5156,2.4212,2.3131,2.2652,2.2894,2.3126,2.2804,2.3377,2.3529,2.342,2.2828,2.2005,2.1285,2.0158,1.9235,1.861,1.7989,1.7041,1.5968,1.4781,1.3604,1.2417,1.145,1.0802,1.059,0.9983,0.9363,0.7763,0.6667,0.5939,0.5418,0.439,0.2703,0.1968,0.0493,-0.111,-0.2101,-0.285,-0.4226,-0.6243,-0.7661,-0.9159,-1.0475,-1.1559,-1.1598,-1.1905,-1.3172,-1.4677,-1.5525,-1.6582,-1.736,-1.7701,-1.7569,-1.7615,-1.7589,-1.7589,-1.7589,-1.8311,-1.9443,-2.0166,-2.0987,-2.2535,-2.3881,-2.3954,-2.4161,-2.4161,-2.4161,-2.4161,-2.426,-2.4251,-2.4251,-2.435,-2.4473,-2.4566,-2.5013,-2.5373,-2.6214,-2.716,-2.82,-3.0078,-3.1134,3.0442,3.0672,3.0698,3.047,3.0152,3.0152,3.0011,2.9792,2.9714,2.9443,2.906,2.8611,2.8116,2.7595,2.6557,2.6037,2.5782,2.5105,2.4742,2.4636,2.4615,2.455,2.4485,2.4557,2.4661,2.4989,2.4927,2.499,2.5426,2.5178,2.5024,2.478,2.4771,2.4897,2.4758,2.4088,2.3107,2.2287,2.2754,2.3141,2.3276,2.352,2.3229,2.2828,2.2114,2.1183,2.0048,1.9332,1.861,1.7996,1.7569,1.6723,1.5642,1.446,1.3383,1.22,1.1249,1.0712,1.0496,0.9181,0.8028,0.7164,0.6273,0.5763,0.5194,0.378,0.2092,0.1477,-0.0493,-0.1851,-0.285,-0.3739,-0.5383,-0.693,-0.8489,-0.9893,-1.1219,-1.1876,-1.1914,-1.2397,-1.4157,-1.5666,-1.6394,-1.7171,-1.7985,-1.8147,-1.7842,-1.7655,-1.7622,-1.7707,-1.7707,-1.8738,-1.9896,-2.0924,-2.1862,-2.3143,-2.4108,-2.418,-2.4161,-2.4161,-2.4161,-2.4161,-2.4251,-2.426,-2.4251,-2.435,-2.4637,-2.4913,-2.5235,-2.5625,-2.7379,-2.8451,-2.9212,-3.0056,-3.1104,3.0579,3.052,3.052,3.0241,2.9946,2.9998,3.0011,2.9702,2.9221,2.8821,2.8497,2.7671,2.7116,2.6689,2.6281,2.5728,2.5343,2.5225,2.4923,2.4581,2.4612,2.455,2.445,2.4378,2.4494,2.4655,2.4619,2.4621,2.5073,2.4749,2.4482,2.4214,2.3827,2.3628,2.3818,2.3429,2.2641,2.2589,2.2985,2.3338,2.3338,2.3138,2.2728,2.2316,2.1183,2.0048,1.9124,1.861,1.7989,1.7477,1.7054,1.5998,1.4815,1.363,1.2555,1.1608,1.0781,1.0257,0.9332,0.8075,0.7445,0.6771,0.6211,0.545,0.4514,0.3064,0.1846,0.0616,-0.111,-0.2098,-0.2597,-0.4122,-0.5788,-0.7499,-0.8943,-1.0472,-1.1693,-1.1949,-1.2208,-1.3268,-1.4738,-1.6638,-1.7757,-1.7859,-1.8472,-1.8551,-1.8176,-1.7822,-1.7709,-1.7761,-1.7966,-1.9295,-2.0445,-2.1611,-2.279,-2.3808,-2.4464,-2.4583,-2.4381,-2.4161,-2.4161,-2.4299,-2.4235,-2.4371,-2.4306,-2.4341,-2.4637,-2.4932,-2.5137,-2.5887,-2.7379,-2.8484,-2.8947,-2.9977,-3.1383,3.0685,3.0444,3.0292,3.0075,2.9869,2.9934,2.9767,2.93,2.8724,2.839,2.7845,2.6956,2.653,2.6416,2.6109,2.5792,2.5461,2.5451,2.5388,2.5006,2.5016,2.4903,2.4632,2.4287,2.4392,2.4404,2.4127,2.3985,2.4347,2.4196,2.3818,2.3338,2.2846,2.3046,2.3138,2.2937,2.2837,2.2811,2.3147,2.3147,2.2937,2.2526,2.2013,2.1081,2.0048,1.902,1.861,1.7996,1.7378,1.6974,1.6267,1.5121,1.3946,1.2913,1.1957,1.1255,1.0529,0.9767,0.826,0.7614,0.7077,0.654,0.6066,0.5242,0.4052,0.2706,0.1354,-0.0,-0.1481,-0.2222,-0.2968,-0.4504,-0.6595,-0.8331,-0.9963,-1.1389,-1.189,-1.2146,-1.2636,-1.3695,-1.5137,-1.715,-1.8765,-1.8853,-1.9005,-1.8778,-1.8537,-1.821,-1.7903,-1.797,-1.8404,-1.9847,-2.0932,-2.2095,-2.3207,-2.4319,-2.479,-2.4986,-2.4757,-2.4473,-2.4611,-2.4812,-2.4601,-2.4409,-2.4527,-2.459,-2.4693,-2.4932,-2.5137,-2.58,-2.6914,-2.784,-2.8588,-2.9886,-3.1472,3.0609,3.0368,3.0228,2.9934,2.9792,2.9624,2.9131,2.8542,2.8371,2.7904,2.7108,2.6627,2.6288,2.6368,2.603,2.5854,2.5813,2.5823,2.5771,2.5661,2.5458,2.5169,2.4735,2.4447,2.4208,2.3813,2.3602,2.3332,2.361,2.3329,2.2946,2.2745,2.2653,2.2745,2.2745,2.3024,2.3007,2.3081,2.2946,2.2889,2.2545,2.1835,2.098,2.0081,1.9277,1.8654,1.8252,1.7756,1.707,1.658,1.5928,1.4581,1.3578,1.2932,1.2091,1.122,1.0304,0.8877,0.7671,0.7235,0.6673,0.6246,0.5776,0.5047,0.3815,0.2215,0.0739,-0.0616,-0.1973,-0.2717,-0.3467,-0.5667,-0.7938,-0.9472,-1.1055,-1.1888,-1.2099,-1.2465,-1.2956,-1.4046,-1.5622,-1.7345,-1.8797,-1.9259,-1.9287,-1.9072,-1.8905,-1.8818,-1.8524,-1.8283,-1.8953,-2.0438,-2.1618,-2.2486,-2.3699,-2.4948,-2.52,-2.539,-2.5252,-2.506,-2.5216,-2.5216,-2.5005,-2.4831,-2.4776,-2.4821,-2.4678,-2.4735,-2.5039,-2.5887,-2.6617,-2.7652,-2.8484,-2.9977,-3.1282,3.0622,3.0355,3.0152,2.9599,2.8791,2.8131,2.8051,2.8291,2.7232,2.6373,2.616,2.573,2.5696,2.5606,2.5792,2.5885,2.5896,2.5885,2.5875,2.5735,2.5381,2.5005,2.4492,2.3975,2.3595,2.3257,2.301,2.2789,2.2911,2.2653,2.2653,2.2653,2.2644,2.2644,2.2866,2.3318,2.3146,2.2984,2.2748,2.2554,2.187,2.1068,2.0166,1.9597,1.8814,1.8313,1.8211,1.8041,1.738,1.6545,1.5601,1.4419,1.3187,1.2227,1.1248,1.045,0.9422,0.8405,0.7425,0.6602,0.6134,0.5667,0.5056,0.3816,0.2584,0.1233,-0.0247,-0.1479,-0.2468,-0.3213,-0.4487,-0.6584,-0.8489,-1.0042,-1.1478,-1.2236,-1.2462,-1.2492,-1.3113,-1.5024,-1.6479,-1.7976,-1.9422,-1.9604,-1.953,-1.9394,-1.9245,-1.9178,-1.9072,-1.8798,-1.9674,-2.1178,-2.2088,-2.2977,-2.4503,-2.5898,-2.5876,-2.5766,-2.5656,-2.5537,-2.5491,-2.5445,-2.5326,-2.5197,-2.506,-2.4785,-2.4424,-2.4684,-2.5055,-2.5499,-2.6214,-2.7348,-2.8555,-2.9931,-3.0979,3.052,3.0292,2.9741,2.8858,2.7891,2.6976,2.6976,2.7139,2.6235,2.5738,2.5562,2.5361,2.5316,2.5606,2.5978,2.6185,2.6196,2.6074,2.5959,2.5762,2.5145,2.4677,2.4145,2.3579,2.3268,2.2955,2.2681,2.2619,2.2653,2.2653,2.2653,2.2653,2.2644,2.2545,2.2588,2.2766,2.2859,2.2619,2.2411,2.2174,2.132,2.0227,1.993,1.9329,1.8502,1.848,1.836,1.8177,1.7142,1.6026,1.4794,1.3624,1.2503,1.139,1.0391,0.9553,0.86,0.7667,0.675,0.6276,0.5684,0.4964,0.3852,0.2494,0.1369,0.0124,-0.1114,-0.2343,-0.2964,-0.3844,-0.5526,-0.7253,-0.877,-1.046,-1.1442,-1.2564,-1.2617,-1.2536,-1.4014,-1.6038,-1.7635,-1.9031,-1.9865,-1.9787,-1.9747,-1.9468,-1.9325,-1.9305,-1.9245,-1.9118,-2.0379,-2.1973,-2.2672,-2.3472,-2.5121,-2.6371,-2.6261,-2.6151,-2.6142,-2.6013,-2.5848,-2.5812,-2.583,-2.5592,-2.5289,-2.4997,-2.4701,-2.4808,-2.5098,-2.5556,-2.582,-2.6733,-2.7974,-2.9421,-3.0302,3.0279,3.0126,2.8858,2.7799,2.6987,2.608,2.5746,2.5663,2.5663,2.5488,2.5155,2.5161,2.5306,2.5513,2.5836,2.6054,2.592,2.5714,2.5668,2.5848,2.5015,2.4315,2.3941,2.3565,2.3079,2.2785,2.2653,2.2653,2.2653,2.2662,2.267,2.2679,2.2629,2.2494,2.2295,2.246,2.2274,2.1655,2.2041,2.2129,2.0745,1.9983,1.9573,1.8904,1.8564,1.8446,1.8131,1.7322,1.6049,1.4879,1.3968,1.2831,1.1881,1.0868,0.9964,0.9004,0.8164,0.7192,0.6469,0.6108,0.5129,0.4146,0.2649,0.1267,0.0253,-0.0882,-0.2005,-0.299,-0.3618,-0.5013,-0.6593,-0.8209,-0.9745,-1.0911,-1.2053,-1.2568,-1.2605,-1.3306,-1.5125,-1.6982,-1.876,-2.0018,-1.9953,-2.001,-1.9888,-1.9629,-1.9366,-1.9366,-1.9399,-1.9345,-2.0816,-2.2507,-2.3007,-2.3661,-2.5472,-2.6509,-2.6536,-2.6509,-2.6472,-2.6435,-2.6243,-2.6289,-2.6389,-2.5986,-2.5546,-2.5347,-2.5136,-2.5246,-2.5308,-2.5538,-2.5888,-2.6093,-2.7189,-2.8718,-2.975,2.9406,2.9238,2.729,2.6318,2.5997,2.5189,2.4861,2.4786,2.4786,2.4773,2.4695,2.4736,2.4788,2.4939,2.4946,2.5088,2.5142,2.5071,2.49,2.4809,2.4412,2.3926,2.3637,2.312,2.2828,2.2736,2.2653,2.2653,2.2662,2.2679,2.2816,2.3151,2.2774,2.2223,2.2135,2.2196,2.1635,2.0678,2.1167,2.1478,2.0567,1.9438,1.8847,1.8871,1.8991,1.8382,1.7963,1.7481,1.5848,1.4375,1.3966,1.317,1.2229,1.1135,1.0148,0.9145,0.7983,0.6972,0.6214,0.5707,0.4834,0.3572,0.2176,0.0641,-0.0641,-0.1789,-0.28,-0.3544,-0.4674,-0.6094,-0.7546,-0.9056,-1.0463,-1.1497,-1.2529,-1.256,-1.2722,-1.4349,-1.6097,-1.7914,-1.9757,-2.0178,-2.0106,-2.0054,-1.9913,-1.972,-1.9472,-1.9406,-1.9526,-1.965,-2.0923,-2.2383,-2.2917,-2.3904,-2.5767,-2.6674,-2.6719,-2.6646,-2.6573,-2.6582,-2.6591,-2.6545,-2.6463,-2.616,-2.5793,-2.566,-2.5589,-2.5572,-2.5619,-2.58,-2.601,-2.6251,-2.6655,-2.7869,-2.8943,2.8558,2.8126,2.6558,2.5579,2.5179,2.47,2.455,2.455,2.455,2.455,2.455,2.455,2.4464,2.4512,2.4395,2.4283,2.4502,2.422,2.4268,2.4079,2.3728,2.3338,2.2946,2.2846,2.2745,2.2653,2.2653,2.2653,2.2586,2.2766,2.2963,2.284,2.2209,2.1937,2.1923,2.138,2.0876,1.9897,2.0308,2.0259,2.0097,1.9453,1.8985,1.9245,1.915,1.8461,1.7651,1.7161,1.5664,1.4159,1.3446,1.2507,1.1477,1.0482,0.9484,0.8467,0.7446,0.6565,0.5927,0.5161,0.4265,0.2592,0.1039,-0.0651,-0.2106,-0.315,-0.3114,-0.3997,-0.5108,-0.6532,-0.8009,-0.9534,-1.0928,-1.2092,-1.2668,-1.2894,-1.3886,-1.5411,-1.693,-1.8354,-1.977,-2.0559,-2.0588,-2.0471,-2.0292,-2.006,-1.9786,-1.9733,-1.98,-1.9932,-2.1313,-2.2481,-2.3098,-2.4569,-2.6646,-2.7105,-2.6921,-2.683,-2.6738,-2.6628,-2.66,-2.6591,-2.649,-2.6396,-2.624,-2.6013,-2.5954,-2.6008,-2.5965,-2.603,-2.6266,-2.6413,-2.6773,-2.7142,-2.8125,2.743,2.6869,2.5953,2.5179,2.454,2.455,2.455,2.455,2.455,2.4464,2.4282,2.4282,2.4368,2.4405,2.4356,2.4421,2.4162,2.3703,2.3538,2.342,2.2937,2.2846,2.2754,2.2653,2.2653,2.2653,2.2653,2.2519,2.2384,2.2492,2.2374,2.2006,2.1862,2.1729,2.0759,2.0224,2.0104,1.9699,1.97,1.9591,1.9468,1.9366,1.9339,1.9352,1.9186,1.8593,1.7416,1.6337,1.5094,1.4084,1.2926,1.2115,1.1129,1.0131,0.8828,0.7804,0.6777,0.5862,0.5072,0.4165,0.2616,0.092,-0.0527,-0.1855,-0.3215,-0.3739,-0.3696,-0.4717,-0.5843,-0.7124,-0.8494,-1.013,-1.1534,-1.2389,-1.2808,-1.3608,-1.5024,-1.6183,-1.7474,-1.8896,-2.0011,-2.0836,-2.0843,-2.0737,-2.0644,-2.0299,-2.0172,-2.0267,-2.0241,-2.0456,-2.1145,-2.2632,-2.3606,-2.5369,-2.7395,-2.7536,-2.7251,-2.715,-2.705,-2.6802,-2.6609,-2.6691,-2.6682,-2.6663,-2.6525,-2.6504,-2.6421,-2.6389,-2.6445,-2.6428,-2.6702,-2.7059,-2.708,-2.7324,-2.757,2.5408,2.4551,2.4672,2.4615,2.454,2.455,2.455,2.455,2.4454,2.4196,2.3764,2.3677,2.3677,2.364,2.3101,2.299,2.3231,2.2965,2.2876,2.2745,2.2644,2.2653,2.2653,2.2653,2.2653,2.2586,2.2443,2.2333,2.2042,2.2086,2.2046,2.1845,2.0825,2.0854,2.102,2.043,1.9673,1.9459,1.9472,1.9472,1.9426,1.9412,1.9372,1.9089,1.8513,1.7404,1.6189,1.512,1.3849,1.2952,1.2438,1.1782,1.0925,0.9776,0.8462,0.7137,0.6091,0.5169,0.4369,0.3176,0.1596,0.0133,-0.1067,-0.2404,-0.3495,-0.4167,-0.4538,-0.573,-0.6878,-0.789,-0.9255,-1.1144,-1.2553,-1.2684,-1.2832,-1.439,-1.5934,-1.6845,-1.7753,-1.9322,-2.0749,-2.1109,-2.1109,-2.0936,-2.0816,-2.0591,-2.0342,-2.042,-2.0434,-2.0733,-2.1183,-2.2579,-2.3999,-2.5679,-2.7434,-2.7838,-2.7636,-2.7526,-2.7297,-2.6949,-2.6801,-2.6909,-2.689,-2.6791,-2.6999,-2.7013,-2.6948,-2.6756,-2.7069,-2.7131,-2.7447,-2.767,-2.7602,-2.7598,-2.7737]},{"header":{"parameterUnit":"m.s-1","parameterCategory":1,"la1":31.0,"la2":29.5877,"lo1":-88.7671,"lo2":-86.6584,"dy":0.0162,"dx":0.0185,"nx":115,"ny":88,"refTime":"2024-03-15T12:00:00:Z","depth":0,"parameterNumber":3,"parameterNumberName":"V-component_of_WINDS"},"data":[0.0,0.0,0.0,0.0,0.0,0.0,0.0,0.0,0.0,0.0,0.0,0.0,0.0,0.0,0.0,0.0,0.0,0.0,0.0,0.0,0.0,0.0,0.0,0.0,0.0,0.0,0.0,0.0,0.0,0.0,0.0,0.0,0.0,0.0,0.0,0.0,0.0,0.0,0.0,0.0,0.0,0.0,0.0,0.0,0.0,0.0,0.0,0.0,0.0,0.0,0.0,0.0,0.0,0.0,0.0,0.0,0.0,0.0,0.0,0.0,0.0,0.0,0.0,0.0,0.0,0.0,0.0,0.0,0.0,0.0,0.0,0.0,0.0,0.0,0.0,0.0,0.0,0.0,0.0,0.0,0.0,0.0,0.0,0.0,0.0,0.0,0.0,0.0,0.0,0.0,0.0,0.0,0.0,0.0,0.0,0.0,0.0,0.0,0.0,0.0,0.0,0.0,0.0,0.0,0.0,0.0,0.0,0.0,0.0,0.0,0.0,0.0,0.0,0.0,0.0,0.0,0.0,0.0,0.0,0.0,0.0,0.0,0.0,0.0,0.0,0.0,0.0,0.0,0.0,0.0,0.0,0.0,0.0,0.0,0.0,0.0,0.0,0.0,0.0,0.0,0.0,0.0,0.0,0.0,0.0,0.0,0.0,0.0,0.0,0.0,0.0,0.0,0.0,0.0,0.0,0.0,0.0,0.0,0.0,0.0,0.0,0.0,0.0,0.0,0.0,0.0,0.0,0.0,0.0,0.0,0.0,0.0,0.0,0.0,0.0,0.0,0.0,0.0,0.0,0.0,0.0,0.0,0.0,0.0,0.0,0.0,0.0,0.0,0.0,0.0,0.0,0.0,0.0,0.0,0.0,0.0,0.0,0.0,0.0,0.0,0.0,0.0,0.0,0.0,0.0,0.0,0.0,0.0,0.0,0.0,0.0,0.0,0.0,0.0,0.0,0.0,0.0,0.0,0.0,0.0,0.0,0.0,0.0,0.0,0.0,0.0,0.0,0.0,0.0,0.0,0.0,0.0,0.0,0.0,0.0,0.0,0.0,0.0,0.0,0.0,0.0,0.0,0.0,0.0,0.0,0.0,0.0,0.0,0.0,0.0,0.0,0.0,0.0,0.0,0.0,0.0,0.0,0.0,0.0,0.0,0.0,0.0,0.0,0.0,0.0,0.0,0.0,0.0,0.0,0.0,0.0,0.0,0.0,0.0,0.0,0.0,0.0,0.0,0.0,0.0,0.0,0.0,0.0,0.0,0.0,0.0,0.0,0.0,0.0,0.0,0.0,0.0,0.0,0.0,0.0,0.0,0.0,0.0,0.0,0.0,0.0,0.0,0.0,0.0,0.0,0.0,0.0,0.0,0.0,0.0,0.0,0.0,0.0,0.0,0.0,0.0,0.0,0.0,0.0,0.0,0.0,0.0,0.0,0.0,0.0,0.0,0.0,0.0,0.0,0.0,0.0,0.0,0.0,0.0,0.0,0.0,0.0,0.0,0.0,0.0,0.0,0.0,0.0,0.0,0.0,0.0,0.0,0.0,0.0,0.0,0.0,0.0,0.0,0.0,0.0,0.0,0.0,0.0,0.0,0.0,0.0,0.0,0.0,0.0,0.0,0.0,0.0,0.0,0.0,0.0,0.0,0.0,0.0,0.0,0.0,0.0,0.0,0.0,0.0,0.0,0.0,0.0,0.0,0.0,0.0,0.0,0.0,0.0,0.0,0.0,0.0,0.0,0.0,0.0,0.0,0.0,0.0,0.0,0.0,0.0,0.0,0.0,0.0,0.0,0.0,0.0,0.0,0.0,0.0,0.0,0.0,0.0,0.0,0.0,0.0,0.0,0.0,0.0,0.0,0.0,0.0,0.0,0.0,0.0,0.0,0.0,0.0,0.0,0.0,0.0,0.0,0.0,0.0,0.0,0.0,0.0,0.0,0.0,0.0,0.0,0.0,0.0,0.0,0.0,0.0,0.0,0.0,0.0,0.0,0.0,0.0,0.0,0.0,0.0,0.0,0.0,0.0,0.0,0.0,0.0,0.0,0.0,0.0,0.0,0.0,0.0,0.0,0.0,0.0,0.0,0.0,0.0,0.0,0.0,0.0,0.0,0.0,0.0,0.0,0.0,0.0,0.0,0.0,0.0,0.0,0.0,0.0,0.0,0.0,0.0,0.0,0.0,0.0,0.0,0.0,0.0,0.0,0.0,0.0,0.0,0.0,0.0,0.0,0.0,0.0,0.0,0.0,0.0,0.0,0.0,0.0,0.0,0.0,0.0,0.0,0.0,0.0,0.0,0.0,0.0,0.0,0.0,0.0,0.0,0.0,0.0,0.0,0.0,0.0,0.0,0.0,0.0,0.0,0.0,0.0,0.0,0.0,0.0,0.0,0.0,0.0,0.0,0.0,0.0,0.0,0.0,0.0,0.0,0.0,0.0,0.0,0.0,0.0,0.0,0.0,0.0,0.0,0.0,0.0,0.0,0.0,0.0,0.0,0.0,0.0,0.0,0.0,0.0,0.0,0.0,0.0,0.0,0.0,0.0,0.0,0.0,0.0,0.0,0.0,0.0,0.0,0.0,0.0,0.0,0.0,0.0,0.0,0.0,0.0,0.0,0.0,0.0,0.0,0.0,0.0,0.0,0.0,0.0,0.0,0.0,0.0,0.0,0.0,0.0,0.0,0.0,0.0,0.0,0.0,0.0,0.0,0.0,0.0,0.0,0.0,0.0,0.0,0.0,0.0,0.0,0.0,0.0,0.0,0.0,0.0,0.0,0.0,0.0,0.0,0.0,0.0,0.0,0.0,0.0,0.0,0.0,0.0,0.0,0.0,0.0,0.0,0.0,0.0,0.0,0.0,0.0,0.0,0.0,0.0,0.0,0.0,0.0,0.0,0.0,0.0,0.0,0.0,0.0,0.0,0.0,0.0,0.0,0.0,0.0,0.0,0.0,0.0,0.0,0.0,0.0,0.0,0.0,0.0,0.0,0.0,0.0,0.0,0.0,0.0,0.0,0.0,0.0,0.0,0.0,0.0,0.0,0.0,0.0,0.0,0.0,0.0,0.0,0.0,0.0,0.0,0.0,0.0,0.0,0.0,0.0,0.0,0.0,0.0,0.0,0.0,0.0,0.0,0.0,0.0,0.0,0.0,0.0,0.0,0.0,0.0,0.0,0.0,0.0,0.0,0.0,0.0,0.0,0.0,0.0,0.0,0.0,0.0,0.0,0.0,0.0,0.0,0.0,0.0,0.0,0.0,0.0,0.0,0.0,0.0,0.0,0.0,0.0,0.0,0.0,0.0,0.0,0.0,0.0,0.0,0.0,0.0,0.0,0.0,0.0,0.0,0.0,0.0,0.0,0.0,0.0,0.0,0.0,0.0,0.0,0.0,0.0,0.0,0.0,0.0,0.0,0.0,0.0,0.0,0.0,0.0,0.0,0.0,0.0,0.0,0.0,0.0,0.0,0.0,0.0,0.0,0.0,0.0,0.0,0.0,0.0,0.0,0.0,0.0,0.0,0.0,0.0,0.0,0.0,0.0,0.0,0.0,0.0,0.0,0.0,0.0,0.0,0.0,0.0,0.0,0.0,0.0,0.0,0.0,0.0,0.0,0.0,0.0,0.0,0.0,0.0,0.0,0.0,0.0,0.0,0.0,0.0,0.0,0.0,0.0,0.0,0.0,0.0,0.0,0.0,0.0,0.0,0.0,0.0,0.0,0.0,0.0,0.0,0.0,0.0,0.0,0.0,0.0,0.0,0.0,0.0,0.0,0.0,0.0,0.0,0.0,0.0,0.0,0.0,0.0,0.0,0.0,0.0,0.0,0.0,0.0,0.0,0.0,0.0,0.0,0.0,0.0,0.0,0.0,0.0,0.0,0.0,0.0,0.0,0.0,0.0,0.0,0.0,0.0,0.0,0.0,0.0,0.0,0.0,0.0,0.0,0.0,0.0,0.0,0.0,0.0,0.0,0.0,0.0,0.0,0.0,0.0,0.0,0.0,0.0,0.0,0.0,0.0,0.0,0.0,0.0,0.0,0.0,0.0,0.0,0.0,0.0,0.0,0.0,0.0,0.0,0.0,0.0,0.0,0.0,0.0,0.0,0.0,0.0,0.0,0.0,0.0,0.0,0.0,0.0,0.0,0.0,0.0,0.0,0.0,0.0,0.0,0.0,0.0,0.0,0.0,0.0,0.0,0.0,0.0,0.0,0.0,0.0,0.0,0.0,0.0,0.0,0.0,0.0,0.0,0.0,0.0,0.0,0.0,0.0,0.0,0.0,-0.7796,0.0,0.0,0.0,0.0,0.0,0.0,0.0,0.0,0.0,0.0,0.0,0.0,0.0,0.0,0.0,0.0,0.0,0.0,0.0,0.0,0.0,0.0,0.0,0.0,0.0,0.0,0.0,0.0,0.0,0.0,0.0,0.0,0.0,0.0,0.0,0.0,0.0,0.0,0.0,0.0,0.0,0.0,0.0,0.0,0.0,0.0,0.0,0.0,0.0,0.0,0.0,0.0,0.0,0.0,0.0,0.0,0.0,0.0,0.0,0.0,0.0,0.0,0.0,0.0,0.0,0.0,0.0,0.0,0.0,0.0,0.0,0.0,0.0,0.0,0.0,0.0,0.0,0.0,0.0,0.0,0.0,0.0,0.0,0.0,0.0,0.0,0.0,0.0,0.0,0.0,0.0,0.0,0.0,0.0,0.0,0.0,0.0,0.0,0.0,0.0,0.0,0.0,0.0,0.0,0.0,0.0,0.0,0.0,0.0,0.0,-0.9361,-0.968,-0.9429,-0.908,-0.8704,0.0,0.0,0.0,0.0,0.0,0.0,0.0,0.0,0.0,0.0,0.0,0.0,0.0,0.0,0.0,0.0,0.0,0.0,0.0,0.0,0.0,0.0,0.0,0.0,0.0,0.0,0.0,0.0,0.0,0.0,0.0,0.0,0.0,0.0,0.0,0.0,0.0,0.0,0.0,0.0,0.0,0.0,0.0,0.0,0.0,0.0,0.0,0.0,0.0,0.0,0.0,0.0,0.0,0.0,0.0,0.0,0.0,0.0,0.0,0.0,0.0,0.0,0.0,0.0,0.0,0.0,0.0,0.0,0.0,0.0,0.0,0.0,0.0,0.0,0.0,0.0,0.0,0.0,0.0,0.0,0.0,0.0,0.0,0.0,0.0,0.0,0.0,0.0,0.0,0.0,0.0,0.0,0.0,0.0,0.0,0.0,0.0,0.0,0.0,0.0,0.0,0.0,0.0,0.0,0.0,0.0,0.0,0.0,0.0,0.0,0.0,0.0,-1.0807,-1.061,-1.0298,0.0,0.0,0.0,0.0,0.0,0.0,0.0,0.0,0.0,0.0,0.0,0.0,0.0,0.0,0.0,0.0,0.0,0.0,0.0,0.0,0.0,0.0,0.0,0.0,0.0,0.0,0.0,0.0,0.0,0.0,0.0,0.0,0.0,0.0,0.0,0.0,0.0,0.0,0.0,0.0,0.0,0.0,0.0,0.0,0.0,0.0,0.0,0.0,0.0,0.0,0.0,0.0,0.0,0.0,0.0,0.0,0.0,0.0,0.0,0.0,0.0,0.0,0.0,0.0,0.0,0.0,0.0,0.0,0.0,0.0,0.0,0.0,0.0,0.0,0.0,0.0,0.0,0.0,0.0,0.0,0.0,0.0,0.0,0.0,0.0,0.0,0.0,0.0,0.0,0.0,0.0,0.0,0.0,0.0,0.0,0.0,0.0,0.0,0.0,0.0,0.0,0.0,0.0,0.0,0.0,0.0,0.0,0.0,0.0,0.0,-1.1499,-1.2274,-1.2978,0.0,-1.3392,0.0,0.0,0.0,0.0,0.0,0.0,0.0,0.0,0.0,0.0,0.0,0.0,0.0,0.0,0.0,0.0,0.0,0.0,0.0,0.0,0.0,0.0,0.0,0.0,0.0,0.0,0.0,0.0,0.0,0.0,0.0,0.0,0.0,0.0,0.0,0.0,0.0,0.0,0.0,0.0,0.0,0.0,0.0,0.0,0.0,0.0,0.0,0.0,0.0,0.0,0.0,0.0,0.0,0.0,0.0,0.0,0.0,0.0,0.0,0.0,0.0,0.0,0.0,0.0,0.0,0.0,0.0,0.0,0.0,0.0,0.0,0.0,0.0,0.0,0.0,0.0,0.0,0.0,0.0,0.0,0.0,0.0,0.0,0.0,0.0,0.0,0.0,0.0,0.0,0.0,0.0,0.0,0.0,0.0,0.0,0.0,0.0,0.0,0.0,0.0,0.0,0.0,0.0,0.0,0.0,0.0,0.0,0.0,0.0,0.0,-1.2481,-1.3555,-1.3689,-1.3711,0.0,0.0,0.0,0.0,0.0,0.0,0.0,0.0,0.0,0.0,0.0,0.0,0.0,0.0,0.0,0.0,0.0,0.0,0.0,0.0,0.0,0.0,0.0,0.0,0.0,0.0,0.0,0.0,0.0,0.0,0.0,0.0,0.0,0.0,0.0,0.0,0.0,0.0,0.0,0.0,0.0,0.0,0.0,0.0,0.0,0.0,0.0,0.0,0.0,0.0,0.0,0.0,0.0,0.0,0.0,0.0,0.0,0.0,0.0,0.0,0.0,0.0,0.0,0.0,0.0,0.0,0.0,0.0,0.0,0.0,0.0,0.0,0.0,0.0,0.0,0.0,0.0,0.0,0.0,0.0,0.0,0.0,0.0,0.0,0.0,0.0,0.0,0.0,0.0,0.0,0.0,0.0,0.0,0.0,0.0,0.0,0.0,0.0,0.0,0.0,0.0,0.0,0.0,0.0,0.0,0.0,0.0,0.0,0.0,0.0,-1.2844,-1.3477,-1.459,-1.4108,-1.36,-1.3271,0.0,0.0,0.0,0.0,0.0,0.0,0.0,0.0,0.0,0.0,0.0,0.0,0.0,0.0,0.0,0.0,0.0,0.0,0.0,0.0,0.0,0.0,0.0,0.0,0.0,0.0,0.0,0.0,0.0,0.0,0.0,0.0,0.0,0.0,0.0,0.0,0.0,0.0,0.0,0.0,0.0,0.0,0.0,0.0,0.0,0.0,0.0,0.0,0.0,0.0,0.0,0.0,0.0,0.0,0.0,0.0,0.0,0.0,0.0,0.0,0.0,0.0,0.0,0.0,0.0,0.0,0.0,0.0,0.0,0.0,0.0,0.0,0.0,0.0,0.0,0.0,0.0,0.0,0.0,0.0,0.0,0.0,0.0,0.0,0.0,0.0,0.0,0.0,0.0,0.0,0.0,0.0,0.0,0.0,0.0,0.0,0.0,0.0,0.0,0.0,0.0,0.0,0.0,0.0,0.0,0.0,0.0,0.0,-1.4934,-1.4352,-1.4476,-1.5712,-1.4213,-1.3553,0.0,0.0,0.0,0.0,0.0,0.0,0.0,0.0,0.0,0.0,0.0,0.0,0.0,0.0,0.0,0.0,0.0,0.0,0.0,0.0,0.0,0.0,0.0,0.0,0.0,0.0,0.0,0.0,0.0,0.0,0.0,0.0,0.0,0.0,0.0,0.0,0.0,0.0,0.0,0.0,0.0,0.0,0.0,0.0,0.0,0.0,0.0,0.0,0.0,0.0,0.0,0.0,0.0,0.0,0.0,0.0,0.0,0.0,0.0,0.0,0.0,0.0,0.0,0.0,0.0,0.0,0.0,0.0,0.0,0.0,0.0,0.0,0.0,0.0,0.0,0.0,0.0,0.0,0.0,0.0,0.0,0.0,0.0,0.0,0.0,0.0,0.0,0.0,0.0,0.0,0.0,0.0,0.0,0.0,0.0,0.0,0.0,0.0,0.0,0.0,0.0,0.0,0.0,0.0,0.0,0.0,0.0,0.0,0.0,-1.2917,-1.3574,-1.4623,-1.5978,-1.4627,-1.4193,0.0,0.0,0.0,0.0,0.0,0.0,0.0,0.0,0.0,0.0,0.0,0.0,0.0,0.0,0.0,0.0,0.0,0.0,0.0,0.0,0.0,0.0,0.0,0.0,0.0,0.0,0.0,0.0,0.0,0.0,0.0,0.0,0.0,0.0,0.0,0.0,0.0,0.0,0.0,0.0,0.0,0.0,0.0,0.0,0.0,0.0,0.0,0.0,0.0,0.0,0.0,0.0,0.0,0.0,0.0,0.0,0.0,0.0,0.0,0.0,0.0,0.0,0.0,0.0,0.0,0.0,0.0,0.0,0.0,0.0,0.0,0.0,0.0,0.0,0.0,0.0,0.0,0.0,0.0,0.0,0.0,0.0,0.0,0.0,0.0,0.0,0.0,0.0,0.0,0.0,0.0,0.0,0.0,0.0,0.0,0.0,0.0,0.0,0.0,0.0,0.0,0.0,0.0,0.0,0.0,0.0,0.0,0.0,0.0,-1.2739,0.0,-1.5493,-1.5942,-1.4824,-1.4207,0.0,0.0,0.0,0.0,0.0,0.0,0.0,0.0,0.0,0.0,0.0,0.0,0.0,0.0,0.0,0.0,0.0,0.0,0.0,0.0,0.0,0.0,0.0,0.0,0.0,0.0,0.0,0.0,0.0,0.0,0.0,0.0,0.0,0.0,0.0,0.0,0.0,0.0,0.0,0.0,0.0,0.0,0.0,0.0,0.0,0.0,0.0,0.0,0.0,0.0,0.0,0.0,0.0,0.0,0.0,0.0,0.0,0.0,0.0,0.0,0.0,0.0,0.0,0.0,0.0,0.0,0.0,0.0,0.0,0.0,0.0,0.0,0.0,0.0,0.0,0.0,0.0,0.0,0.0,0.0,0.0,0.0,0.0,0.0,0.0,0.0,0.0,0.0,0.0,0.0,0.0,0.0,0.0,0.0,0.0,0.0,0.0,0.0,0.0,0.0,0.0,0.0,0.0,0.0,0.0,0.0,0.0,0.0,-1.2811,-1.4847,-1.6735,-1.7139,-1.5878,-1.4808,-1.3647,0.0,0.0,0.0,0.0,0.0,0.0,0.0,0.0,0.0,0.0,0.0,0.0,0.0,0.0,0.0,0.0,0.0,0.0,0.0,0.0,0.0,0.0,0.0,0.0,0.0,0.0,0.0,0.0,0.0,0.0,0.0,0.0,0.0,0.0,0.0,0.0,0.0,0.0,0.0,0.0,0.0,0.0,0.0,0.0,0.0,0.0,0.0,0.0,0.0,0.0,0.0,0.0,0.0,0.0,0.0,0.0,0.0,0.0,0.0,0.0,0.0,0.0,0.0,0.0,0.0,0.0,0.0,0.0,0.0,0.0,0.0,0.0,0.0,0.0,0.0,0.0,0.0,0.0,0.0,0.0,0.0,0.0,0.0,0.0,0.0,0.0,0.0,0.0,0.0,0.0,0.0,0.0,0.0,0.0,0.0,0.0,0.0,0.0,0.0,0.0,0.0,0.0,0.0,0.0,0.0,0.0,0.0,0.0,0.0,-1.3804,-1.5375,-1.6885,-1.7916,-1.5584,-1.4774,0.0,0.0,0.0,0.0,0.0,0.0,0.0,0.0,0.0,0.0,0.0,0.0,0.0,0.0,0.0,0.0,0.0,0.0,0.0,0.0,0.0,0.0,0.0,0.0,0.0,0.0,0.0,0.0,0.0,0.0,0.0,0.0,0.0,0.0,0.0,0.0,0.0,0.0,0.0,0.0,0.0,0.0,0.0,0.0,0.0,0.0,0.0,0.0,0.0,0.0,0.0,0.0,0.0,0.0,0.0,0.0,0.0,0.0,0.0,0.0,0.0,0.0,0.0,0.0,0.0,0.0,0.0,0.0,0.0,0.0,0.0,0.0,0.0,0.0,0.0,0.0,0.0,0.0,0.0,0.0,0.0,0.0,0.0,0.0,0.0,0.0,0.0,0.0,0.0,0.0,0.0,0.0,0.0,0.0,0.0,0.0,0.0,0.0,0.0,0.0,0.0,0.0,0.0,0.0,0.0,0.0,0.0,0.0,0.0,-1.6117,-1.7066,-1.8055,-1.8919,-1.6517,-1.5552,-1.6179,0.0,0.0,0.0,0.0,0.0,0.0,0.0,0.0,0.0,0.0,0.0,0.0,0.0,0.0,0.0,0.0,0.0,0.0,0.0,0.0,0.0,0.0,0.0,0.0,0.0,0.0,0.0,0.0,0.0,0.0,0.0,0.0,0.0,0.0,0.0,0.0,0.0,0.0,0.0,0.0,0.0,0.0,0.0,0.0,0.0,0.0,0.0,0.0,0.0,0.0,0.0,0.0,0.0,0.0,0.0,0.0,0.0,0.0,0.0,0.0,0.0,0.0,0.0,0.0,0.0,0.0,0.0,0.0,0.0,0.0,0.0,0.0,0.0,0.0,0.0,0.0,0.0,0.0,0.0,0.0,0.0,0.0,0.0,0.0,0.0,0.0,0.0,0.0,0.0,0.0,0.0,0.0,0.0,0.0,0.0,0.0,0.0,0.0,0.0,0.0,0.0,0.0,0.0,0.0,0.0,0.0,0.0,0.0,-2.078,-2.1347,-2.0859,-1.9141,-1.7654,-1.608,0.0,0.0,0.0,0.0,0.0,0.0,0.0,0.0,0.0,0.0,0.0,0.0,0.0,0.0,0.0,0.0,0.0,0.0,0.0,0.0,0.0,0.0,0.0,0.0,0.0,0.0,0.0,0.0,0.0,0.0,0.0,0.0,0.0,0.0,0.0,0.0,0.0,0.0,0.0,0.0,0.0,0.0,0.0,0.0,0.0,0.0,0.0,0.0,0.0,0.0,0.0,0.0,0.0,0.0,0.0,0.0,0.0,0.0,0.0,0.0,0.0,0.0,0.0,0.0,0.0,0.0,0.0,0.0,0.0,0.0,0.0,0.0,0.0,0.0,0.0,0.0,0.0,0.0,0.0,0.0,0.0,0.0,0.0,0.0,0.0,0.0,0.0,0.0,0.0,0.0,0.0,0.0,0.0,0.0,0.0,0.0,0.0,0.0,0.0,0.0,0.0,0.0,0.0,0.0,0.0,0.0,0.0,0.0,0.0,-2.2119,-2.3826,-2.432,-2.3501,-1.9885,-1.7872,0.0,0.0,0.0,0.0,0.0,0.0,0.0,0.0,0.0,0.0,0.0,0.0,0.0,0.0,0.0,0.0,0.0,0.0,0.0,0.0,0.0,0.0,0.0,0.0,0.0,0.0,0.0,0.0,0.0,0.0,0.0,0.0,0.0,0.0,0.0,0.0,0.0,0.0,0.0,0.0,0.0,0.0,0.0,0.0,0.0,0.0,0.0,0.0,0.0,0.0,0.0,0.0,0.0,0.0,0.0,0.0,0.0,0.0,0.0,0.0,0.0,0.0,0.0,0.0,0.0,0.0,0.0,0.0,0.0,0.0,0.0,0.0,0.0,0.0,0.0,0.0,0.0,0.0,0.0,0.0,0.0,0.0,0.0,0.0,0.0,0.0,0.0,0.0,0.0,0.0,0.0,0.0,0.0,0.0,0.0,0.0,0.0,0.0,0.0,0.0,0.0,0.0,0.0,0.0,0.0,0.0,0.0,0.0,-2.2341,-2.4547,-2.5986,-2.6734,-2.6702,-2.275,-2.0089,0.0,0.0,0.0,0.0,0.0,0.0,0.0,0.0,0.0,0.0,0.0,0.0,0.0,0.0,0.0,0.0,0.0,0.0,0.0,0.0,0.0,0.0,0.0,0.0,0.0,0.0,0.0,0.0,0.0,0.0,0.0,0.0,0.0,0.0,0.0,0.0,0.0,0.0,0.0,0.0,0.0,0.0,0.0,0.0,0.0,0.0,0.0,0.0,0.0,0.0,0.0,0.0,0.0,0.0,0.0,0.0,0.0,0.0,0.0,0.0,0.0,0.0,0.0,0.0,0.0,0.0,0.0,0.0,0.0,0.0,0.0,0.0,0.0,0.0,0.0,0.0,0.0,0.0,0.0,0.0,0.0,0.0,0.0,0.0,0.0,0.0,0.0,0.0,0.0,0.0,0.0,0.0,0.0,0.0,0.0,0.0,0.0,0.0,0.0,0.0,0.0,0.0,0.0,0.0,0.0,0.0,0.0,0.0,-2.4354,-2.7195,-2.7776,-2.8258,-2.8609,-2.5384,-2.2309,0.0,0.0,0.0,0.0,0.0,0.0,0.0,0.0,0.0,0.0,0.0,0.0,0.0,0.0,0.0,0.0,0.0,0.0,0.0,0.0,0.0,0.0,0.0,0.0,0.0,0.0,0.0,0.0,0.0,0.0,0.0,0.0,0.0,0.0,0.0,0.0,0.0,0.0,0.0,0.0,0.0,0.0,0.0,0.0,0.0,0.0,0.0,0.0,0.0,0.0,0.0,0.0,0.0,0.0,0.0,0.0,0.0,0.0,0.0,0.0,0.0,0.0,0.0,0.0,0.0,0.0,0.0,0.0,0.0,0.0,0.0,0.0,0.0,0.0,0.0,0.0,0.0,0.0,0.0,0.0,0.0,0.0,0.0,0.0,0.0,0.0,0.0,0.0,0.0,0.0,0.0,0.0,0.0,0.0,0.0,0.0,0.0,0.0,0.0,0.0,0.0,0.0,0.0,0.0,0.0,0.0,0.0,0.0,-2.4604,-2.7118,-2.7704,-2.8043,-2.8144,-2.5051,-2.2546,0.0,0.0,0.0,0.0,0.0,0.0,0.0,0.0,0.0,0.0,0.0,0.0,0.0,0.0,0.0,0.0,0.0,0.0,0.0,0.0,0.0,0.0,0.0,0.0,0.0,0.0,0.0,0.0,0.0,0.0,0.0,0.0,0.0,0.0,0.0,0.0,0.0,0.0,0.0,0.0,0.0,0.0,0.0,0.0,0.0,0.0,0.0,0.0,-3.8824,0.0,0.0,0.0,0.0,0.0,0.0,0.0,0.0,0.0,0.0,0.0,0.0,0.0,0.0,0.0,0.0,0.0,0.0,0.0,0.0,0.0,0.0,0.0,0.0,0.0,0.0,0.0,0.0,0.0,0.0,0.0,0.0,0.0,0.0,0.0,0.0,0.0,0.0,0.0,0.0,0.0,0.0,0.0,0.0,0.0,0.0,0.0,0.0,0.0,0.0,0.0,0.0,0.0,0.0,0.0,0.0,0.0,0.0,0.0,-2.5136,-2.7152,-2.7731,-2.7944,-2.7928,-2.5892,-2.3807,0.0,0.0,0.0,0.0,0.0,0.0,0.0,0.0,0.0,0.0,0.0,0.0,0.0,0.0,0.0,0.0,0.0,0.0,0.0,0.0,0.0,0.0,0.0,0.0,0.0,0.0,0.0,0.0,0.0,0.0,0.0,0.0,0.0,0.0,0.0,0.0,0.0,0.0,0.0,0.0,0.0,0.0,0.0,0.0,0.0,0.0,0.0,0.0,0.0,0.0,0.0,0.0,0.0,0.0,0.0,0.0,0.0,0.0,0.0,0.0,0.0,0.0,0.0,0.0,0.0,0.0,0.0,0.0,0.0,0.0,0.0,0.0,0.0,0.0,0.0,0.0,0.0,0.0,0.0,0.0,0.0,0.0,0.0,0.0,0.0,0.0,0.0,0.0,0.0,0.0,0.0,0.0,0.0,0.0,0.0,0.0,0.0,0.0,0.0,0.0,0.0,0.0,0.0,0.0,0.0,0.0,0.0,-2.3998,-2.5661,-2.7425,-2.7767,-2.795,-2.8008,-2.6919,-2.4989,-2.2424,0.0,0.0,0.0,0.0,0.0,0.0,0.0,0.0,0.0,0.0,0.0,0.0,0.0,0.0,0.0,0.0,0.0,0.0,0.0,0.0,0.0,0.0,0.0,0.0,0.0,0.0,0.0,0.0,0.0,0.0,0.0,0.0,0.0,0.0,0.0,0.0,0.0,0.0,-3.4522,-3.6998,0.0,0.0,0.0,0.0,0.0,0.0,0.0,0.0,-4.117,0.0,0.0,0.0,0.0,0.0,0.0,0.0,0.0,0.0,0.0,0.0,0.0,0.0,0.0,0.0,0.0,0.0,0.0,0.0,0.0,0.0,0.0,0.0,0.0,0.0,0.0,0.0,0.0,0.0,0.0,0.0,0.0,0.0,0.0,0.0,0.0,0.0,0.0,0.0,0.0,0.0,0.0,0.0,0.0,0.0,0.0,0.0,0.0,0.0,0.0,0.0,0.0,0.0,0.0,0.0,0.0,-2.5034,-2.4269,-2.5312,-2.8238,-2.8079,-2.7883,-2.7848,-2.6563,-2.4716,-2.2338,0.0,0.0,0.0,0.0,0.0,0.0,0.0,0.0,0.0,0.0,0.0,0.0,0.0,0.0,0.0,0.0,0.0,0.0,0.0,0.0,0.0,0.0,0.0,0.0,0.0,0.0,0.0,0.0,0.0,0.0,0.0,0.0,0.0,0.0,0.0,0.0,0.0,0.0,0.0,-4.081,-4.185,0.0,0.0,0.0,0.0,0.0,0.0,0.0,0.0,-4.1987,0.0,0.0,0.0,0.0,0.0,0.0,0.0,0.0,0.0,0.0,0.0,0.0,0.0,0.0,0.0,0.0,0.0,0.0,0.0,0.0,0.0,0.0,0.0,0.0,0.0,0.0,0.0,0.0,0.0,0.0,0.0,0.0,0.0,0.0,0.0,0.0,0.0,0.0,0.0,0.0,0.0,0.0,0.0,0.0,0.0,0.0,0.0,0.0,0.0,0.0,0.0,0.0,0.0,0.0,0.0,-2.4155,-2.4967,-2.6285,-2.8119,-2.8191,-2.8122,-2.7857,-2.6341,-2.455,0.0,0.0,0.0,0.0,0.0,0.0,0.0,0.0,0.0,0.0,0.0,0.0,0.0,0.0,0.0,0.0,0.0,0.0,0.0,0.0,0.0,0.0,0.0,0.0,0.0,0.0,0.0,0.0,0.0,0.0,0.0,0.0,0.0,0.0,0.0,0.0,0.0,0.0,0.0,0.0,-4.29,-4.3599,-4.2016,0.0,0.0,0.0,0.0,0.0,0.0,-4.2695,-4.3631,0.0,0.0,0.0,0.0,0.0,0.0,0.0,0.0,0.0,0.0,0.0,0.0,0.0,0.0,0.0,0.0,0.0,0.0,0.0,0.0,0.0,0.0,0.0,0.0,0.0,0.0,0.0,0.0,0.0,0.0,0.0,0.0,0.0,0.0,0.0,0.0,0.0,0.0,0.0,0.0,0.0,0.0,0.0,0.0,0.0,0.0,0.0,0.0,0.0,0.0,0.0,0.0,0.0,0.0,0.0,-2.2945,-2.5265,-2.7007,-2.7971,-2.8351,-2.8303,-2.7865,-2.6256,-2.4658,0.0,0.0,0.0,0.0,0.0,0.0,0.0,0.0,0.0,0.0,0.0,0.0,0.0,0.0,0.0,0.0,0.0,0.0,0.0,0.0,0.0,0.0,0.0,0.0,0.0,0.0,0.0,0.0,0.0,0.0,0.0,0.0,0.0,0.0,0.0,0.0,0.0,0.0,0.0,0.0,0.0,-4.5035,-4.3349,-4.2071,0.0,0.0,0.0,0.0,-4.177,-4.4635,0.0,0.0,0.0,0.0,0.0,0.0,0.0,0.0,0.0,0.0,0.0,0.0,0.0,0.0,0.0,0.0,0.0,0.0,0.0,0.0,0.0,0.0,0.0,0.0,0.0,0.0,0.0,0.0,0.0,0.0,0.0,0.0,0.0,0.0,0.0,0.0,0.0,0.0,0.0,0.0,0.0,0.0,0.0,0.0,0.0,0.0,0.0,0.0,0.0,0.0,0.0,0.0,0.0,0.0,0.0,0.0,-2.2863,-2.4402,-2.6181,-2.8311,-2.851,-2.8282,-2.7735,-2.6647,-2.4931,0.0,0.0,0.0,0.0,0.0,0.0,0.0,0.0,0.0,0.0,0.0,0.0,0.0,0.0,0.0,0.0,0.0,0.0,0.0,0.0,0.0,0.0,0.0,0.0,0.0,0.0,0.0,0.0,0.0,0.0,0.0,0.0,0.0,0.0,0.0,0.0,0.0,0.0,0.0,0.0,0.0,-4.6747,-4.3544,-4.3628,-4.3755,0.0,0.0,-4.5306,-4.5546,-4.7655,0.0,0.0,0.0,0.0,0.0,0.0,0.0,0.0,0.0,0.0,0.0,0.0,0.0,0.0,0.0,0.0,0.0,0.0,0.0,0.0,0.0,0.0,0.0,0.0,0.0,0.0,0.0,0.0,0.0,0.0,0.0,0.0,0.0,0.0,0.0,0.0,0.0,0.0,0.0,0.0,0.0,0.0,0.0,0.0,0.0,0.0,0.0,0.0,0.0,0.0,0.0,0.0,0.0,0.0,0.0,-2.0561,-2.2414,-2.4495,-2.6366,-2.7981,-2.8065,-2.7957,-2.7717,-2.5516,-2.3616,0.0,0.0,0.0,0.0,0.0,0.0,0.0,0.0,0.0,0.0,0.0,0.0,0.0,0.0,0.0,0.0,0.0,0.0,0.0,0.0,0.0,0.0,0.0,0.0,0.0,0.0,0.0,0.0,0.0,0.0,0.0,0.0,0.0,0.0,0.0,0.0,0.0,0.0,0.0,0.0,0.0,0.0,-4.49,-4.5305,0.0,0.0,0.0,-4.6201,-4.6792,0.0,0.0,0.0,0.0,0.0,0.0,0.0,0.0,0.0,0.0,0.0,0.0,0.0,0.0,0.0,0.0,0.0,0.0,0.0,0.0,0.0,0.0,0.0,0.0,0.0,0.0,0.0,0.0,0.0,0.0,0.0,0.0,0.0,0.0,0.0,0.0,0.0,0.0,0.0,0.0,0.0,0.0,0.0,0.0,0.0,0.0,0.0,0.0,0.0,0.0,0.0,0.0,0.0,0.0,0.0,0.0,0.0,-2.1878,-2.4388,-2.631,-2.7601,-2.7536,-2.738,-2.723,-2.4747,0.0,0.0,0.0,0.0,0.0,0.0,0.0,0.0,0.0,0.0,0.0,0.0,0.0,0.0,0.0,0.0,0.0,0.0,0.0,0.0,0.0,0.0,0.0,0.0,0.0,0.0,0.0,-3.1685,0.0,0.0,0.0,0.0,0.0,0.0,0.0,0.0,0.0,0.0,0.0,0.0,0.0,0.0,-4.7058,-4.5893,-4.6802,-4.7841,0.0,0.0,-4.7498,-4.8022,-4.8189,-4.7636,0.0,0.0,0.0,0.0,0.0,0.0,0.0,0.0,0.0,0.0,0.0,0.0,0.0,0.0,0.0,0.0,0.0,0.0,0.0,0.0,0.0,0.0,0.0,0.0,0.0,0.0,0.0,0.0,0.0,0.0,0.0,0.0,0.0,0.0,0.0,0.0,0.0,0.0,0.0,0.0,0.0,0.0,0.0,0.0,0.0,0.0,0.0,0.0,0.0,0.0,0.0,0.0,0.0,0.0,-1.9767,-2.1059,-2.3379,-2.5527,-2.7306,-2.7131,-2.6724,-2.6103,-2.4932,-2.3368,0.0,0.0,0.0,0.0,0.0,0.0,0.0,0.0,0.0,0.0,0.0,0.0,0.0,0.0,0.0,0.0,0.0,0.0,0.0,0.0,0.0,0.0,0.0,0.0,0.0,0.0,0.0,0.0,0.0,0.0,0.0,0.0,0.0,0.0,0.0,0.0,0.0,0.0,0.0,0.0,0.0,-4.5862,-4.578,-4.7983,-5.0213,0.0,-5.1513,-5.0752,-5.009,-5.1933,-5.1308,-4.4922,0.0,0.0,0.0,0.0,0.0,0.0,0.0,0.0,0.0,0.0,0.0,0.0,0.0,0.0,0.0,0.0,0.0,0.0,0.0,0.0,0.0,0.0,0.0,0.0,0.0,0.0,0.0,0.0,0.0,0.0,0.0,0.0,0.0,0.0,0.0,0.0,0.0,0.0,0.0,0.0,0.0,0.0,0.0,0.0,0.0,0.0,0.0,0.0,0.0,0.0,0.0,0.0,0.0,-2.0111,-2.1694,-2.3513,-2.5313,-2.6955,-2.6336,-2.5936,-2.6,-2.4384,-2.2942,0.0,0.0,0.0,0.0,0.0,0.0,0.0,0.0,0.0,0.0,0.0,0.0,0.0,0.0,0.0,0.0,0.0,0.0,0.0,0.0,0.0,0.0,0.0,0.0,0.0,0.0,0.0,0.0,-3.3868,-3.413,-3.4371,0.0,0.0,0.0,0.0,0.0,0.0,0.0,0.0,0.0,0.0,-4.6086,-4.6654,-4.8942,0.0,0.0,-5.1165,-5.1208,-5.0992,-5.0898,-5.0129,-4.7934,-4.6415,0.0,0.0,0.0,0.0,0.0,0.0,0.0,0.0,0.0,0.0,0.0,0.0,0.0,0.0,0.0,0.0,0.0,0.0,0.0,0.0,0.0,0.0,0.0,0.0,0.0,0.0,0.0,0.0,0.0,0.0,0.0,0.0,0.0,0.0,0.0,0.0,0.0,0.0,0.0,0.0,0.0,0.0,0.0,0.0,0.0,0.0,0.0,0.0,0.0,0.0,0.0,0.0,-2.0091,-2.1813,-2.3195,-2.4703,-2.6314,-2.5647,-2.5444,-2.5678,-2.4141,-2.2961,0.0,0.0,0.0,0.0,0.0,0.0,0.0,0.0,0.0,0.0,0.0,0.0,0.0,0.0,0.0,0.0,0.0,0.0,0.0,0.0,0.0,0.0,0.0,0.0,0.0,0.0,0.0,0.0,-3.4203,-3.448,-3.4593,0.0,0.0,0.0,0.0,0.0,0.0,0.0,0.0,0.0,0.0,-4.6394,-4.7212,-4.909,-5.0471,-5.077,-5.0675,-5.0685,-5.0994,-4.9617,-4.8392,-4.814,0.0,0.0,0.0,0.0,0.0,0.0,0.0,0.0,0.0,0.0,0.0,0.0,0.0,0.0,0.0,0.0,0.0,0.0,0.0,0.0,0.0,0.0,0.0,0.0,0.0,0.0,0.0,-1.5477,0.0,0.0,-1.7619,0.0,0.0,0.0,0.0,0.0,0.0,0.0,0.0,0.0,0.0,0.0,0.0,0.0,0.0,0.0,0.0,0.0,0.0,0.0,0.0,0.0,0.0,-1.9586,-2.1234,-2.2264,-2.3535,-2.5103,-2.5205,-2.5139,-2.5148,-2.4491,-2.3695,-2.2724,0.0,0.0,0.0,0.0,0.0,0.0,0.0,0.0,0.0,0.0,0.0,0.0,0.0,0.0,0.0,0.0,0.0,0.0,0.0,0.0,0.0,0.0,0.0,0.0,0.0,0.0,-3.4358,-3.4628,-3.4908,0.0,0.0,0.0,0.0,0.0,0.0,0.0,0.0,0.0,-4.0597,-4.3966,-4.6558,-4.7262,-4.8183,-4.9646,-5.2126,-5.0508,-4.9258,-5.0078,-4.869,-4.6668,0.0,0.0,0.0,0.0,0.0,0.0,0.0,0.0,0.0,0.0,0.0,0.0,0.0,0.0,0.0,0.0,0.0,0.0,0.0,0.0,0.0,0.0,0.0,0.0,0.0,0.0,0.0,-1.6796,-1.7504,0.0,0.0,0.0,0.0,0.0,0.0,0.0,0.0,0.0,0.0,0.0,-2.2087,-2.2227,0.0,0.0,0.0,0.0,0.0,0.0,0.0,0.0,0.0,0.0,0.0,0.0,-2.032,-2.2018,-2.2731,-2.393,-2.5595,-2.4985,-2.4826,-2.509,-2.4596,-2.405,-2.3622,0.0,0.0,0.0,0.0,0.0,0.0,0.0,0.0,0.0,0.0,0.0,0.0,0.0,0.0,0.0,0.0,0.0,0.0,0.0,0.0,0.0,0.0,0.0,0.0,0.0,-3.5366,0.0,0.0,0.0,0.0,0.0,0.0,0.0,0.0,0.0,0.0,-3.8332,-3.9296,-4.2257,-4.3775,-4.509,-4.647,-4.7411,-4.831,0.0,0.0,0.0,0.0,0.0,0.0,0.0,0.0,0.0,0.0,0.0,0.0,0.0,0.0,-4.6335,-4.2436,-4.0881,-4.0163,-4.0136,0.0,0.0,0.0,0.0,0.0,0.0,0.0,0.0,0.0,0.0,0.0,0.0,0.0,0.0,-1.7912,-1.8807,-1.8788,0.0,0.0,0.0,0.0,0.0,0.0,0.0,0.0,-2.2555,-2.2956,-2.319,-2.3377,-2.3111,-2.2438,-2.237,-2.1644,0.0,0.0,0.0,0.0,0.0,0.0,0.0,0.0,-2.0598,-2.2172,-2.2916,-2.396,-2.5262,-2.4859,-2.4754,-2.5023,-2.4736,-2.4369,-2.4082,-2.335,-2.2739,0.0,0.0,0.0,0.0,0.0,0.0,0.0,0.0,0.0,0.0,0.0,0.0,0.0,0.0,0.0,0.0,0.0,0.0,0.0,0.0,0.0,0.0,0.0,-3.5975,0.0,0.0,0.0,0.0,0.0,0.0,0.0,0.0,0.0,-3.9411,-3.9839,-4.1081,-4.3733,-4.3331,-4.3635,-4.5984,0.0,0.0,0.0,0.0,0.0,0.0,0.0,-4.6709,-4.6771,-4.6607,-4.638,-4.6205,-4.7261,-4.7767,-4.6599,0.0,0.0,-4.3372,-4.1946,-4.1116,-4.0731,-4.0198,-3.9882,-4.0246,-4.0882,-4.1092,0.0,0.0,0.0,0.0,-1.5477,0.0,0.0,0.0,-1.8103,-1.8914,0.0,-1.9329,0.0,0.0,0.0,0.0,-2.1312,-2.2045,0.0,0.0,-2.4103,-2.4438,-2.453,-2.4995,-2.4731,-2.3777,-2.4186,-2.3866,-2.2719,-2.1099,0.0,0.0,0.0,0.0,0.0,0.0,-2.0476,-2.1811,-2.2722,-2.3486,-2.4096,-2.4693,-2.4991,-2.5018,-2.5005,-2.4734,-2.4191,-2.4109,-2.3567,-2.2478,-2.2396,0.0,0.0,0.0,0.0,0.0,0.0,0.0,0.0,0.0,0.0,0.0,0.0,0.0,0.0,0.0,0.0,0.0,0.0,0.0,0.0,-3.6022,0.0,0.0,0.0,0.0,0.0,0.0,0.0,0.0,0.0,-3.9624,-3.9749,-4.1804,-4.3811,-4.4887,0.0,0.0,0.0,0.0,-4.5911,-4.841,-4.8085,-4.7826,-4.856,-4.7926,-4.7041,-4.6162,0.0,0.0,-4.6983,-4.7872,-4.8113,-4.671,-4.6396,-4.6126,-4.5698,-4.4768,-4.3905,-4.2843,-4.0843,-3.9786,-4.0855,-4.1878,-4.2178,-1.6274,0.0,0.0,0.0,0.0,-1.6648,-1.7367,-1.8103,-1.9344,-2.0163,-2.0787,-2.1095,0.0,0.0,0.0,0.0,0.0,0.0,-2.2139,-2.296,-2.3358,-2.4089,-2.5071,-2.4836,-2.4565,-2.4262,-2.4379,-2.3844,-2.277,-2.2913,-2.1867,-1.9745,0.0,0.0,0.0,0.0,-2.1773,-2.2908,-2.3138,-2.3473,-2.4123,-2.4286,-2.4584,-2.5005,-2.5005,-2.4924,-2.4761,-2.434,-2.4162,-2.4353,-2.3932,0.0,0.0,0.0,0.0,0.0,0.0,0.0,0.0,0.0,0.0,0.0,0.0,0.0,0.0,0.0,0.0,0.0,0.0,0.0,-3.5663,-3.6817,-3.7734,0.0,0.0,0.0,0.0,0.0,0.0,0.0,0.0,0.0,-4.1377,-4.2729,-4.42,0.0,0.0,-4.5171,-4.6167,-4.5561,-4.5492,-4.6829,-4.6788,0.0,-4.6853,-4.6635,-4.6336,-4.5916,-4.6708,-4.76,-4.8214,-4.8468,-4.8281,-4.727,-4.6887,-4.6431,-4.5462,-4.4188,-4.3118,-4.2405,-4.1134,-4.0455,-4.1342,-4.1884,-4.2009,-1.7393,-1.668,-1.635,-1.6553,-1.6975,-1.7562,-1.8451,-1.9598,-2.051,-2.1391,-2.2185,-2.1977,-2.1889,-2.1973,-2.1629,0.0,0.0,0.0,-2.2306,-2.3247,-2.3576,-2.4288,-2.5228,-2.4964,-2.4743,-2.476,-2.4467,-2.4112,-2.3607,-2.4003,-2.3247,-2.15,0.0,-2.1319,-2.1104,-2.1719,-2.2498,-2.3325,-2.3487,-2.3703,-2.4055,-2.4354,-2.4639,-2.4991,-2.5005,-2.5005,-2.5005,-2.4915,-2.4964,-2.5199,-2.5135,-2.4893,0.0,0.0,0.0,0.0,0.0,0.0,0.0,0.0,0.0,0.0,0.0,-3.1401,-3.193,0.0,0.0,0.0,-3.4484,-3.5662,-3.6933,-3.7977,0.0,0.0,0.0,0.0,0.0,0.0,0.0,-4.0238,-4.0563,-4.1245,-4.2676,-4.3361,-4.4348,-4.6066,-4.6869,-4.7065,-4.6381,0.0,-4.5425,-4.6608,-4.6744,-4.6702,-4.66,-4.655,-4.6477,-4.6263,-4.7601,-4.8451,-4.835,-4.7757,-4.7175,-4.7159,-4.7043,-4.6593,-4.5653,-4.4369,-4.3254,-4.2591,-4.1923,-4.1613,-4.1953,-4.1941,-4.1841,-1.8333,-1.8006,-1.747,-1.7644,-1.8284,-1.8621,-1.9639,-2.1042,-2.1578,-2.249,-2.3372,-2.2247,-2.2149,-2.2878,-2.1943,0.0,-2.1441,-2.2236,-2.3026,-2.3908,-2.43,-2.4771,-2.5262,-2.5206,-2.5154,-2.509,-2.4583,-2.4523,-2.4878,-2.4523,-2.4072,-2.3612,-2.3069,-2.2736,-2.2697,-2.2697,-2.2924,-2.3324,-2.3879,-2.4096,-2.4055,-2.4625,-2.4924,-2.4993,-2.4978,-2.5005,-2.5118,-2.5604,-2.5753,-2.5331,-2.5862,-2.5821,-2.5031,0.0,0.0,0.0,0.0,0.0,0.0,0.0,0.0,0.0,0.0,0.0,0.0,0.0,0.0,-3.4353,-3.6592,0.0,-3.8271,-3.9267,0.0,0.0,0.0,-4.0401,-4.0699,-4.0656,-4.0459,-4.0062,0.0,0.0,-4.3681,-4.3743,-4.4348,-4.6085,-4.7631,-4.806,-4.6612,-4.5698,-4.5679,-4.7107,-4.7358,-4.7301,-4.7057,-4.6991,-4.6892,-4.6831,-4.8642,-4.9121,-4.7804,-4.612,-4.5504,-4.6374,-4.6644,-4.6358,-4.5788,-4.4891,-4.4217,-4.3085,-4.2847,-4.2754,-4.2426,-4.2051,-4.17,-1.9031,-1.9004,-1.8991,-1.8791,-1.8473,-1.8904,-2.0063,-2.1603,-2.2108,-2.2646,-2.308,-2.2785,-2.2534,-2.2402,-2.2136,-2.1958,-2.1838,-2.264,-2.3156,-2.3414,-2.4133,-2.4796,-2.5302,-2.4859,-2.4633,-2.4566,-2.44,-2.4337,-2.4465,-2.4708,-2.4754,-2.4619,-2.4485,-2.4064,-2.3347,-2.3566,-2.4027,-2.4571,-2.4286,-2.3906,-2.3419,-2.4028,-2.4436,-2.4708,-2.4872,-2.523,-2.566,-2.5402,-2.5535,-2.6184,-2.6114,-2.6184,-2.6529,-2.6041,0.0,0.0,0.0,0.0,0.0,0.0,0.0,0.0,0.0,-3.1894,-3.2283,0.0,-3.3078,0.0,-3.6747,-3.8403,-3.8854,-3.9694,0.0,0.0,-4.096,-4.1157,-4.3269,-4.1865,-4.149,-4.3436,-4.289,-4.2971,-4.4504,-4.4114,-4.4348,-4.6046,-4.6632,-4.6983,-4.7178,-4.6549,-4.6108,-4.6501,-4.6527,-4.6417,-4.6407,-4.6205,-4.6166,-4.6471,-4.6596,-4.6565,-4.6548,-4.5255,-4.4336,-4.4843,-4.4532,-4.4214,-4.4064,-4.3688,-4.3451,-4.3104,-4.2969,-4.2789,-4.2454,-4.1735,-4.12,-1.9109,-1.9207,-1.9453,-1.9504,-1.9306,-1.9834,-2.1112,-2.3016,-2.2808,-2.325,-2.4231,-2.3593,-2.3007,-2.2411,-2.2605,-2.2707,-2.2863,-2.3482,-2.3946,-2.4172,-2.4873,-2.5308,-2.5264,-2.5176,-2.4999,-2.4741,-2.4641,-2.4593,-2.465,-2.4878,-2.5005,-2.5005,-2.5005,-2.473,-2.4182,-2.4392,-2.4679,-2.5005,-2.4679,-2.4354,-2.4042,-2.4463,-2.4806,-2.4983,-2.5092,-2.5336,-2.5657,-2.5532,-2.5726,-2.6253,-2.6658,-2.6941,-2.7013,-2.6945,-2.6841,0.0,0.0,0.0,0.0,0.0,0.0,0.0,0.0,0.0,0.0,0.0,-3.3844,-3.5375,-3.7832,-3.9395,-3.9464,-4.064,-4.1723,-4.2481,-4.2221,-4.2616,-4.423,-4.3264,-4.2966,-4.4163,-4.388,-4.3918,-4.4855,-4.4933,-4.521,-4.6178,-4.6276,-4.6432,-4.6861,-4.6576,-4.6289,-4.6265,-4.6171,-4.6059,-4.5978,-4.579,-4.5695,-4.5797,-4.5475,-4.5223,-4.5375,-4.47,-4.4055,-4.3949,-4.3656,-4.3371,-4.3286,-4.3013,-4.2804,-4.2858,-4.2777,-4.2561,-4.2287,-4.1505,-4.0961,-1.8993,-1.8827,-1.9463,-1.992,-2.0382,-2.1006,-2.2492,-2.4436,-2.3588,-2.4136,-2.5643,-2.4429,-2.3537,-2.2982,-2.3255,-2.3614,-2.4105,-2.4453,-2.4831,-2.5204,-2.5918,-2.5896,-2.5299,-2.5793,-2.5704,-2.5104,-2.5007,-2.5005,-2.5005,-2.5005,-2.5005,-2.5005,-2.4924,-2.4896,-2.4883,-2.4815,-2.4815,-2.4883,-2.4964,-2.4978,-2.4953,-2.5328,-2.5508,-2.5467,-2.5501,-2.5552,-2.5502,-2.5807,-2.5986,-2.5954,-2.7061,-2.7466,-2.6985,-2.7557,-2.7881,0.0,-2.8737,0.0,0.0,0.0,0.0,0.0,0.0,0.0,0.0,-3.4236,-3.4989,-3.6705,-3.9189,-4.0565,-4.0271,-4.1871,-4.3004,-4.3119,-4.3809,-4.4363,-4.4465,-4.4557,-4.4433,-4.3975,-4.4573,-4.5008,-4.5207,-4.5835,-4.6276,-4.6285,-4.6249,-4.6249,-4.6289,-4.6289,-4.6267,-4.6214,-4.6137,-4.6005,-4.5803,-4.5673,-4.5473,-4.5241,-4.5004,-4.4732,-4.4503,-4.4224,-4.3935,-4.3539,-4.3424,-4.3303,-4.3141,-4.2747,-4.2516,-4.2631,-4.2483,-4.2256,-4.1945,-4.1367,-4.0924,-1.8993,-1.8835,-1.9828,-2.0201,-2.0382,-2.1811,-2.3212,-2.4467,-2.4511,-2.4733,-2.5061,-2.4445,-2.4244,-2.4425,-2.4496,-2.4448,-2.4417,-2.4893,-2.4987,-2.4699,-2.5733,-2.5832,-2.5294,-2.5738,-2.5627,-2.5037,-2.4989,-2.5005,-2.5005,-2.5005,-2.5005,-2.4991,-2.453,-2.4286,-2.4272,0.0,0.0,0.0,-2.4761,-2.4872,-2.4708,-2.5232,-2.5451,-2.5426,-2.5964,0.0,-2.6115,-2.6057,-2.5877,-2.5531,-2.555,0.0,0.0,0.0,0.0,0.0,0.0,0.0,0.0,0.0,0.0,0.0,-3.4058,-3.4829,-3.5023,-3.609,-3.7034,-3.7644,-3.9526,-4.1035,-4.1882,-4.3033,-4.4074,-4.4743,-4.5113,-4.5332,-4.539,-4.4994,-4.4919,-4.5624,-4.525,-4.5226,-4.5909,-4.618,-4.6226,-4.6288,-4.6249,-4.6204,-4.6209,-4.6225,-4.6202,-4.6206,-4.6091,-4.5928,-4.567,-4.5539,-4.5362,-4.5071,-4.4675,-4.4452,-4.4346,-4.3689,-4.3314,-4.3316,-4.3286,-4.316,-4.3086,-4.2844,-4.2595,-4.2673,-4.227,-4.1815,-4.1542,-4.1202,-4.0879,-1.9115,-1.9279,-2.0011,-2.0464,0.0,-2.2501,-2.3887,-2.4787,-2.4988,-2.5284,-2.5495,-2.4978,-2.4826,-2.5052,-2.5052,-2.498,-2.4915,-2.5192,-2.5023,-2.4542,-2.5617,-2.5711,-2.4822,-2.5612,-2.5638,-2.5032,-2.5005,-2.5005,-2.4991,-2.4706,-2.4571,-2.4557,-2.3974,-2.3635,-2.3635,-2.3675,-2.3946,-2.4545,-2.5011,-2.5162,-2.5121,-2.563,-2.5994,-2.6139,-2.6484,0.0,0.0,0.0,0.0,0.0,0.0,0.0,0.0,-2.8014,0.0,-2.9575,-2.99,-3.0289,-3.0905,-3.1465,-3.2394,-3.3728,-3.5528,-3.6528,-3.6363,-3.7771,-3.8862,-3.929,-4.0896,-4.2253,-4.3099,-4.4069,-4.4819,-4.526,-4.5458,-4.5599,-4.565,-4.5459,-4.5541,-4.6033,-4.5811,-4.5753,-4.6217,-4.6249,-4.621,-4.6245,-4.6217,-4.6199,-4.6211,-4.6197,-4.6177,-4.6118,-4.6054,-4.5891,-4.5634,-4.5486,-4.5323,-4.4976,-4.4695,-4.4401,-4.4046,-4.361,-4.3311,-4.3303,-4.3178,-4.3105,-4.29,-4.2616,-4.232,-4.2115,-4.1675,-4.1342,-4.118,-4.0995,-4.0871,-1.9215,-1.9646,-2.0192,-2.0637,-2.1168,-2.3096,-2.4553,-2.5608,-2.5724,0.0,0.0,-2.5636,-2.5396,-2.5312,-2.5312,-2.5312,-2.53,-2.5216,-2.4939,-2.4518,-2.5432,-2.532,-2.4487,-2.5356,-2.5517,-2.5018,-2.4896,-2.4842,-2.4829,-2.4354,-2.4123,-2.4069,-2.3473,-2.308,-2.2931,-2.3607,-2.4191,-2.4776,-2.526,-2.5564,-2.5633,-2.6165,-2.6587,-2.6953,-2.7105,-2.7301,-2.7504,-2.7366,-2.7225,-2.713,-2.7636,-2.7984,-2.8139,-2.9134,-2.995,-3.046,-3.0965,-3.1411,-3.1763,-3.2059,-3.306,-3.5044,-3.7003,-3.7994,-3.7723,-3.897,-4.0015,-4.064,-4.2152,-4.3296,-4.3956,-4.4781,-4.5298,-4.5338,-4.5457,-4.5596,-4.5736,-4.5828,-4.5959,-4.6164,-4.6171,-4.6215,-4.6264,-4.6229,-4.6195,-4.6214,-4.6206,-4.6201,-4.6176,-4.6151,-4.6079,-4.5949,-4.5902,-4.5783,-4.5574,-4.538,-4.5225,-4.4876,-4.4674,-4.4383,-4.3841,-4.3631,-4.3461,-4.3178,-4.3142,-4.2995,-4.275,-4.2279,-4.1864,-4.1561,-4.1163,-4.0871,-4.0871,-4.0871,-4.0871,-1.9613,-1.9637,-2.0538,-2.0907,-2.1168,-2.3444,-2.5589,-2.7487,-2.7384,-2.6876,-2.6093,-2.6021,-2.5733,-2.5312,-2.5312,-2.5312,-2.5288,-2.4831,-2.459,-2.4494,-2.4715,-2.4697,-2.4413,-2.5043,-2.5213,-2.4991,-2.4503,-2.4245,-2.4232,-2.4109,-2.4123,-2.4042,-2.3486,-2.2674,-2.1808,-2.2742,-2.3482,-2.3917,-2.4928,-2.5592,-2.5853,-2.6496,-2.6982,-2.7321,-2.7951,-2.8046,-2.7519,-2.7805,-2.7699,-2.7146,-2.7178,-2.751,-2.8091,-2.8965,-2.9757,-3.0493,-3.1257,-3.1763,-3.1834,-3.3024,-3.4722,-3.686,-3.7718,-3.8198,-3.8511,-3.8929,-3.9611,-4.0628,-4.1906,-4.2936,-4.3899,-4.48,-4.5339,-4.5457,-4.5601,-4.5723,-4.5847,-4.5944,-4.6037,-4.6183,-4.6195,-4.6214,-4.6221,-4.6208,-4.6202,-4.6206,-4.6195,-4.6142,-4.6047,-4.6027,-4.5947,-4.5777,-4.5634,-4.5558,-4.5417,-4.5123,-4.4915,-4.4821,-4.4308,-4.3949,-4.373,-4.3479,-4.3322,-4.3214,-4.2995,-4.2788,-4.2655,-4.2074,-4.1666,-4.1428,-4.1117,-4.0918,-4.0871,-4.0871,-4.0871,-1.9795,-2.0019,-2.0727,-2.1177,-2.1535,-2.3856,-2.5689,-2.7082,-2.777,-2.7548,-2.6562,-2.6238,-2.5805,-2.5324,-2.5312,-2.5155,-2.4867,-2.4626,-2.4218,-2.3743,-2.3944,-2.4054,-2.4026,-2.4498,-2.4789,-2.4921,-2.4408,-2.4286,-2.4517,-2.396,-2.3648,-2.3541,-2.2986,-2.2454,-2.202,-2.3053,-2.3823,-2.4207,-2.5174,-2.5948,-2.6443,-2.693,-2.7458,-2.8008,-2.8319,-2.8482,-2.8357,-2.8556,-2.8505,-2.8205,-2.8455,-2.8714,-2.9002,-2.984,-3.0476,-3.0828,-3.1842,-3.2403,-3.2403,-3.4242,-3.5881,-3.7108,-3.7983,-3.8697,-3.9313,-3.9986,-4.0673,-4.1379,-4.2761,-4.3988,-4.4626,-4.5067,-4.536,-4.5495,-4.5635,-4.5776,-4.588,-4.5944,-4.6056,-4.6151,-4.6158,-4.6156,-4.6211,-4.6209,-4.6211,-4.6215,-4.6142,-4.5998,-4.575,-4.5708,-4.5679,-4.5584,-4.5522,-4.538,-4.5184,-4.4947,-4.4695,-4.443,-4.4121,-4.3828,-4.3615,-4.3375,-4.3339,-4.3305,-4.2995,-4.2711,-4.2498,-4.1948,-4.149,-4.1209,-4.1041,-4.0935,-4.0871,-4.0871,-4.0871,-2.0011,-2.0382,-2.0907,-2.1624,-2.257,-2.4173,-2.5544,-2.6653,-2.7693,-2.7621,-2.6767,-2.6406,-2.5937,-2.5336,-2.5312,-2.5023,-2.4554,-2.4398,-2.3857,-2.3091,-2.3228,-2.3417,-2.3616,-2.3904,-2.4381,-2.4881,-2.4517,-2.4477,-2.4652,-2.3811,-2.3378,-2.339,-2.2943,-2.2658,-2.2522,-2.362,-2.4394,-2.4743,-2.5624,-2.639,-2.6901,-2.7306,-2.781,-2.8463,-2.8606,-2.8779,-2.9075,-2.9091,-2.9091,-2.9137,-2.947,-2.9786,-3.0048,-3.0792,-3.1308,-3.1647,-3.2586,-3.3287,-3.363,-3.5295,-3.6662,-3.7214,-3.8332,-3.927,-3.9982,-4.1141,-4.1988,-4.2382,-4.3648,-4.4737,-4.5161,-4.5319,-4.54,-4.5531,-4.5648,-4.5805,-4.5899,-4.5966,-4.6074,-4.615,-4.6144,-4.6152,-4.6178,-4.6201,-4.6086,-4.585,-4.5667,-4.5382,-4.5038,-4.4934,-4.4919,-4.5093,-4.5208,-4.5206,-4.4849,-4.4669,-4.4476,-4.4036,-4.3942,-4.3749,-4.3479,-4.3353,-4.3246,-4.3141,-4.2776,-4.234,-4.2044,-4.1666,-4.1283,-4.1012,-4.0918,-4.0871,-4.0871,-4.0871,-4.0871,-2.0292,-2.0473,-2.1257,-2.2921,-2.4534,-2.4502,-2.5583,-2.7317,-2.7184,-2.6743,-2.6226,-2.6647,-2.6262,-2.5396,-2.5312,-2.5011,-2.447,-2.4049,-2.3532,-2.2955,-2.2549,-2.2751,-2.3518,-2.3331,-2.3858,-2.4894,-2.4929,-2.4641,-2.4313,-2.4109,-2.4028,-2.4042,-2.392,-2.3662,-2.3295,-2.4079,-2.4716,-2.5008,-2.6179,-2.6849,-2.6901,-2.75,-2.8076,-2.8479,-2.8873,-2.9075,-2.9091,-2.9091,-2.9091,-2.9137,-2.9167,-2.9667,-3.0664,-3.1292,-3.2035,-3.3109,-3.3705,-3.4445,-3.544,-3.606,-3.6931,-3.7938,-3.9136,-3.9964,-4.0362,-4.1959,-4.3069,-4.3232,-4.3715,-4.4491,-4.5203,-4.54,-4.5531,-4.5651,-4.5791,-4.5919,-4.5975,-4.6035,-4.6091,-4.6118,-4.6139,-4.621,-4.6204,-4.6214,-4.5859,-4.5181,-4.466,-4.4264,-4.3874,-4.3675,-4.369,-4.3958,-4.4379,-4.4792,-4.4701,-4.443,-4.4177,-4.3974,-4.3749,-4.3548,-4.3387,-4.2931,-4.2514,-4.2868,-4.1962,-4.1403,-4.148,-4.1255,-4.1012,-4.0918,-4.0871,-4.0871,-4.0871,-4.0871,-4.0871,-2.0266,-2.0683,-2.0956,-2.224,-2.4204,-2.4952,-2.5892,-2.6704,-2.6899,-2.6442,-2.5745,-2.6202,-2.6009,-2.5324,-2.5312,-2.4867,-2.4073,-2.3857,-2.3304,-2.2546,-2.2282,-2.2714,-2.3505,-2.3246,-2.3729,-2.4908,-2.497,-2.4874,-2.4626,-2.4464,-2.4286,-2.4123,-2.4272,-2.4257,-2.4079,-2.4736,-2.5326,-2.5767,-2.6509,-2.7108,-2.75,-2.8012,-2.8463,-2.8826,-2.9029,-2.9091,-2.9091,-2.9091,-2.9091,-2.9121,-2.9633,-3.0381,-3.1271,-3.2001,-3.2781,-3.375,-3.441,-3.5362,-3.6714,-3.7415,-3.8151,-3.9075,-4.0209,-4.1082,-4.1694,-4.2795,-4.3617,-4.4115,-4.4528,-4.4934,-4.526,-4.5438,-4.5547,-4.57,-4.5824,-4.5925,-4.5997,-4.6052,-4.6118,-4.6104,-4.6147,-4.6207,-4.6206,-4.6209,-4.5938,-4.527,-4.4558,-4.3976,-4.4192,-4.4306,-4.4276,-4.4317,-4.4506,-4.4474,-4.4365,-4.4237,-4.3979,-4.3767,-4.3582,-4.3479,-4.3334,-4.2574,-4.2141,-4.2793,-4.16,-4.1007,-4.1438,-4.1192,-4.0871,-4.0871,-4.0871,-4.0871,-4.0871,-4.0871,-4.0871,-2.0147,-2.082,-2.0992,-2.2304,-2.4233,-2.5115,-2.5715,-2.5877,-2.6166,-2.5757,-2.4975,-2.53,-2.5336,-2.5119,-2.5083,-2.4602,-2.3833,-2.3628,-2.3063,-2.2282,-2.2342,-2.2862,-2.3531,-2.3339,-2.3859,-2.4851,-2.5011,-2.5011,-2.5119,-2.4929,-2.475,-2.4641,-2.4844,-2.4966,-2.5007,-2.5493,-2.5948,-2.6428,-2.6953,-2.7449,-2.8012,-2.8463,-2.8826,-2.9075,-2.9091,-2.9091,-2.9091,-2.9091,-2.9091,-2.9137,-2.9881,-3.0806,-3.1838,-3.2608,-3.3527,-3.4611,-3.5532,-3.6501,-3.7772,-3.8688,-3.9481,-4.0185,-4.1237,-4.2095,-4.2809,-4.3491,-4.4199,-4.4824,-4.5197,-4.5341,-4.536,-4.5476,-4.5599,-4.5746,-4.586,-4.5941,-4.6018,-4.6084,-4.6138,-4.6141,-4.6191,-4.6198,-4.6176,-4.616,-4.5972,-4.5244,-4.4716,-4.4154,-4.4496,-4.4414,-4.4322,-4.4329,-4.4081,-4.3978,-4.3962,-4.3929,-4.3786,-4.3634,-4.3479,-4.3444,-4.332,-4.2359,-4.1717,-4.2074,-4.1025,-4.0701,-4.1091,-4.1024,-4.0871,-4.0871,-4.0871,-4.0871,-4.0871,-4.0871,-4.0871,-2.0008,-2.0604,-2.1921,-2.3598,-2.53,-2.4812,-2.4796,-2.5312,-2.4903,-2.4374,-2.3977,-2.3941,-2.4157,-2.459,-2.4566,-2.4266,-2.3773,-2.334,-2.2847,-2.2366,-2.2802,-2.3207,-2.3556,-2.3609,-2.4077,-2.4975,-2.4978,-2.516,-2.5439,-2.5481,-2.5605,-2.5811,-2.5839,-2.5865,-2.5907,-2.6181,-2.6472,-2.7047,-2.7599,-2.8073,-2.8525,-2.8889,-2.9186,-2.9217,-2.9122,-2.92,-2.917,-2.9122,-2.9138,-2.9122,-2.973,-3.0751,-3.2453,-3.3178,-3.4294,-3.5973,-3.726,-3.8082,-3.8629,-3.9698,-4.0597,-4.1097,-4.2051,-4.2816,-4.324,-4.4147,-4.4824,-4.5216,-4.538,-4.5476,-4.5495,-4.5618,-4.5746,-4.5847,-4.5941,-4.6008,-4.6103,-4.6142,-4.6192,-4.6191,-4.6217,-4.6192,-4.6041,-4.6119,-4.5653,-4.5009,-4.4882,-4.4784,-4.3673,-4.299,-4.3047,-4.3281,-4.3249,-4.3095,-4.3769,-4.3781,-4.36,-4.3479,-4.3391,-4.3321,-4.2832,-4.23,-4.1908,-4.1445,-4.0717,-4.0498,-4.0799,-4.0918,-4.0918,-4.0871,-4.0871,-4.0871,-4.0871,-4.0871,-4.0871,-2.0624,-2.1876,-2.3296,-2.4295,-2.4912,-2.5315,-2.523,-2.4819,-2.4602,-2.4422,-2.4218,-2.3917,-2.423,-2.4987,-2.3977,-2.3797,-2.4206,-2.4049,-2.3688,-2.332,-2.3778,-2.4066,-2.4058,-2.4004,-2.4275,-2.4932,-2.5005,-2.5188,-2.5605,-2.6259,-2.6595,-2.6624,-2.7131,-2.7357,-2.7413,-2.7455,-2.7845,-2.8497,-2.8944,-2.9394,-2.9782,-3.0254,-3.0464,-3.0433,-3.0022,-3.0022,-3.0464,-3.0464,-3.0464,-3.0464,-3.1199,-3.2166,-3.3316,-3.4592,-3.553,-3.6308,-3.7417,-3.8263,-3.8827,-4.0293,-4.1432,-4.1919,-4.3069,-4.3802,-4.407,-4.4668,-4.5173,-4.5298,-4.5438,-4.5531,-4.5635,-4.5746,-4.5852,-4.5887,-4.5953,-4.6027,-4.6072,-4.6158,-4.6198,-4.6191,-4.6147,-4.6076,-4.6017,-4.597,-4.5715,-4.5216,-4.5208,-4.4956,-4.4588,-4.411,-4.3825,-4.3866,-4.3733,-4.3558,-4.3572,-4.3615,-4.3479,-4.3373,-4.3284,-4.3051,-4.2647,-4.1694,-4.1149,-4.1323,-4.0709,-4.0433,-4.0728,-4.0918,-4.0871,-4.0871,-4.0871,-4.0871,-4.0871,-4.0871,-4.0871,-2.1824,-2.2913,-2.4259,-2.4711,-2.4733,-2.5277,-2.4999,-2.4073,-2.4025,-2.4025,-2.3965,-2.3664,-2.4085,-2.4783,-2.4008,-2.4008,-2.4707,-2.4345,-2.3899,-2.37,-2.4623,-2.5065,-2.4916,-2.471,-2.497,-2.5488,-2.5574,-2.584,-2.6428,-2.7201,-2.7512,-2.7485,-2.8083,-2.8369,-2.8383,-2.8482,-2.8946,-2.952,-2.9917,-3.0335,-3.0775,-3.1058,-3.1334,-3.146,-3.1081,-3.0939,-3.1223,-3.1207,-3.1306,-3.1534,-3.2177,-3.3095,-3.4246,-3.5531,-3.6488,-3.6915,-3.8046,-3.8993,-3.973,-4.1325,-4.2393,-4.269,-4.37,-4.4402,-4.4457,-4.4953,-4.5277,-4.538,-4.5495,-4.5635,-4.5742,-4.5854,-4.5925,-4.5937,-4.5964,-4.6036,-4.6118,-4.6167,-4.6204,-4.6204,-4.6137,-4.6024,-4.5949,-4.5838,-4.5673,-4.5456,-4.5341,-4.5277,-4.5109,-4.4868,-4.4572,-4.4289,-4.3962,-4.3707,-4.3582,-4.3513,-4.3479,-4.3391,-4.3069,-4.2847,-4.2354,-4.1321,-4.0806,-4.1031,-4.0954,-4.0637,-4.0595,-4.0819,-4.0871,-4.0871,-4.0871,-4.0871,-4.0871,-4.0871,-4.0823,-2.3661,-2.3677,-2.4725,-2.502,-2.48,-2.4742,-2.4025,-2.3256,-2.3171,-2.3292,-2.3357,-2.3152,-2.3803,-2.4478,-2.459,-2.4998,-2.5156,-2.4201,-2.3692,-2.3793,-2.5355,-2.6103,-2.6083,-2.5982,-2.6149,-2.6707,-2.6764,-2.7216,-2.7969,-2.814,-2.8383,-2.8624,-2.874,-2.8871,-2.8753,-2.9263,-2.9654,-3.0046,-3.0514,-3.0881,-3.1189,-3.1397,-3.1697,-3.2203,-3.2203,-3.1934,-3.1365,-3.1334,-3.1644,-3.2062,-3.2508,-3.3453,-3.5,-3.599,-3.6839,-3.7953,-3.9185,-4.0412,-4.1506,-4.2647,-4.3298,-4.3502,-4.4065,-4.4411,-4.4538,-4.4957,-4.5339,-4.5476,-4.5601,-4.5727,-4.588,-4.5949,-4.5997,-4.6007,-4.6017,-4.606,-4.6162,-4.6206,-4.6226,-4.6241,-4.6164,-4.6008,-4.5854,-4.5696,-4.5569,-4.538,-4.5239,-4.5113,-4.4891,-4.4599,-4.4289,-4.406,-4.3814,-4.3582,-4.3513,-4.3479,-4.3479,-4.341,-4.3014,-4.2655,-4.218,-4.1366,-4.0951,-4.1065,-4.0972,-4.0698,-4.0698,-4.0871,-4.0871,-4.0871,-4.0871,-4.0871,-4.0871,-4.0871,-4.0697,-2.4679,-2.498,-2.5286,-2.5503,-2.5588,-2.5205,-2.447,-2.3604,-2.3881,-2.3911,-2.3688,-2.3705,-2.4366,-2.5054,-2.478,-2.4786,-2.5191,-2.5285,-2.5509,-2.5864,-2.6764,-2.7271,-2.7371,-2.7597,-2.7666,-2.7567,-2.7683,-2.7883,-2.8268,-2.8886,-2.9218,-2.9392,-2.9769,-2.9972,-2.9988,-3.0439,-3.0896,-3.1313,-3.1736,-3.2179,-3.2593,-3.2645,-3.2756,-3.2929,-3.2977,-3.285,-3.2677,-3.2661,-3.2902,-3.3388,-3.3871,-3.4695,-3.5797,-3.668,-3.7419,-3.8169,-3.9793,-4.0969,-4.1705,-4.2792,-4.3615,-4.3841,-4.4173,-4.4465,-4.4676,-4.5045,-4.536,-4.5514,-4.5635,-4.5761,-4.5874,-4.5972,-4.6027,-4.606,-4.6068,-4.6099,-4.6182,-4.6229,-4.6228,-4.6156,-4.6017,-4.5828,-4.5679,-4.5565,-4.5419,-4.5279,-4.4976,-4.4683,-4.4713,-4.4402,-4.4121,-4.4005,-4.3716,-4.3479,-4.3479,-4.3444,-4.341,-4.3196,-4.2808,-4.2498,-4.205,-4.1507,-4.1163,-4.1012,-4.0918,-4.0871,-4.0871,-4.0871,-4.0871,-4.0871,-4.0871,-4.0871,-4.0871,-4.0776,-4.0614,-2.5475,-2.5634,-2.5659,-2.5648,-2.5504,-2.5143,-2.4554,-2.3869,-2.4165,-2.428,-2.4317,-2.4384,-2.4927,-2.564,-2.5253,-2.5179,-2.5599,-2.6422,-2.7039,-2.7538,-2.8117,-2.8429,-2.8588,-2.8852,-2.8895,-2.8567,-2.867,-2.8857,-2.9101,-2.9638,-2.9972,-3.006,-3.0393,-3.0673,-3.0866,-3.1336,-3.1709,-3.216,-3.2586,-3.3011,-3.324,-3.3293,-3.3293,-3.3293,-3.3293,-3.3293,-3.3309,-3.3503,-3.3832,-3.4382,-3.4958,-3.5661,-3.631,-3.7068,-3.786,-3.8916,-4.0174,-4.1438,-4.2287,-4.322,-4.3781,-4.4017,-4.4318,-4.4599,-4.4819,-4.5109,-4.536,-4.5566,-4.5632,-4.5757,-4.5905,-4.6007,-4.606,-4.6131,-4.6112,-4.6138,-4.619,-4.6209,-4.6201,-4.6096,-4.5897,-4.5722,-4.5591,-4.5475,-4.5338,-4.5218,-4.4772,-4.4417,-4.4523,-4.4279,-4.4079,-4.3878,-4.3649,-4.3532,-4.3479,-4.341,-4.3321,-4.2958,-4.2537,-4.2338,-4.2008,-4.1373,-4.0918,-4.0918,-4.0871,-4.0871,-4.0871,-4.0871,-4.0871,-4.0871,-4.0871,-4.0871,-4.0823,-4.0724,-4.0514,-2.6132,-2.5624,-2.5995,-2.5588,-2.4747,-2.4675,-2.4374,-2.396,-2.4141,-2.4451,-2.4786,-2.5044,-2.5406,-2.5906,-2.597,-2.6121,-2.6452,-2.7152,-2.7906,-2.8542,-2.9219,-2.9566,-2.9591,-2.9631,-2.9638,-2.9638,-2.9609,-2.9899,-3.0335,-3.0437,-3.0642,-3.051,-3.0598,-3.0821,-3.1219,-3.1667,-3.2104,-3.2532,-3.3011,-3.324,-3.3293,-3.3293,-3.3293,-3.3293,-3.3293,-3.3293,-3.3346,-3.3848,-3.4366,-3.4864,-3.5705,-3.6251,-3.6525,-3.7172,-3.8402,-3.9822,-4.0721,-4.1955,-4.3155,-4.3693,-4.3986,-4.406,-4.4484,-4.4819,-4.491,-4.5175,-4.5419,-4.5651,-4.5696,-4.5819,-4.5975,-4.6063,-4.6125,-4.6195,-4.6167,-4.6167,-4.6191,-4.6167,-4.6118,-4.6063,-4.5859,-4.5712,-4.5693,-4.5573,-4.5397,-4.5309,-4.4834,-4.4473,-4.428,-4.4121,-4.3828,-4.3682,-4.3566,-4.3532,-4.3479,-4.3479,-4.3356,-4.2939,-4.2476,-4.211,-4.1839,-4.1255,-4.0871,-4.0871,-4.0871,-4.0871,-4.0871,-4.0871,-4.0871,-4.0871,-4.0871,-4.084,-4.0758,-4.0594,-4.0201,-2.698,-2.6118,-2.6482,-2.6093,-2.5168,-2.5107,-2.4876,-2.4626,-2.5022,-2.5203,-2.537,-2.5747,-2.6039,-2.6302,-2.6396,-2.6645,-2.7229,-2.792,-2.8634,-2.9345,-2.9993,-3.0312,-3.0312,-3.0363,-3.0306,-3.0292,-3.0263,-3.0422,-3.0628,-3.0642,-3.0642,-3.0642,-3.0642,-3.0881,-3.1278,-3.1724,-3.216,-3.2602,-3.3065,-3.3293,-3.3293,-3.3293,-3.3293,-3.3293,-3.3293,-3.3293,-3.3398,-3.4168,-3.4833,-3.5391,-3.5924,-3.6594,-3.7172,-3.8216,-3.9353,-4.0588,-4.1785,-4.2685,-4.3389,-4.3883,-4.4097,-4.4308,-4.4813,-4.491,-4.5173,-4.5341,-4.5531,-4.5684,-4.5776,-4.5964,-4.6035,-4.613,-4.6187,-4.6186,-4.6328,-4.6307,-4.6254,-4.6181,-4.606,-4.5949,-4.5854,-4.6031,-4.6185,-4.5917,-4.56,-4.5665,-4.5035,-4.4402,-4.4255,-4.3873,-4.3615,-4.3582,-4.3479,-4.3479,-4.3479,-4.3479,-4.3339,-4.292,-4.2454,-4.1927,-4.1542,-4.1041,-4.0871,-4.0871,-4.0871,-4.0871,-4.0871,-4.0871,-4.0871,-4.0871,-4.0892,-4.0862,-4.0645,-4.0463,-3.9868,-2.7266,-2.6919,-2.688,-2.6442,-2.5768,-2.5791,-2.5572,-2.5347,-2.5669,-2.5807,-2.5828,-2.6177,-2.6408,-2.6521,-2.6782,-2.7095,-2.7604,-2.8505,-2.9156,-2.9608,-3.0251,-3.0568,-3.0568,-3.0642,-3.0642,-3.0642,-3.0642,-3.0628,-3.0642,-3.0642,-3.0642,-3.0642,-3.0821,-3.1102,-3.1552,-3.1992,-3.2437,-3.2888,-3.3187,-3.3293,-3.3293,-3.3293,-3.3293,-3.3293,-3.3293,-3.3435,-3.3984,-3.5018,-3.5727,-3.6007,-3.6466,-3.7068,-3.7655,-3.8988,-4.017,-4.1135,-4.2278,-4.3251,-4.4107,-4.4519,-4.5019,-4.5572,-4.5905,-4.6134,-4.6366,-4.6474,-4.6605,-4.6819,-4.6883,-4.6991,-4.7095,-4.7155,-4.7217,-4.7323,-4.7032,-4.6702,-4.6314,-4.6454,-4.6474,-4.646,-4.6572,-4.6815,-4.7242,-4.6702,-4.6511,-4.6258,-4.4979,-4.4645,-4.442,-4.39,-4.3589,-4.3699,-4.3681,-4.3681,-4.3864,-4.3885,-4.3651,-4.3192,-4.2665,-4.2086,-4.1492,-4.0991,-4.0905,-4.0905,-4.0888,-4.0871,-4.0871,-4.0871,-4.0823,-4.0858,-4.0896,-4.0783,-4.0517,-3.9883,-3.9359,-2.7442,-2.7693,-2.72,-2.6843,-2.653,-2.642,-2.6259,-2.6045,-2.6074,-2.6188,-2.6327,-2.6571,-2.6746,-2.6658,-2.7611,-2.7867,-2.8014,-2.9361,-2.9722,-3.0116,-3.0398,-3.0628,-3.0642,-3.0642,-3.0642,-3.0671,-3.0686,-3.0788,-3.0889,-3.0875,-3.0891,-3.1041,-3.1279,-3.1554,-3.1966,-3.2367,-3.2834,-3.3224,-3.3346,-3.3509,-3.3604,-3.3599,-3.3678,-3.3783,-3.3911,-3.4403,-3.5217,-3.6152,-3.6763,-3.6551,-3.7232,-3.775,-3.8183,-3.9668,-4.0737,-4.1522,-4.2609,-4.3815,-4.4944,-4.5473,-4.6195,-4.6992,-4.7429,-4.7799,-4.7635,-4.7664,-4.7813,-4.7912,-4.8329,-4.8269,-4.8399,-4.8638,-4.8627,-4.8504,-4.8076,-4.747,-4.6741,-4.6863,-4.7183,-4.7173,-4.7735,-4.7991,-4.8144,-4.7987,-4.7701,-4.7276,-4.6092,-4.5634,-4.5268,-4.4733,-4.4395,-4.4195,-4.4103,-4.3938,-4.4141,-4.4362,-4.3966,-4.3543,-4.3026,-4.2393,-4.166,-4.1216,-4.1043,-4.0957,-4.0905,-4.0871,-4.0871,-4.0871,-4.0823,-4.0793,-4.0796,-4.0634,-4.0353,-3.9345,-3.8623,-2.8011,-2.7717,-2.7738,-2.7451,-2.7016,-2.6748,-2.6707,-2.6714,-2.64,-2.6427,-2.6647,-2.7503,-2.7699,-2.7429,-2.8892,-2.982,-2.9803,-3.0614,-3.1133,-3.1079,-3.0771,-3.0776,-3.0762,-3.0717,-3.0642,-3.0744,-3.1287,-3.1477,-3.155,-3.1965,-3.2235,-3.205,-3.2079,-3.2163,-3.2413,-3.2641,-3.2926,-3.3487,-3.3623,-3.3958,-3.4319,-3.4383,-3.4552,-3.4841,-3.5321,-3.6104,-3.693,-3.7415,-3.7729,-3.8074,-3.8328,-3.8868,-3.9616,-4.0477,-4.1457,-4.2477,-4.3579,-4.454,-4.5268,-4.6151,-4.6883,-4.7498,-4.7853,-4.7865,-4.7952,-4.8201,-4.8301,-4.8368,-4.8477,-4.8759,-4.8919,-4.9439,-4.9472,-4.9221,-4.9224,-4.9054,-4.8195,-4.7561,-4.7578,-4.7893,-4.8101,-4.8279,-4.8912,-4.8503,-4.8219,-4.801,-4.754,-4.6931,-4.6257,-4.5549,-4.5184,-4.4856,-4.4874,-4.48,-4.4803,-4.4966,-4.4646,-4.4281,-4.3724,-4.313,-4.2337,-4.1578,-4.144,-4.1181,-4.0888,-4.0871,-4.0871,-4.0871,-4.0871,-4.0793,-4.0714,-4.0568,-4.0136,-3.9055,-3.829,-2.8488,-2.8246,-2.839,-2.8292,-2.7877,-2.7656,-2.7532,-2.7501,-2.7239,-2.7372,-2.7831,-2.8591,-2.8699,-2.8532,-2.9777,-3.0466,-3.0678,-3.1325,-3.1656,-3.1579,-3.1203,-3.0969,-3.1043,-3.113,-3.1143,-3.0997,-3.1511,-3.185,-3.2117,-3.2837,-3.3051,-3.2823,-3.3054,-3.3064,-3.2935,-3.3171,-3.3557,-3.3948,-3.4101,-3.4526,-3.5118,-3.5099,-3.5272,-3.5841,-3.6509,-3.7301,-3.7702,-3.841,-3.8814,-3.9163,-3.9631,-4.0071,-4.0514,-4.1227,-4.2225,-4.3391,-4.4163,-4.5411,-4.6339,-4.7121,-4.7862,-4.8675,-4.8876,-4.9034,-4.9163,-4.9314,-4.9451,-4.9591,-4.9756,-4.9849,-4.9937,-5.0308,-5.0369,-5.0175,-5.0048,-4.9958,-4.9605,-4.8938,-4.8445,-4.8852,-4.9124,-4.9452,-4.9564,-4.9207,-4.8966,-4.8853,-4.8159,-4.7537,-4.6755,-4.6122,-4.5828,-4.5608,-4.5718,-4.5718,-4.5663,-4.5591,-4.5372,-4.5088,-4.4759,-4.4163,-4.3457,-4.2647,-4.1857,-4.1474,-4.0974,-4.0888,-4.0871,-4.0871,-4.0823,-4.0697,-4.0617,-4.0519,-4.0037,-3.9063,-3.8532,-2.8803,-2.887,-2.904,-2.9015,-2.876,-2.8611,-2.8475,-2.826,-2.8268,-2.8523,-2.9319,-2.9583,-3.0038,-3.0033,-3.0811,-3.1055,-3.1311,-3.1618,-3.2156,-3.2382,-3.1485,-3.1324,-3.1397,-3.1575,-3.1753,-3.1545,-3.2226,-3.2416,-3.2841,-3.3593,-3.4286,-3.3817,-3.4344,-3.4469,-3.3905,-3.4098,-3.4607,-3.4846,-3.4963,-3.5391,-3.6023,-3.6005,-3.6271,-3.7157,-3.7736,-3.8311,-3.8734,-3.9345,-3.9957,-4.0107,-4.1091,-4.1402,-4.1556,-4.1979,-4.3077,-4.436,-4.5004,-4.607,-4.7411,-4.8179,-4.8834,-5.0193,-5.0245,-5.0301,-5.0393,-5.043,-5.0549,-5.0874,-5.1039,-5.1331,-5.1488,-5.1796,-5.183,-5.1695,-5.1093,-5.092,-5.0947,-5.0557,-5.0085,-4.9698,-4.9856,-5.0162,-5.0308,-5.0134,-4.9903,-4.9539,-4.8795,-4.8094,-4.7316,-4.6893,-4.6709,-4.6636,-4.6801,-4.6476,-4.6313,-4.6173,-4.5944,-4.5435,-4.5303,-4.4871,-4.4302,-4.3888,-4.3007,-4.1612,-4.1095,-4.0991,-4.0888,-4.0871,-4.0793,-4.06,-4.0568,-4.0536,-3.9918,-3.9135,-3.8684,-2.8882,-2.9052,-2.9275,-2.9291,-2.922,-2.8975,-2.89,-2.8787,-2.9137,-2.9177,-2.961,-3.1227,-3.1674,-3.1721,-3.2811,-3.3323,-3.3015,-3.297,-3.3077,-3.317,-3.2257,-3.1679,-3.208,-3.2184,-3.2284,-3.3059,-3.3623,-3.3938,-3.4152,-3.511,-3.5698,-3.6058,-3.6166,-3.5911,-3.5669,-3.5882,-3.589,-3.6011,-3.6044,-3.64,-3.7043,-3.742,-3.7972,-3.9009,-3.951,-3.9873,-4.0281,-4.0676,-4.1086,-4.1622,-4.2184,-4.2935,-4.3547,-4.3796,-4.4483,-4.5388,-4.6177,-4.703,-4.8084,-4.8781,-4.9428,-5.01,-5.0325,-5.0442,-5.0606,-5.0791,-5.1095,-5.1462,-5.1974,-5.2377,-5.2394,-5.289,-5.3419,-5.3416,-5.3111,-5.2637,-5.21,-5.1629,-5.1054,-5.0413,-5.0508,-5.0582,-5.0552,-5.0427,-5.005,-4.9488,-4.8758,-4.8361,-4.7923,-4.7812,-4.7886,-4.7903,-4.7994,-4.7461,-4.6952,-4.6731,-4.6447,-4.5641,-4.5303,-4.5114,-4.4803,-4.4975,-4.4196,-4.2696,-4.1509,-4.1043,-4.0974,-4.0905,-4.084,-4.0697,-4.0617,-4.0585,-3.985,-3.9065,-3.8518,-2.904,-2.9275,-2.9521,-2.9806,-3.0101,-3.0035,-3.0206,-3.0537,-3.0724,-3.102,-3.1652,-3.2609,-3.3064,-3.3014,-3.3118,-3.3539,-3.3572,-3.372,-3.3858,-3.3847,-3.3078,-3.2542,-3.308,-3.3215,-3.3584,-3.4306,-3.5093,-3.5567,-3.5517,-3.6641,-3.7134,-3.7054,-3.7219,-3.715,-3.6665,-3.6558,-3.68,-3.6979,-3.702,-3.7313,-3.8074,-3.85,-3.936,-3.9935,-4.0793,-4.1194,-4.1461,-4.1988,-4.2441,-4.294,-4.3374,-4.4306,-4.5108,-4.566,-4.588,-4.6507,-4.7076,-4.7797,-4.8577,-4.9265,-4.9765,-5.0212,-5.0371,-5.0506,-5.0815,-5.1167,-5.1693,-5.2426,-5.2818,-5.326,-5.3275,-5.3783,-5.394,-5.3962,-5.3917,-5.34,-5.2613,-5.2206,-5.1604,-5.0929,-5.0715,-5.0656,-5.0514,-5.0316,-5.0024,-4.9452,-4.8732,-4.8457,-4.8326,-4.8344,-4.8401,-4.8344,-4.8231,-4.7715,-4.716,-4.6954,-4.6537,-4.5803,-4.5406,-4.5165,-4.4958,-4.5044,-4.4612,-4.3611,-4.2561,-4.1612,-4.0991,-4.0905,-4.084,-4.0762,-4.0734,-4.0506,-3.9764,-3.9119,-3.8544,-2.9201,-2.9347,-2.9781,-3.033,-3.0895,-3.1119,-3.1462,-3.2101,-3.2413,-3.2846,-3.3451,-3.3882,-3.4196,-3.4103,-3.3839,-3.3606,-3.3612,-3.4074,-3.439,-3.4483,-3.3799,-3.3531,-3.4137,-3.4606,-3.5007,-3.5436,-3.6269,-3.7112,-3.6772,-3.7584,-3.785,-3.7987,-3.8216,-3.8074,-3.7488,-3.7626,-3.758,-3.7724,-3.7829,-3.8188,-3.8767,-3.9551,-4.0189,-4.0492,-4.1621,-4.2265,-4.2334,-4.2714,-4.3405,-4.3992,-4.4573,-4.5341,-4.6486,-4.7104,-4.7352,-4.7482,-4.7712,-4.8352,-4.9039,-4.958,-4.9884,-5.0259,-5.0421,-5.0548,-5.0908,-5.1575,-5.2576,-5.3563,-5.4059,-5.4144,-5.4179,-5.4421,-5.458,-5.4601,-5.4468,-5.3984,-5.3294,-5.2775,-5.2339,-5.1717,-5.1135,-5.0722,-5.0619,-5.0387,-5.0107,-4.9427,-4.872,-4.8421,-4.8324,-4.8324,-4.8324,-4.8324,-4.8172,-4.7752,-4.7309,-4.6954,-4.6394,-4.5649,-4.5423,-4.532,-4.5043,-4.4906,-4.4458,-4.4096,-4.3509,-4.2578,-4.175,-4.0957,-4.0858,-4.0796,-4.0788,-4.0527,-4.0029,-3.9276,-3.855,-2.9222,-2.9063,-3.0263,-3.082,-3.1031,-3.1696,-3.2001,-3.2359,-3.3591,-3.3917,-3.3756,-3.5001,-3.5385,-3.505,-3.5091,-3.4797,-3.4532,-3.4565,-3.4895,-3.5138,-3.4405,-3.4425,-3.5002,-3.4586,-3.5839,-3.655,-3.7173,-3.7252,-3.7469,-3.8075,-3.8662,-3.8908,-3.9016,-3.9056,-3.8854,-3.8858,-3.9056,-3.8999,-3.8767,-3.9086,-3.9848,-4.09,-4.1557,-4.2092,-4.2691,-4.3108,-4.3093,-4.3469,-4.4007,-4.4894,-4.5328,-4.6209,-4.7301,-4.7907,-4.8273,-4.851,-4.8667,-4.8855,-4.9314,-4.9674,-4.9962,-5.0264,-5.0442,-5.0567,-5.123,-5.2036,-5.3044,-5.3708,-5.4493,-5.4967,-5.5176,-5.5729,-5.6103,-5.6004,-5.5608,-5.5135,-5.4483,-5.3546,-5.3067,-5.2557,-5.1989,-5.1213,-5.0718,-5.0502,-5.0207,-4.9431,-4.8797,-4.8495,-4.8324,-4.8324,-4.8324,-4.8324,-4.8093,-4.7692,-4.7222,-4.6863,-4.6315,-4.5511,-4.5423,-4.5441,-4.5233,-4.5009,-4.4872,-4.4475,-4.3958,-4.3406,-4.2561,-4.1802,-4.115,-4.0854,-4.0948,-4.0746,-4.0388,-3.956,-3.883,-2.9997,-2.9709,-3.1029,-3.1842,-3.2277,-3.272,-3.3157,-3.366,-3.4358,-3.4617,-3.4578,-3.52,-3.5338,-3.5001,-3.528,-3.5115,-3.4808,-3.5195,-3.5687,-3.6056,-3.5769,-3.5947,-3.6432,-3.6611,-3.7335,-3.7607,-3.8259,-3.8537,-3.8586,-3.875,-3.9226,-3.9781,-3.9939,-3.9885,-3.9939,-3.9901,-3.9603,-3.9487,-3.9624,-4.0299,-4.112,-4.1817,-4.248,-4.2944,-4.3539,-4.3817,-4.4006,-4.4655,-4.5273,-4.6052,-4.6551,-4.7108,-4.7868,-4.8365,-4.8676,-4.8763,-4.9158,-4.9405,-4.9599,-4.9884,-5.0149,-5.0358,-5.0644,-5.1157,-5.2167,-5.321,-5.4187,-5.5217,-5.5597,-5.5851,-5.5934,-5.6344,-5.6436,-5.6425,-5.6222,-5.5624,-5.5017,-5.4574,-5.3878,-5.3368,-5.2839,-5.2049,-5.1166,-5.0591,-5.0115,-4.9224,-4.8711,-4.8439,-4.8324,-4.8324,-4.8324,-4.8324,-4.7995,-4.7609,-4.7071,-4.6631,-4.6168,-4.5563,-4.5423,-4.5441,-4.5441,-4.5285,-4.5096,-4.4872,-4.444,-4.3854,-4.3233,-4.2649,-4.1982,-4.151,-4.107,-4.0903,-4.0657,-4.0361,-3.9614,-3.089,-3.0775,-3.1901,-3.272,-3.3297,-3.3659,-3.4167,-3.4683,-3.5089,-3.5244,-3.5243,-3.5309,-3.5091,-3.4985,-3.5428,-3.5525,-3.5102,-3.6153,-3.6554,-3.6829,-3.7131,-3.7365,-3.7552,-3.7971,-3.827,-3.8567,-3.9221,-3.9466,-3.962,-3.9802,-4.0078,-4.0382,-4.0266,-4.0448,-4.0602,-4.0529,-4.0304,-4.0182,-4.0877,-4.1597,-4.219,-4.2791,-4.3269,-4.3698,-4.4197,-4.4647,-4.4886,-4.5518,-4.6341,-4.7017,-4.7306,-4.7702,-4.8192,-4.855,-4.8797,-4.9015,-4.9424,-4.9757,-4.9929,-5.0125,-5.0333,-5.0565,-5.1045,-5.1831,-5.3301,-5.4509,-5.5375,-5.6104,-5.6266,-5.6406,-5.6566,-5.6586,-5.6497,-5.6355,-5.615,-5.5555,-5.5053,-5.4818,-5.4656,-5.435,-5.3748,-5.2946,-5.202,-5.0974,-5.0052,-4.9073,-4.8605,-4.8344,-4.8324,-4.8324,-4.8324,-4.8286,-4.7915,-4.7506,-4.7026,-4.6489,-4.5988,-4.5615,-4.5476,-4.5441,-4.5441,-4.5441,-4.5337,-4.5079,-4.482,-4.4561,-4.4096,-4.346,-4.2792,-4.2313,-4.1798,-4.1261,-4.0976,-4.0691,-4.0353,-3.1783,-3.2288,-3.2905,-3.3297,-3.3561,-3.4317,-3.4683,-3.4994,-3.5741,-3.5689,-3.5258,-3.5409,-3.5509,-3.5608,-3.6056,-3.6322,-3.626,-3.6995,-3.7235,-3.737,-3.7429,-3.7838,-3.8181,-3.8407,-3.8711,-3.9292,-3.9835,-4.015,-4.0415,-4.0729,-4.0696,-4.0498,-4.0818,-4.0945,-4.1128,-4.1234,-4.1287,-4.1427,-4.2261,-4.2774,-4.3301,-4.3784,-4.4284,-4.4508,-4.4975,-4.5528,-4.6017,-4.6249,-4.6678,-4.7421,-4.7632,-4.7919,-4.8345,-4.8711,-4.8982,-4.9283,-4.9627,-4.9955,-5.0169,-5.0236,-5.0393,-5.0778,-5.1503,-5.256,-5.3812,-5.4636,-5.5489,-5.627,-5.6412,-5.6503,-5.6582,-5.6597,-5.6491,-5.6485,-5.633,-5.5965,-5.5577,-5.5352,-5.5202,-5.5154,-5.4569,-5.3661,-5.2975,-5.1907,-5.0443,-4.9416,-4.8569,-4.8324,-4.8324,-4.8324,-4.8324,-4.8229,-4.7816,-4.7421,-4.6981,-4.6442,-4.5837,-4.5563,-4.5423,-4.5441,-4.5441,-4.5441,-4.5441,-4.5302,-4.5095,-4.5022,-4.4864,-4.411,-4.3477,-4.3031,-4.2594,-4.2182,-4.1439,-4.0849,-4.0601,-3.3022,-3.3835,-3.4013,-3.4182,-3.4249,-3.4668,-3.4949,-3.5111,-3.5561,-3.5642,-3.5454,-3.5846,-3.6085,-3.6274,-3.6723,-3.7011,-3.7131,-3.7648,-3.7879,-3.8124,-3.8367,-3.8678,-3.8898,-3.898,-3.9308,-3.9885,-4.0299,-4.068,-4.1044,-4.1538,-4.1866,-4.1855,-4.1833,-4.2032,-4.2239,-4.2303,-4.2364,-4.2754,-4.3404,-4.3904,-4.4344,-4.4749,-4.5199,-4.52,-4.5593,-4.5938,-4.6266,-4.6799,-4.7204,-4.7591,-4.7856,-4.8212,-4.855,-4.89,-4.924,-4.9541,-4.9884,-5.01,-5.0278,-5.0382,-5.061,-5.1549,-5.2465,-5.3476,-5.4361,-5.5278,-5.5879,-5.6328,-5.646,-5.6538,-5.6595,-5.6592,-5.6556,-5.6628,-5.6563,-5.6326,-5.6036,-5.5815,-5.549,-5.5326,-5.4876,-5.4197,-5.3564,-5.2912,-5.1305,-4.9787,-4.8972,-4.8324,-4.8324,-4.8324,-4.8324,-4.8093,-4.7692,-4.7335,-4.6908,-4.6297,-4.5718,-4.5528,-4.5441,-4.5441,-4.5441,-4.5441,-4.5388,-4.5371,-4.5353,-4.5213,-4.4988,-4.4555,-4.4141,-4.3759,-4.3572,-4.332,-4.2333,-4.1141,-4.0696,-3.3873,-3.4698,-3.4698,-3.4765,-3.4831,-3.4949,-3.5148,-3.5294,-3.5439,-3.5754,-3.6118,-3.6381,-3.6693,-3.7047,-3.7417,-3.7648,-3.7838,-3.8238,-3.8535,-3.8717,-3.8969,-3.9272,-3.9288,-3.9371,-3.9566,-4.032,-4.0878,-4.1266,-4.2005,-4.2261,-4.2925,-4.3389,-4.3446,-4.3485,-4.3572,-4.368,-4.3732,-4.3982,-4.4451,-4.4902,-4.5242,-4.5388,-4.5684,-4.5717,-4.6038,-4.6394,-4.6707,-4.7204,-4.7609,-4.7856,-4.8114,-4.8458,-4.8781,-4.9113,-4.9472,-4.9803,-5.0095,-5.0278,-5.0363,-5.0766,-5.1142,-5.1943,-5.3335,-5.4226,-5.5007,-5.5784,-5.6263,-5.6352,-5.6463,-5.6532,-5.6621,-5.6745,-5.6874,-5.7003,-5.7224,-5.7023,-5.6518,-5.6186,-5.576,-5.5415,-5.4867,-5.4301,-5.3699,-5.2994,-5.1509,-4.9986,-4.8934,-4.8398,-4.8324,-4.8324,-4.8324,-4.8014,-4.7524,-4.7222,-4.6863,-4.6204,-4.5632,-4.5528,-4.5441,-4.5441,-4.5441,-4.5441,-4.5388,-4.5371,-4.5371,-4.5318,-4.5074,-4.4778,-4.4664,-4.4618,-4.4061,-4.3254,-4.2606,-4.1399,-4.0758,-3.3958,-3.4668,-3.4698,-3.4898,-3.5148,-3.5148,-3.5294,-3.5504,-3.5569,-3.6198,-3.7029,-3.6785,-3.7311,-3.8157,-3.846,-3.8602,-3.8585,-3.9029,-3.9214,-3.9235,-3.9202,-3.9288,-3.9375,-3.9491,-4.0047,-4.0579,-4.1485,-4.2425,-4.3166,-4.383,-4.4456,-4.4705,-4.4687,-4.4685,-4.4895,-4.5303,-4.5351,-4.5194,-4.5638,-4.5662,-4.5681,-4.5666,-4.5837,-4.6038,-4.6363,-4.6753,-4.723,-4.7548,-4.7856,-4.8132,-4.8269,-4.8569,-4.8866,-4.9209,-4.9512,-4.9857,-5.022,-5.0397,-5.0463,-5.1413,-5.2159,-5.264,-5.4012,-5.4835,-5.5205,-5.5809,-5.6387,-5.6406,-5.6482,-5.6532,-5.6745,-5.7045,-5.7208,-5.7474,-5.766,-5.7574,-5.7052,-5.648,-5.6052,-5.5347,-5.4742,-5.4187,-5.3624,-5.2847,-5.1501,-5.0199,-4.9022,-4.8508,-4.8416,-4.8323,-4.8323,-4.8184,-4.7738,-4.7553,-4.7151,-4.6164,-4.558,-4.5475,-4.5441,-4.5441,-4.5441,-4.5441,-4.5371,-4.5388,-4.5371,-4.5318,-4.514,-4.4944,-4.4831,-4.4609,-4.3393,-4.258,-4.2109,-4.1559,-4.0904,-3.4412,-3.4802,-3.4802,-3.5096,-3.5374,-3.5279,-3.5294,-3.5554,-3.5925,-3.6396,-3.6971,-3.7739,-3.8547,-3.9198,-3.9895,-3.9999,-3.9781,-3.9787,-3.9885,-3.9338,-3.9388,-3.9288,-3.9511,-4.0174,-4.0766,-4.1648,-4.2642,-4.3518,-4.4317,-4.4878,-4.5091,-4.5302,-4.5529,-4.5632,-4.5511,-4.5735,-4.5912,-4.5807,-4.585,-4.5803,-4.5803,-4.5905,-4.6087,-4.6266,-4.6753,-4.723,-4.7632,-4.7856,-4.8114,-4.8344,-4.8495,-4.8874,-4.9225,-4.9566,-4.989,-5.0279,-5.0722,-5.1568,-5.2259,-5.3239,-5.3823,-5.4168,-5.451,-5.5338,-5.5794,-5.6127,-5.6376,-5.6442,-5.6512,-5.6543,-5.664,-5.7156,-5.7483,-5.7935,-5.8105,-5.7908,-5.7475,-5.6824,-5.6229,-5.5265,-5.4528,-5.3999,-5.3456,-5.2989,-5.1805,-5.0967,-4.9939,-4.8967,-4.8655,-4.8469,-4.8373,-4.8363,-4.8165,-4.7974,-4.7512,-4.6726,-4.6253,-4.6234,-4.5855,-4.5441,-4.5441,-4.5699,-4.5579,-4.5595,-4.5474,-4.53,-4.514,-4.4978,-4.4886,-4.439,-4.3393,-4.2629,-4.2316,-4.1641,-4.0715,-3.4683,-3.4868,-3.5001,-3.5213,-3.5439,-3.5359,-3.5474,-3.5861,-3.6274,-3.6832,-3.7975,-3.9039,-3.9894,-4.0484,-4.0983,-4.1276,-4.0746,-4.0729,-4.063,-4.0017,-4.0034,-4.0242,-4.0592,-4.1026,-4.1825,-4.2698,-4.3526,-4.4405,-4.5075,-4.5267,-4.5511,-4.5803,-4.6073,-4.5972,-4.5905,-4.6005,-4.6055,-4.6003,-4.5922,-4.5922,-4.6005,-4.6186,-4.6411,-4.6799,-4.723,-4.7674,-4.7856,-4.8132,-4.8401,-4.8606,-4.897,-4.9459,-4.9864,-5.0383,-5.0779,-5.1299,-5.1752,-5.2696,-5.3665,-5.4175,-5.468,-5.5259,-5.5391,-5.5711,-5.6182,-5.6341,-5.6409,-5.6484,-5.6543,-5.6558,-5.6641,-5.7225,-5.7887,-5.8353,-5.8751,-5.8591,-5.7793,-5.7141,-5.6415,-5.5443,-5.4581,-5.3982,-5.3359,-5.2872,-5.2215,-5.1591,-5.093,-5.0031,-4.9187,-4.9038,-4.8897,-4.8815,-4.8721,-4.8484,-4.8113,-4.7473,-4.7119,-4.6993,-4.6562,-4.6027,-4.6286,-4.6665,-4.6268,-4.5906,-4.5887,-4.5765,-4.5243,-4.4978,-4.4886,-4.4463,-4.3706,-4.3075,-4.2583,-4.1706,-4.0646,-3.475,-3.4935,-3.5082,-3.5359,-3.5504,-3.5619,-3.5973,-3.6368,-3.6477,-3.7883,-4.0189,-3.9476,-4.0287,-4.1791,-4.1657,-4.1375,-4.1309,-4.1326,-4.1243,-4.1266,-4.1139,-4.1476,-4.1782,-4.2132,-4.2787,-4.3631,-4.4389,-4.506,-4.5597,-4.5786,-4.6023,-4.6122,-4.6189,-4.6122,-4.6122,-4.618,-4.6145,-4.6042,-4.6023,-4.616,-4.6481,-4.656,-4.7122,-4.7597,-4.8013,-4.8279,-4.8495,-4.8783,-4.8882,-4.9195,-4.9759,-5.0434,-5.1118,-5.1869,-5.2372,-5.2785,-5.3012,-5.3764,-5.4581,-5.4955,-5.5341,-5.5902,-5.6129,-5.6278,-5.6316,-5.6382,-5.644,-5.6481,-5.6508,-5.6556,-5.6691,-5.7534,-5.8329,-5.8971,-5.9648,-5.9089,-5.8169,-5.7412,-5.6683,-5.5818,-5.4931,-5.4186,-5.3451,-5.2913,-5.2632,-5.2399,-5.194,-5.1701,-5.0894,-5.0233,-5.0026,-4.9649,-4.9424,-4.9057,-4.8591,-4.8182,-4.7896,-4.7751,-4.7493,-4.7131,-4.7424,-4.7424,-4.7027,-4.67,-4.6596,-4.6195,-4.5451,-4.5086,-4.494,-4.439,-4.3864,-4.3196,-4.2629,-4.1641,-4.0768,-3.4765,-3.492,-3.5148,-3.5589,-3.6196,-3.6662,-3.6723,-3.6538,-3.731,-3.8373,-3.8967,-3.9811,-4.0529,-4.0978,-4.1276,-4.1425,-4.1442,-4.1425,-4.1409,-4.1587,-4.2033,-4.203,-4.2422,-4.303,-4.3683,-4.4438,-4.5159,-4.5708,-4.5953,-4.6189,-4.6189,-4.6189,-4.6172,-4.6172,-4.6368,-4.6514,-4.6425,-4.6353,-4.6382,-4.6759,-4.7169,-4.7319,-4.8091,-4.881,-4.9013,-4.9307,-4.9698,-4.9905,-5.0119,-5.0545,-5.1028,-5.1557,-5.1926,-5.2441,-5.2919,-5.3759,-5.4127,-5.4611,-5.5462,-5.5782,-5.6013,-5.6278,-5.6375,-5.6336,-5.6366,-5.649,-5.6523,-5.6484,-5.6528,-5.6588,-5.7011,-5.779,-5.8548,-5.9213,-5.9747,-5.9477,-5.8631,-5.8146,-5.7368,-5.6069,-5.519,-5.4515,-5.3726,-5.314,-5.2938,-5.2926,-5.2876,-5.2692,-5.2399,-5.1646,-5.0921,-5.0505,-5.0199,-4.9841,-4.9415,-4.8964,-4.8665,-4.8459,-4.8252,-4.8027,-4.7941,-4.7855,-4.7631,-4.7389,-4.7131,-4.637,-4.5455,-4.5226,-4.52,-4.4614,-4.4061,-4.3343,-4.2534,-4.1577,-4.0925,-3.4802,-3.5001,-3.5444,-3.6117,-3.6845,-3.7472,-3.7472,-3.7354,-3.7994,-3.852,-3.9175,-4.0001,-4.0514,-4.0978,-4.1574,-4.1905,-4.1922,-4.2549,-4.2779,-4.2875,-4.2901,-4.3396,-4.3784,-4.4113,-4.4697,-4.5297,-4.574,-4.6119,-4.6189,-4.6189,-4.6189,-4.6189,-4.6172,-4.6481,-4.6829,-4.7199,-4.7392,-4.7421,-4.7519,-4.7824,-4.8168,-4.8532,-4.9329,-5.0028,-5.0153,-5.0431,-5.0787,-5.0977,-5.1232,-5.1612,-5.2019,-5.2681,-5.3098,-5.3588,-5.4089,-5.4878,-5.5075,-5.5429,-5.5981,-5.6174,-5.6453,-5.6736,-5.6862,-5.7133,-5.7034,-5.7051,-5.6727,-5.6494,-5.6563,-5.6745,-5.7391,-5.8025,-5.8684,-5.9319,-5.9555,-5.9748,-5.9357,-5.8975,-5.7818,-5.6396,-5.5508,-5.488,-5.4209,-5.3634,-5.317,-5.3127,-5.3096,-5.3041,-5.2876,-5.2527,-5.1736,-5.1144,-5.0923,-5.0624,-5.011,-4.9597,-4.939,-4.9183,-4.9166,-4.8924,-4.8614,-4.8545,-4.8579,-4.8131,-4.7562,-4.6766,-4.5971,-4.5692,-4.5511,-4.4941,-4.4497,-4.3839,-4.2872,-4.1629,-4.1138,-3.4986,-3.5118,-3.6117,-3.689,-3.7488,-3.8124,-3.8351,-3.8407,-3.8407,-3.9061,-4.0062,-4.0266,-4.0498,-4.0829,-4.1548,-4.2102,-4.2505,-4.3222,-4.3794,-4.4322,-4.4439,-4.4782,-4.5027,-4.5511,-4.554,-4.595,-4.6189,-4.6189,-4.6189,-4.6207,-4.6224,-4.6242,-4.6397,-4.6896,-4.7811,-4.8165,-4.8595,-4.9216,-4.9216,-4.9412,-4.9776,-5.0087,-5.0332,-5.09,-5.1004,-5.1026,-5.1201,-5.1398,-5.1687,-5.232,-5.3055,-5.3964,-5.4721,-5.527,-5.5797,-5.6059,-5.6306,-5.6536,-5.6781,-5.6919,-5.7192,-5.7487,-5.7771,-5.8072,-5.7968,-5.7728,-5.7406,-5.705,-5.7112,-5.7301,-5.7868,-5.841,-5.9025,-5.9595,-5.9913,-5.9767,-5.93,-5.8806,-5.7961,-5.6874,-5.6477,-5.5754,-5.4821,-5.4239,-5.3909,-5.3567,-5.3206,-5.3206,-5.3298,-5.3151,-5.2509,-5.1764,-5.1372,-5.1031,-5.0262,-4.9855,-4.9907,-4.9855,-4.9786,-4.9717,-4.9355,-4.9441,-4.9631,-4.8872,-4.8045,-4.742,-4.678,-4.6498,-4.6131,-4.5601,-4.5066,-4.4518,-4.3512,-4.2377,-4.1515,-3.5672,-3.5785,-3.7219,-3.7937,-3.8181,-3.8788,-3.9023,-3.9094,-3.9094,-3.9263,-3.952,-3.9587,-3.9669,-4.0105,-4.1109,-4.1753,-4.2471,-4.3644,-4.4235,-4.4756,-4.5196,-4.5477,-4.5649,-4.587,-4.6038,-4.6105,-4.6189,-4.6189,-4.6207,-4.6242,-4.6523,-4.6946,-4.7216,-4.7931,-4.8852,-4.9274,-5.0056,-5.0859,-5.1102,-5.0908,-5.0904,-5.097,-5.1087,-5.1848,-5.2179,-5.2272,-5.2541,-5.3012,-5.3503,-5.4119,-5.4992,-5.5931,-5.6924,-5.7287,-5.755,-5.7737,-5.7712,-5.7823,-5.791,-5.7942,-5.8178,-5.8406,-5.8651,-5.8785,-5.8766,-5.8566,-5.8292,-5.7938,-5.778,-5.7981,-5.8303,-5.8838,-5.9338,-5.9843,-6.0234,-5.9729,-5.9215,-5.8641,-5.8044,-5.7693,-5.7377,-5.6588,-5.5618,-5.5097,-5.4711,-5.4179,-5.35,-5.3316,-5.3647,-5.3622,-5.3117,-5.2413,-5.1776,-5.1263,-5.0571,-5.0166,-5.0252,-5.0114,-4.9976,-4.9993,-5.0011,-4.9924,-4.9769,-4.92,-4.851,-4.8006,-4.7623,-4.7344,-4.694,-4.6305,-4.5739,-4.524,-4.5026,-4.4169,-4.2909,-3.5582,-3.5999,-3.7578,-3.8463,-3.8772,-3.9148,-3.9288,-3.9288,-3.9288,-3.9288,-3.9288,-3.9288,-3.9342,-3.9611,-4.0802,-4.1639,-4.2439,-4.392,-4.4696,-4.5285,-4.558,-4.5803,-4.6023,-4.6073,-4.6122,-4.6189,-4.6189,-4.6189,-4.6309,-4.6677,-4.7081,-4.7618,-4.8174,-4.8984,-4.9824,-5.0674,-5.1348,-5.2174,-5.2561,-5.2433,-5.2014,-5.2029,-5.216,-5.2876,-5.2973,-5.3237,-5.3923,-5.4429,-5.5081,-5.575,-5.6548,-5.7003,-5.7698,-5.7966,-5.8237,-5.8393,-5.8532,-5.8755,-5.8862,-5.8993,-5.9143,-5.9377,-5.9542,-5.9645,-6.0315,-6.0113,-5.9411,-5.9005,-5.839,-5.8464,-5.8852,-5.9356,-5.9691,-6.0104,-6.0245,-6.0017,-5.9555,-5.9057,-5.8559,-5.821,-5.7827,-5.7261,-5.6565,-5.6628,-5.6132,-5.5115,-5.4363,-5.4216,-5.4399,-5.4393,-5.3761,-5.3284,-5.2806,-5.2094,-5.146,-5.0976,-5.0631,-5.0459,-5.0287,-5.008,-5.0028,-5.0011,-4.9821,-4.9384,-4.9091,-4.8924,-4.8557,-4.8151,-4.7575,-4.6959,-4.6425,-4.5981,-4.5908,-4.5849,-4.4792,-3.5427,-3.6146,-3.7762,-3.8772,-3.9272,-3.9288,-3.9288,-3.9288,-3.9288,-3.9342,-3.9432,-3.9432,-3.9379,-4.0021,-4.1348,-4.1876,-4.2925,-4.4578,-4.5459,-4.5717,-4.6005,-4.6073,-4.614,-4.6189,-4.6189,-4.6189,-4.6189,-4.6428,-4.6667,-4.7156,-4.7709,-4.8288,-4.9103,-4.9972,-5.1058,-5.1671,-5.2032,-5.2688,-5.3042,-5.3103,-5.3127,-5.3206,-5.3133,-5.317,-5.3437,-5.3998,-5.4819,-5.5598,-5.6333,-5.7017,-5.7711,-5.8245,-5.8621,-5.896,-5.907,-5.9274,-5.9478,-5.9517,-5.9471,-5.9561,-5.9923,-6.0227,-6.0369,-6.0714,-6.1341,-6.1136,-6.0434,-5.9932,-5.9322,-5.9084,-5.9494,-5.9733,-6.0035,-6.0223,-6.0255,-6.014,-5.9701,-5.9357,-5.899,-5.8591,-5.8116,-5.7638,-5.7657,-5.7757,-5.7106,-5.6151,-5.5802,-5.5684,-5.5611,-5.5448,-5.5085,-5.4639,-5.4289,-5.3488,-5.2347,-5.1787,-5.1252,-5.1063,-5.0873,-5.0407,-5.0045,-4.9935,-4.9918,-4.9884,-4.9625,-4.9326,-4.9171,-4.8856,-4.8203,-4.7677,-4.768,-4.7344,-4.6904,-4.6853,-4.6572,-3.6286,-3.7806,-3.8727,-3.9202,-3.9272,-3.9288,-3.9288,-3.9288,-3.9325,-3.9484,-3.9746,-3.9798,-3.9798,-3.9933,-4.2107,-4.3011,-4.3236,-4.5072,-4.5883,-4.6122,-4.6172,-4.6189,-4.6189,-4.6189,-4.6189,-4.6309,-4.653,-4.6822,-4.7541,-4.7908,-4.8656,-4.9943,-5.0588,-5.1294,-5.2027,-5.2535,-5.2969,-5.3463,-5.35,-5.35,-5.3371,-5.3335,-5.3225,-5.3534,-5.4149,-5.4782,-5.554,-5.6427,-5.7135,-5.7825,-5.8517,-5.923,-5.9672,-6.0029,-6.0209,-6.0302,-6.0495,-6.06,-6.0585,-6.06,-6.0936,-6.1015,-6.1123,-6.1183,-6.1541,-6.1519,-6.1062,-6.0903,-6.0371,-5.9932,-6.0132,-6.0128,-6.0349,-6.0321,-6.037,-5.9937,-5.9465,-5.9233,-5.8988,-5.8596,-5.8189,-5.7997,-5.7997,-5.7914,-5.7583,-5.6959,-5.7048,-5.6875,-5.6143,-5.62,-5.6282,-5.5884,-5.5524,-5.4141,-5.2701,-5.2356,-5.1977,-5.177,-5.1338,-5.0683,-5.0142,-4.9818,-4.9784,-4.986,-4.9725,-4.9495,-4.9375,-4.9279,-4.9086,-4.8694,-4.901,-4.8906,-4.8293,-4.78,-4.7561]}]]